[[{"header":{"parameterUnit":"m.s-1","parameterCategory":1,"la1":30.6,"la2":29.2853,"lo1":-89.7004,"lo2":-87.6739,"dy":0.0162,"dx":0.0183,"nx":112,"ny":82,"refTime":"2023-08-21T18:00:00:Z","depth":0,"parameterNumber":2,"parameterNumberName":"U-component_of_WINDS"},"data":[0.0,0.0,0.0,0.0,0.0,0.0,0.0,0.0,0.0,0.0,0.0,0.0,0.0,0.0,0.0,0.0,0.0,0.0,0.0,0.0,0.0,0.0,0.0,0.0,0.0,0.0,0.0,0.0,0.0,0.0,0.0,0.0,0.0,0.0,0.0,0.0,0.0,0.0,0.0,0.0,0.0,0.0,0.0,0.0,0.0,0.0,0.0,0.0,0.0,0.0,0.0,0.0,0.0,0.0,0.0,0.0,0.0,0.0,0.0,0.0,0.0,0.0,0.0,0.0,0.0,0.0,0.0,0.0,0.0,0.0,0.0,0.0,0.0,0.0,0.0,0.0,0.0,0.0,0.0,0.0,0.0,0.0,0.0,0.0,0.0,0.0,0.0,0.0,0.0,0.0,-1.901,-2.0045,-1.9794,-1.9369,-1.8817,-1.7702,-1.726,-1.774,0.0,0.0,0.0,0.0,0.0,0.0,0.0,0.0,0.0,0.0,0.0,0.0,0.0,0.0,0.0,0.0,0.0,0.0,0.0,0.0,0.0,0.0,0.0,0.0,0.0,0.0,0.0,0.0,0.0,0.0,0.0,0.0,0.0,0.0,0.0,0.0,0.0,0.0,0.0,0.0,0.0,0.0,0.0,0.0,0.0,0.0,0.0,0.0,0.0,0.0,0.0,0.0,0.0,0.0,0.0,0.0,0.0,0.0,0.0,0.0,0.0,0.0,0.0,0.0,0.0,0.0,0.0,0.0,0.0,0.0,0.0,0.0,0.0,0.0,0.0,0.0,0.0,0.0,0.0,0.0,0.0,0.0,0.0,0.0,0.0,0.0,0.0,0.0,0.0,0.0,0.0,0.0,0.0,0.0,0.0,0.0,0.0,0.0,0.0,0.0,0.0,0.0,0.0,0.0,-1.9049,-1.8962,-1.9013,-1.8798,-1.8269,-1.6807,-1.6254,-1.7021,0.0,0.0,0.0,0.0,0.0,0.0,0.0,0.0,0.0,0.0,0.0,0.0,0.0,0.0,0.0,0.0,0.0,0.0,0.0,0.0,0.0,0.0,0.0,0.0,0.0,0.0,0.0,0.0,0.0,0.0,0.0,0.0,0.0,0.0,0.0,0.0,0.0,0.0,0.0,0.0,0.0,0.0,0.0,0.0,0.0,0.0,0.0,0.0,0.0,0.0,0.0,0.0,0.0,0.0,0.0,0.0,0.0,0.0,0.0,0.0,0.0,0.0,0.0,0.0,0.0,0.0,0.0,0.0,0.0,0.0,0.0,0.0,0.0,0.0,0.0,0.0,0.0,0.0,0.0,0.0,0.0,0.0,0.0,0.0,0.0,0.0,0.0,0.0,0.0,0.0,0.0,0.0,0.0,0.0,0.0,0.0,0.0,0.0,0.0,0.0,0.0,0.0,0.0,-2.0468,-2.0038,-1.8929,-1.8607,-1.8249,-1.7693,-1.6174,-1.5792,-1.72,-1.4356,0.0,0.0,0.0,0.0,0.0,0.0,0.0,0.0,0.0,0.0,0.0,0.0,0.0,0.0,0.0,0.0,0.0,0.0,0.0,0.0,0.0,0.0,0.0,0.0,0.0,0.0,0.0,0.0,0.0,0.0,0.0,0.0,0.0,0.0,0.0,0.0,0.0,0.0,0.0,0.0,0.0,0.0,0.0,0.0,0.0,0.0,0.0,0.0,0.0,0.0,0.0,0.0,0.0,0.0,0.0,0.0,0.0,0.0,0.0,0.0,0.0,0.0,0.0,0.0,0.0,0.0,0.0,0.0,0.0,0.0,0.0,0.0,0.0,0.0,0.0,0.0,0.0,0.0,0.0,0.0,0.0,0.0,0.0,0.0,0.0,0.0,0.0,0.0,0.0,0.0,0.0,0.0,0.0,0.0,0.0,0.0,0.0,0.0,0.0,0.0,0.0,0.0,-2.083,-2.0149,-1.8865,-1.8118,-1.7564,-1.7142,-1.5462,-1.5231,-1.7088,-1.3902,0.0,0.0,0.0,0.0,0.0,0.0,0.0,0.0,0.0,0.0,0.0,0.0,0.0,0.0,0.0,0.0,0.0,0.0,0.0,0.0,0.0,0.0,0.0,0.0,0.0,0.0,0.0,0.0,0.0,0.0,0.0,0.0,0.0,0.0,0.0,0.0,0.0,0.0,0.0,0.0,0.0,0.0,0.0,0.0,0.0,0.0,0.0,0.0,0.0,0.0,0.0,0.0,0.0,0.0,0.0,0.0,0.0,0.0,0.0,0.0,0.0,0.0,0.0,0.0,0.0,0.0,0.0,0.0,0.0,0.0,0.0,0.0,0.0,0.0,0.0,0.0,0.0,0.0,0.0,0.0,0.0,0.0,0.0,0.0,0.0,0.0,0.0,0.0,0.0,0.0,0.0,0.0,0.0,0.0,0.0,0.0,0.0,0.0,0.0,0.0,0.0,0.0,-1.9082,-1.8152,-1.8163,-1.7226,-1.6618,-1.6579,-1.456,-1.4083,-1.5906,-1.3373,0.0,0.0,0.0,0.0,0.0,0.0,0.0,0.0,0.0,0.0,0.0,0.0,0.0,0.0,0.0,0.0,0.0,0.0,0.0,0.0,0.0,0.0,0.0,0.0,0.0,0.0,0.0,0.0,0.0,0.0,0.0,0.0,0.0,0.0,0.0,0.0,0.0,0.0,0.0,0.0,0.0,0.0,0.0,0.0,0.0,0.0,0.0,0.0,0.0,0.0,0.0,0.0,0.0,0.0,0.0,0.0,0.0,0.0,0.0,0.0,0.0,0.0,0.0,0.0,0.0,0.0,0.0,0.0,0.0,0.0,0.0,0.0,0.0,0.0,0.0,0.0,0.0,0.0,0.0,0.0,0.0,0.0,0.0,0.0,0.0,0.0,0.0,0.0,0.0,0.0,0.0,0.0,0.0,0.0,0.0,0.0,0.0,0.0,0.0,0.0,0.0,0.0,-1.9669,-1.874,-1.7707,-1.665,-1.5991,-1.5991,-1.3968,-1.3495,-1.5344,0.0,0.0,0.0,0.0,0.0,0.0,0.0,0.0,0.0,0.0,0.0,0.0,0.0,0.0,0.0,0.0,0.0,0.0,0.0,0.0,0.0,0.0,0.0,0.0,0.0,0.0,0.0,0.0,0.0,0.0,0.0,0.0,0.0,0.0,0.0,0.0,0.0,0.0,0.0,0.0,0.0,0.0,0.0,0.0,0.0,0.0,0.0,0.0,0.0,0.0,0.0,0.0,0.0,0.0,0.0,0.0,0.0,0.0,0.0,0.0,0.0,0.0,0.0,0.0,0.0,0.0,0.0,0.0,0.0,0.0,0.0,0.0,0.0,0.0,0.0,0.0,0.0,0.0,0.0,0.0,0.0,0.0,0.0,0.0,0.0,0.0,0.0,0.0,0.0,0.0,0.0,0.0,0.0,0.0,0.0,0.0,0.0,0.0,0.0,0.0,0.0,0.0,-2.0255,-1.9525,-1.8548,-1.7209,-1.6089,-1.5387,-1.5211,-1.3308,-1.2945,-1.485,0.0,0.0,0.0,0.0,0.0,0.0,0.0,0.0,0.0,0.0,0.0,0.0,0.0,0.0,0.0,0.0,0.0,0.0,0.0,0.0,0.0,0.0,0.0,0.0,0.0,0.0,0.0,0.0,0.0,0.0,0.0,0.0,0.0,0.0,0.0,0.0,0.0,0.0,0.0,0.0,0.0,0.0,0.0,0.0,0.0,0.0,0.0,0.0,0.0,0.0,0.0,0.0,0.0,0.0,0.0,0.0,0.0,0.0,0.0,0.0,0.0,0.0,0.0,0.0,0.0,0.0,0.0,0.0,0.0,0.0,0.0,0.0,0.0,0.0,0.0,0.0,0.0,0.0,0.0,0.0,0.0,0.0,0.0,0.0,0.0,0.0,0.0,0.0,0.0,0.0,0.0,0.0,0.0,0.0,0.0,0.0,0.0,0.0,0.0,0.0,0.0,0.0,-1.94,-1.8158,-1.7084,-1.6565,-1.5542,-1.4702,-1.4166,-1.2562,-1.2456,0.0,0.0,0.0,0.0,0.0,0.0,0.0,0.0,0.0,0.0,0.0,0.0,0.0,0.0,0.0,0.0,0.0,0.0,0.0,0.0,0.0,0.0,0.0,0.0,0.0,0.0,0.0,0.0,0.0,0.0,0.0,0.0,0.0,0.0,0.0,0.0,0.0,0.0,0.0,0.0,0.0,0.0,0.0,0.0,0.0,0.0,0.0,0.0,0.0,0.0,0.0,0.0,0.0,0.0,0.0,0.0,0.0,0.0,0.0,0.0,0.0,0.0,0.0,0.0,0.0,0.0,0.0,0.0,0.0,0.0,0.0,0.0,0.0,0.0,0.0,0.0,0.0,0.0,0.0,0.0,0.0,0.0,0.0,0.0,0.0,0.0,0.0,0.0,0.0,0.0,0.0,0.0,0.0,0.0,0.0,0.0,0.0,0.0,0.0,0.0,0.0,0.0,0.0,-1.9423,-1.8158,-1.7084,-1.6565,-1.5542,-1.4853,-1.4676,-1.2772,-1.2856,-1.5802,0.0,0.0,0.0,0.0,0.0,0.0,0.0,0.0,0.0,0.0,0.0,0.0,0.0,0.0,0.0,0.0,0.0,0.0,0.0,0.0,0.0,0.0,0.0,0.0,0.0,0.0,0.0,0.0,0.0,0.0,0.0,0.0,0.0,0.0,0.0,0.0,0.0,0.0,0.0,0.0,0.0,0.0,0.0,0.0,0.0,0.0,0.0,0.0,0.0,0.0,0.0,0.0,0.0,0.0,0.0,0.0,0.0,0.0,0.0,0.0,0.0,0.0,0.0,0.0,0.0,0.0,0.0,0.0,0.0,0.0,0.0,0.0,0.0,0.0,0.0,0.0,0.0,0.0,0.0,0.0,0.0,0.0,0.0,0.0,0.0,0.0,0.0,0.0,0.0,0.0,0.0,0.0,0.0,0.0,0.0,0.0,0.0,0.0,0.0,0.0,0.0,0.0,-1.9175,-1.7878,-1.6858,-1.6543,-1.5718,-1.5035,-1.4626,-1.3149,-1.3148,-1.5271,0.0,0.0,0.0,0.0,0.0,0.0,0.0,0.0,0.0,0.0,0.0,0.0,0.0,0.0,0.0,0.0,0.0,0.0,0.0,0.0,0.0,0.0,0.0,0.0,0.0,0.0,0.0,0.0,0.0,0.0,0.0,0.0,0.0,0.0,0.0,0.0,0.0,0.0,0.0,0.0,0.0,0.0,0.0,0.0,0.0,0.0,0.0,0.0,0.0,0.0,0.0,0.0,0.0,0.0,0.0,0.0,0.0,0.0,0.0,0.0,0.0,0.0,0.0,0.0,0.0,0.0,0.0,0.0,0.0,0.0,0.0,0.0,0.0,0.0,0.0,0.0,0.0,0.0,0.0,0.0,0.0,0.0,0.0,0.0,0.0,0.0,0.0,0.0,0.0,0.0,0.0,0.0,0.0,0.0,0.0,0.0,0.0,0.0,0.0,0.0,0.0,0.0,-1.8861,-1.7492,-1.65,-1.65,-1.6019,-1.5311,-1.4324,-1.3609,-1.341,-1.3901,0.0,0.0,0.0,0.0,0.0,0.0,0.0,0.0,0.0,0.0,0.0,0.0,0.0,0.0,0.0,0.0,0.0,0.0,0.0,0.0,0.0,0.0,0.0,0.0,0.0,0.0,0.0,0.0,0.0,0.0,0.0,0.0,0.0,0.0,0.0,0.0,0.0,0.0,0.0,0.0,0.0,0.0,0.0,0.0,0.0,0.0,0.0,0.0,0.0,0.0,0.0,0.0,0.0,0.0,0.0,0.0,0.0,0.0,0.0,0.0,-1.9736,-1.8859,0.0,0.0,0.0,0.0,0.0,0.0,0.0,0.0,0.0,0.0,0.0,0.0,0.0,0.0,0.0,0.0,0.0,0.0,0.0,0.0,0.0,0.0,0.0,0.0,0.0,0.0,0.0,0.0,0.0,0.0,0.0,0.0,0.0,0.0,0.0,0.0,0.0,0.0,0.0,0.0,-1.9409,-1.7747,-1.65,-1.65,-1.6019,-1.5613,-1.5387,-1.4018,-1.4091,-1.6135,-1.4444,0.0,0.0,0.0,0.0,0.0,0.0,0.0,0.0,0.0,0.0,0.0,0.0,0.0,0.0,0.0,0.0,0.0,0.0,0.0,0.0,0.0,0.0,0.0,0.0,0.0,0.0,0.0,0.0,0.0,0.0,0.0,0.0,0.0,0.0,0.0,0.0,0.0,0.0,0.0,0.0,0.0,0.0,0.0,0.0,0.0,0.0,0.0,0.0,0.0,0.0,0.0,0.0,0.0,0.0,0.0,0.0,0.0,0.0,0.0,-2.3158,-2.1744,0.0,0.0,0.0,0.0,0.0,0.0,0.0,0.0,0.0,0.0,0.0,0.0,0.0,0.0,0.0,0.0,0.0,0.0,0.0,0.0,0.0,0.0,0.0,0.0,0.0,0.0,0.0,0.0,0.0,0.0,0.0,0.0,0.0,0.0,0.0,0.0,0.0,0.0,0.0,0.0,-1.957,-1.7804,-1.65,-1.65,-1.6249,-1.5994,-1.5718,-1.4664,-1.4462,-1.5548,-1.4796,0.0,0.0,0.0,0.0,0.0,0.0,0.0,0.0,0.0,0.0,0.0,0.0,0.0,0.0,0.0,0.0,0.0,0.0,0.0,0.0,0.0,0.0,0.0,0.0,0.0,0.0,0.0,0.0,0.0,0.0,0.0,0.0,0.0,0.0,0.0,0.0,0.0,0.0,0.0,0.0,0.0,0.0,0.0,0.0,0.0,0.0,0.0,0.0,0.0,0.0,0.0,0.0,0.0,-2.9707,-3.0203,-3.0522,-3.1043,-3.0228,-2.8352,-2.7002,-2.525,-2.338,-2.3654,0.0,0.0,0.0,0.0,0.0,0.0,0.0,0.0,0.0,0.0,0.0,0.0,0.0,0.0,0.0,0.0,0.0,0.0,0.0,0.0,0.0,0.0,-2.4094,-2.3871,-2.407,-2.3517,-2.0654,0.0,0.0,0.0,0.0,0.0,0.0,0.0,0.0,0.0,0.0,0.0,-1.9475,-1.7812,-1.6672,-1.6672,-1.655,-1.6325,-1.5869,-1.5361,-1.4833,-1.44,-1.5126,-1.5214,0.0,0.0,0.0,0.0,0.0,0.0,0.0,0.0,0.0,0.0,0.0,0.0,0.0,0.0,0.0,0.0,0.0,0.0,0.0,0.0,0.0,0.0,0.0,0.0,0.0,0.0,0.0,0.0,0.0,0.0,0.0,0.0,-2.1352,-2.1563,0.0,0.0,0.0,0.0,0.0,0.0,0.0,0.0,0.0,0.0,0.0,0.0,0.0,-2.8813,-2.9854,-3.0859,-3.1251,-3.0999,-3.2097,-3.2122,-3.1266,-3.182,-3.1879,-3.1603,-3.1377,0.0,-2.5879,-2.4243,0.0,0.0,0.0,0.0,0.0,0.0,0.0,0.0,0.0,0.0,0.0,0.0,0.0,0.0,0.0,0.0,0.0,0.0,0.0,0.0,0.0,0.0,-2.4576,-2.4098,-2.4368,-2.4337,-2.2929,-2.2883,-2.2728,-2.1401,-2.0374,-2.0041,0.0,0.0,0.0,0.0,0.0,0.0,-1.938,-1.812,-1.7297,-1.7297,-1.6823,-1.6475,-1.64,-1.5894,-1.5542,-1.5492,-1.4771,-1.4955,-1.6358,-1.6247,0.0,0.0,0.0,0.0,0.0,0.0,0.0,0.0,0.0,0.0,0.0,0.0,0.0,0.0,0.0,0.0,0.0,0.0,0.0,0.0,0.0,0.0,0.0,0.0,0.0,0.0,0.0,0.0,0.0,-2.3482,-2.4543,-2.3722,-2.4676,-2.5068,0.0,0.0,0.0,0.0,0.0,0.0,0.0,0.0,0.0,-3.0263,-3.122,-3.1964,-3.2466,-3.3244,-3.3671,-3.3677,-3.455,-3.4695,-3.4243,-3.4751,-3.4851,-3.455,-3.455,-3.342,-3.1386,-2.9038,-2.7971,-2.7616,0.0,0.0,0.0,0.0,-2.4987,-2.5315,-2.5569,-2.5511,-2.541,-2.6036,0.0,0.0,0.0,0.0,0.0,0.0,0.0,-2.6198,-2.5314,-2.6163,-2.7031,-2.6072,-2.6264,-2.6364,-2.5234,-2.4854,-2.4247,-2.269,-2.2856,-2.3379,-2.3957,-2.2765,0.0,0.0,0.0,-2.0016,-1.9762,-1.865,-1.7727,-1.7448,-1.7149,-1.6873,-1.6525,-1.6019,-1.5693,-1.5693,-1.4984,-1.4765,-1.5253,-1.6303,-1.6716,0.0,0.0,0.0,0.0,0.0,0.0,0.0,0.0,0.0,0.0,0.0,0.0,0.0,0.0,0.0,0.0,0.0,0.0,0.0,0.0,0.0,0.0,0.0,0.0,0.0,0.0,0.0,0.0,-2.6038,-2.7044,-2.5477,-2.6893,-2.7311,0.0,0.0,0.0,0.0,0.0,0.0,-2.9633,-3.1281,-3.2481,-3.3096,-3.4053,-3.4675,-3.4951,-3.5353,-3.5734,-3.6135,-3.6584,-3.6832,-3.6832,-3.7211,-3.7161,-3.6832,-3.681,-3.6558,-3.5956,-3.3172,-3.1175,-2.9745,-2.9082,-2.8456,-2.7962,-2.7982,-2.8286,-2.8754,-2.9026,-2.9126,-2.9138,-2.9328,-2.8534,-2.7369,-2.6581,0.0,0.0,0.0,0.0,-2.785,-2.736,-2.8058,-2.8759,-2.8083,-2.8247,-2.8273,-2.7329,-2.6936,-2.6064,-2.3755,-2.434,-2.5288,-2.5575,-2.4047,0.0,-2.4086,-2.2244,-2.0576,-2.0092,-1.9182,-1.8355,-1.77,-1.7498,-1.7149,-1.655,-1.6145,-1.5894,-1.5894,-1.5412,-1.4928,-1.4525,-1.6043,-1.6547,-1.574,0.0,0.0,0.0,0.0,0.0,0.0,0.0,0.0,0.0,0.0,0.0,0.0,0.0,0.0,0.0,0.0,0.0,0.0,0.0,0.0,0.0,0.0,0.0,0.0,0.0,0.0,0.0,0.0,0.0,-2.6746,-2.8594,0.0,0.0,0.0,0.0,-2.8233,-3.0683,-3.2519,-3.3289,-3.3931,-3.4844,-3.6132,-3.6254,-3.6734,-3.7789,-3.7839,-3.7864,-3.7889,-3.7914,-3.7914,-3.7914,-3.7939,-3.7939,-3.7914,-3.7914,-3.7914,-3.7638,-3.4394,-3.3348,-3.3723,-3.2127,-3.2143,-3.2904,-3.1823,-3.1322,-3.1075,-3.008,-2.9402,-2.9139,-3.039,-3.0508,-3.0049,-2.9237,-2.8726,0.0,0.0,-2.7561,-2.7703,-2.7968,-2.8097,-2.8398,-2.9428,-2.9679,-2.9553,-2.8888,-2.9353,-2.8529,-2.401,-2.2774,-2.2707,-2.3441,0.0,-2.2607,-2.2712,-2.2585,-2.1815,-2.0038,-1.9761,-1.9334,-1.8279,-1.7702,-1.7149,-1.655,-1.6475,-1.645,-1.645,-1.5969,-1.5663,-1.5618,-1.5236,-1.58,-1.7429,-1.7578,0.0,0.0,0.0,0.0,0.0,0.0,0.0,0.0,0.0,0.0,0.0,0.0,0.0,0.0,0.0,0.0,0.0,0.0,0.0,0.0,0.0,0.0,0.0,0.0,0.0,0.0,0.0,0.0,-3.1722,-3.225,0.0,-3.0237,-3.0186,-3.053,-3.1135,-3.3193,-3.5019,-3.6363,-3.6614,-3.7288,-3.8467,-3.8492,-3.8868,-3.9622,-3.9622,-3.9622,-3.9622,-3.927,-3.9094,-3.9094,-3.9094,-3.9094,-3.9094,-3.9094,-3.9094,-3.8969,-3.7437,-3.6329,-3.547,-3.4136,-3.3658,-3.3676,-3.3298,-3.3061,-3.2993,-3.2968,-3.2365,-3.1486,-3.0914,-3.064,-3.0326,-2.9315,-2.8887,-2.8722,-2.8509,-2.8422,-2.8547,-2.9051,-2.9202,-2.9302,-2.9704,-2.9804,-2.9628,-2.9013,-2.9114,-2.8724,-2.6716,-2.5719,-2.5394,-2.6011,-2.4343,-2.3376,-2.4594,-2.3436,-2.2027,-2.1016,-2.0591,-2.0088,-1.9309,-1.8756,-1.8078,-1.7149,-1.7074,-1.6923,-1.6525,-1.6325,-1.607,-1.5718,-1.5844,-1.6065,-1.638,-1.6734,-1.7428,0.0,0.0,0.0,0.0,0.0,0.0,0.0,0.0,0.0,0.0,0.0,0.0,0.0,0.0,0.0,0.0,0.0,0.0,0.0,0.0,0.0,0.0,0.0,0.0,0.0,-3.1121,-3.2791,-3.3362,-3.4059,-3.3673,-3.1645,-3.2094,-3.2814,-3.3614,-3.5867,-3.7864,-3.932,-3.922,-3.9471,-4.0224,-4.0249,-4.0425,-4.0802,-4.0099,-4.0,-4.0501,-3.9454,-3.8973,-3.8973,-3.9465,-3.9413,-3.8973,-3.9465,-3.9697,-3.9672,-3.9295,-3.8241,-3.6727,-3.6068,-3.5604,-3.5253,-3.5077,-3.4901,-3.4751,-3.4726,-3.3997,-3.2893,-3.1813,-3.1185,-3.0733,-2.998,-2.9754,-2.9729,-2.9515,-2.9465,-2.949,-2.9729,-2.9804,-2.9804,-2.9804,-2.9804,-2.9679,-2.9302,-2.9038,-2.8787,-2.8448,-2.7637,-2.7034,-2.7211,-2.5408,-2.452,-2.6298,-2.4463,-2.2904,-2.2993,-2.2005,-2.0893,-1.9911,-1.9484,-1.8857,-1.7752,-1.7978,-1.7802,-1.6873,-1.7127,-1.6926,-1.6019,-1.6697,-1.6879,-1.6461,-1.6586,-1.7065,-1.7849,0.0,0.0,0.0,0.0,0.0,0.0,0.0,0.0,0.0,0.0,0.0,0.0,0.0,0.0,0.0,0.0,0.0,0.0,0.0,0.0,0.0,0.0,0.0,-2.7885,-3.1928,-3.407,-3.1598,-3.3807,-3.4042,-3.0178,-3.2748,-3.4949,-3.5608,-3.8717,-4.1,-4.2048,-4.1572,-4.1297,-4.1297,-4.1297,-4.1272,-4.1326,-3.9334,-3.9067,-4.042,-3.8456,-3.753,-3.7583,-3.905,-3.8921,-3.7636,-3.9077,-3.9697,-3.9697,-3.9645,-3.8792,-3.7517,-3.7789,-3.7916,-3.7791,-3.729,-3.6764,-3.621,-3.5082,-3.4048,-3.3162,-3.3119,-3.234,-3.1436,-3.1411,-3.1411,-3.1311,-3.0783,-3.0633,-3.0507,-2.9955,-2.9804,-2.9804,-2.9804,-2.9804,-2.9804,-2.9804,-2.9352,-2.8913,-2.8913,-2.8072,-2.7178,-2.6625,-2.6047,-2.6114,-2.7443,-2.5575,0.0,-2.5764,-2.3806,-2.1691,-2.0136,-1.9936,-1.9509,-1.8431,-1.9309,-1.9183,-1.7549,-1.8405,-1.8255,-1.6626,-1.7601,-1.8059,-1.782,-1.7266,-1.6641,-1.5984,0.0,0.0,0.0,0.0,0.0,0.0,0.0,0.0,0.0,0.0,0.0,0.0,0.0,0.0,0.0,0.0,0.0,0.0,0.0,0.0,0.0,-2.8892,-3.1595,-3.3105,-3.4801,-3.6383,-3.7683,-3.6868,-3.5809,-3.4703,-3.5838,-3.6515,-3.6299,-3.9679,-4.131,-4.0273,-4.0466,-4.0812,-4.1254,-4.0836,-4.1264,-4.2534,-4.0116,-3.9084,-3.9491,-3.8503,-3.7887,-3.7583,-3.942,-3.984,-3.9129,-3.9517,-3.9697,-3.9645,-3.853,-3.7849,-3.7411,-3.6798,-3.607,-3.5294,-3.4467,-3.4701,-3.5355,-3.5307,-3.4806,-3.4198,-3.3796,-3.3194,-3.2541,-3.2114,-3.1989,-3.1863,-3.1336,-3.1185,-3.106,-3.0532,-3.0382,-3.0281,-2.988,-2.9804,-2.9804,-2.9804,-2.9679,-2.9553,-2.9553,-2.8976,-2.8172,-2.7253,-2.6952,-2.6675,-2.624,-2.5267,-2.4556,-2.4551,-2.3231,-2.266,-2.3623,-2.3368,-2.2675,-2.1638,-2.1811,-2.0824,-1.8154,-1.8254,-1.8205,-1.7752,-1.7652,-1.7196,-1.6256,-1.6114,-1.5933,0.0,0.0,0.0,0.0,0.0,0.0,0.0,0.0,0.0,0.0,0.0,0.0,0.0,0.0,0.0,0.0,0.0,0.0,0.0,0.0,0.0,0.0,-3.0914,-3.3973,-3.6449,-3.7016,-3.7685,-3.8972,-3.7684,-3.6518,-3.584,-3.6703,-3.7216,-3.7129,-3.9574,-4.0692,-3.9864,-3.9984,-4.0525,-4.1567,-4.0398,-4.0925,-4.3313,-4.0129,-3.9131,-4.0379,-3.9218,-3.8459,-3.8251,-4.0038,-3.989,-3.8209,-3.8872,-3.862,-3.782,-3.6918,-3.6217,-3.5659,0.0,0.0,0.0,0.0,-3.5051,-3.6234,-3.5974,-3.5529,-3.4931,-3.4424,-3.3872,-3.3319,-3.2742,-3.2566,-3.2466,-3.1888,-3.1738,-3.1562,-3.0809,-3.0608,-3.0482,-2.993,-2.9804,-2.9804,-2.9804,-2.9804,-2.9804,-2.9804,-2.9528,0.0,-2.8122,-2.7595,-2.7329,-2.746,-2.5954,-2.4991,-2.5499,-2.384,-2.296,-2.3878,-2.3704,-2.3088,-2.1994,-2.2342,0.0,0.0,0.0,-1.9008,-1.8437,-1.8069,0.0,0.0,0.0,-1.5976,-1.5771,-1.586,0.0,0.0,-1.626,-1.7192,0.0,0.0,0.0,0.0,0.0,0.0,0.0,0.0,0.0,0.0,0.0,0.0,0.0,0.0,0.0,0.0,-3.3238,-3.5846,-3.8324,-3.8605,-3.8358,-3.7657,-3.7334,-3.6558,-3.5054,-3.6326,-3.7355,-3.7642,-3.8801,-3.9637,-3.9856,-3.9563,0.0,0.0,0.0,-4.0338,-4.3367,-3.9453,-3.892,-4.1712,-3.9898,-3.903,-3.9133,-4.0542,-3.9382,-3.642,-3.7527,-3.7006,-3.5288,-3.5123,-3.4181,-3.3021,-3.4459,-3.5046,-3.5054,-3.5503,-3.6437,-3.7394,-3.6352,0.0,0.0,-3.4495,-3.3975,-3.3449,-3.2903,-3.2841,-3.2828,-3.2254,-3.2164,-3.2089,-3.106,-3.0758,-3.0557,-3.0005,-2.9829,-2.9804,-2.9804,-2.9804,-2.9804,-2.9804,-2.9804,-2.9628,-2.9088,-2.8172,-2.7994,-2.9555,-2.7056,-2.5552,-2.7154,-2.4936,-2.3095,-2.2739,-2.2714,0.0,-2.129,-2.2092,-2.1663,-1.9434,-2.0213,-2.0196,-1.8871,-1.8625,-1.8518,-1.8581,-1.72,-1.6418,-1.6321,-1.5129,-1.4854,-1.5527,-1.7691,-1.8897,0.0,0.0,0.0,0.0,0.0,0.0,0.0,0.0,0.0,0.0,0.0,0.0,0.0,0.0,0.0,-3.2097,-3.5437,-3.8115,-3.895,-3.9432,-3.9562,-3.9416,-3.8118,-3.6986,-3.6397,-3.7447,-3.7662,-3.6467,-3.8317,-3.8871,-3.7468,-3.82,-3.8931,-3.9776,-3.8933,-3.928,-4.0936,-3.8142,-3.7466,-3.8974,-3.8566,0.0,-3.9102,-3.981,-3.9276,-3.7801,-3.6786,-3.5959,-3.5233,-3.4013,-3.2644,-3.1498,-3.2964,-3.3274,-3.3078,-3.4244,-3.4623,-3.4503,-3.3856,-3.3055,-3.2277,-3.2137,-3.1748,-3.1245,-3.0742,-3.1341,0.0,-3.1533,-3.2111,-3.2767,-3.2089,-3.1562,-3.111,-3.0583,-3.0105,-2.9804,-2.9804,-2.9804,-2.9804,-2.9804,-2.9804,-2.9754,-2.9654,-2.9051,-2.8423,-2.7918,-2.6876,-2.5971,-2.5451,-2.4463,-2.4242,-2.5244,-2.5369,-2.5087,-2.4409,-2.45,-2.3604,-2.1192,-2.1217,-2.0811,-1.9629,-1.8897,-1.8283,-1.7825,-1.6722,-1.6494,-1.7156,-1.721,-1.7445,-1.7807,-1.7087,-1.7028,0.0,0.0,0.0,0.0,0.0,0.0,0.0,0.0,0.0,0.0,0.0,-2.9,-3.0151,0.0,-3.3598,-3.4837,-3.6836,-3.8393,-3.8838,-3.9081,-3.9412,-3.9819,-3.8366,-3.7226,-3.7012,-3.7519,-3.7517,-3.6729,-3.7752,-3.7975,-3.7093,-3.7568,-3.8228,-3.9134,-3.7934,-3.8169,-4.0293,-3.8832,-3.8781,-4.0167,-4.1023,-4.1031,-4.0269,-4.0473,-3.9197,-3.6665,-3.5881,-3.4739,-3.3299,-3.2404,-3.1556,-3.1054,-3.253,-3.2987,-3.2769,-3.2942,-3.3319,-3.3698,-3.2907,-3.2325,-3.1878,-3.1582,-3.1337,-3.0998,-3.0507,-3.0778,-3.1344,-3.1474,-3.1985,-3.246,-3.2247,-3.2014,-3.1662,-3.1135,-3.0583,-3.0206,-3.0206,-2.998,-2.9804,-2.9804,-2.9804,-2.9804,-2.9804,-2.9553,-2.8976,-2.7871,-2.7027,-2.6197,-2.531,-2.4732,-2.4543,-2.4995,-2.5045,-2.4688,-2.381,-2.3486,-2.262,-2.0978,-2.1244,-2.0884,-1.9495,-1.9023,-1.867,-1.8344,-1.7072,-1.7012,-1.8232,-1.8071,-1.8313,-1.8899,-1.8492,-1.8304,0.0,0.0,0.0,0.0,0.0,0.0,0.0,-2.6326,-2.7146,-2.9679,-3.1424,-3.2792,-3.3853,-3.5237,-3.6504,-3.7434,-3.7891,-3.8301,-3.8652,-3.8633,-3.8838,-3.9474,-3.8377,-3.7519,-3.7422,-3.7422,-3.7383,-3.7305,-3.7305,-3.7324,-3.7422,-3.7422,-3.8067,-3.9427,-3.7725,-3.7996,-4.0583,-4.024,-4.0754,-4.2268,-4.3308,-4.2968,-4.1377,-4.0763,-3.8522,-3.5194,-3.481,-3.3497,-3.1601,-3.1525,-3.1288,-3.1172,-3.2571,-3.2907,-3.2597,-3.1968,-3.2459,-3.3276,-3.206,-3.1607,-3.1455,-3.1033,-3.0902,-3.0765,-3.0286,-3.028,-3.0559,-3.1065,-3.1343,-3.1567,-3.165,-3.1589,-3.1434,-3.1265,-3.081,-3.0478,-3.0678,-3.0331,-2.9916,-2.9656,-2.9518,-2.9482,-2.9482,-2.9482,-2.9096,-2.8102,-2.7207,-2.6362,-2.5533,-2.5087,-2.4656,-2.4199,-2.4155,-2.3778,-2.2874,-2.2197,-2.1476,-2.0588,-2.1093,-2.084,-1.9538,-1.9539,-1.9629,-1.978,-1.8354,-1.8323,-1.978,-1.8929,-1.8873,-1.9657,-2.0071,-2.0079,-1.9089,-2.0985,-2.3467,-2.6639,-2.7077,-2.8263,0.0,-3.3364,-3.2467,-3.5215,-3.5653,-3.5692,-3.6211,-3.7031,-3.7812,-3.834,-3.8789,-3.9082,-3.9121,-3.8809,-3.8471,-3.8177,-3.8328,-3.8281,-3.7891,-3.7851,-3.7695,-3.7324,-3.7305,-3.7461,-3.7832,-3.7851,-3.8646,-4.0507,-3.986,-4.0192,-4.1806,-4.1248,-4.1622,-4.279,-4.1414,-4.103,-4.1318,-3.8353,-3.6385,-3.5113,-3.3337,-3.235,-3.2172,-3.3021,-3.2624,-3.1525,-3.2674,-3.2322,-3.1207,-3.2008,-3.2213,-3.1792,-2.991,-2.9059,-2.8741,-2.8701,-2.8681,-2.8602,-2.8165,-2.8778,-2.9463,-2.8794,-2.9379,-3.0141,-2.9783,-2.9353,-2.9278,-3.028,-3.009,-3.0001,-3.1082,-3.0884,-3.0229,-2.9205,-2.8618,-2.8307,-2.8307,-2.8307,-2.8091,-2.7478,-2.7287,-2.6651,-2.5088,-2.485,-2.4757,-2.4703,-2.47,-2.465,-2.4525,-2.366,-2.2718,-2.1758,-2.1417,-2.1074,-2.0811,-2.1028,-2.1508,-2.2281,-2.1378,-2.1345,-2.2281,-2.0955,-2.0469,-2.0794,-2.0106,-1.9975,-2.3231,-2.4838,-2.6472,-2.8842,-3.0351,-3.195,-3.4763,-3.4813,-3.4987,-3.7344,-3.8047,-3.8398,-3.8828,-3.9414,-3.9707,-3.9394,-3.9687,-3.9707,-3.8945,-3.8691,-3.8223,-3.7305,-3.7578,-3.7851,-3.791,-3.793,-3.7949,-3.8027,-3.8047,-3.8125,-3.8301,-3.9341,-4.0103,-4.0675,-4.1568,-4.1629,-4.0904,-4.1395,-4.1365,-4.0755,-4.052,-3.9936,-3.8997,-3.759,-3.608,-3.4483,-3.3378,-3.2754,-3.2542,-3.2475,-3.2077,-3.1524,-3.1716,-3.1441,-3.0956,-3.1074,-3.0858,-3.0359,-2.9282,-2.8652,-2.8301,-2.8301,-2.8301,-2.8262,-2.8086,-2.8377,-2.8793,-2.8956,-2.9296,-2.9954,-3.1041,-3.1136,-3.1224,-3.2215,-3.2013,-3.1479,-3.0925,-3.0396,-2.9605,-2.8129,-2.7649,-2.7461,-2.7203,-2.7157,-2.6885,-2.5965,-2.7215,-2.7638,-2.6002,-2.6058,-2.6005,-2.5319,-2.5008,-2.48,-2.48,-2.3878,-2.2934,-2.2029,-2.1722,-2.1352,-2.0765,-2.1397,-2.1902,-2.2294,-2.2026,-2.2294,-2.318,-2.2582,-2.2598,-2.3199,-2.2515,-2.2169,-2.564,-2.7307,-2.8875,-3.1178,-3.3566,-3.5404,-3.5937,-3.6615,-3.7578,-3.9043,-3.9707,-4.0156,-4.0469,-4.0684,-4.0664,-4.0156,-4.0234,-4.0019,-3.9082,-3.8633,-3.793,-3.6641,-3.6543,-3.6758,-3.7187,-3.7656,-3.8047,-3.8379,-3.8613,-3.875,-3.875,-4.0,-4.082,-4.1053,-4.2098,-4.2136,-4.0993,-4.164,-4.1243,-3.9918,-3.9952,-3.9107,-3.7444,-3.6871,-3.5642,-3.4062,-3.375,-3.3301,-3.2734,-3.1992,-3.1621,-3.1484,-3.1055,-3.0898,-3.0859,-3.0508,-3.0117,-2.9687,-2.9258,-2.8906,-2.8633,-2.8496,-2.8457,-2.8437,-2.832,-2.8301,-2.8396,-2.8859,-2.8993,-2.9328,-3.0767,-3.1401,-3.1831,-3.2363,-3.2674,-3.2362,-3.0629,-3.004,-2.9281,-2.7411,-2.6932,-2.669,-2.625,-2.6225,-2.6014,-2.5358,-2.6955,-2.7642,-2.6039,-2.6428,-2.647,-2.554,-2.5319,-2.5203,-2.5028,-2.4014,-2.2972,-2.2064,-2.158,-2.1119,-2.0603,-2.166,-2.2352,-2.2594,-2.2936,-2.3469,-2.4096,-2.3394,-2.339,-2.4009,-2.3108,-2.2671,-2.4456,-2.6788,-2.958,-3.3808,-3.6336,-3.8189,-3.9961,-4.0703,-4.1035,-4.1094,-4.0781,-4.0508,-4.0527,-4.0195,-4.0059,-4.0449,-4.0176,-3.9902,-3.9863,-3.875,-3.7461,-3.6191,-3.5293,-3.4961,-3.543,-3.6953,-3.793,-3.7949,-3.8711,-3.918,-3.918,-3.9254,-4.0098,-4.1925,-4.1045,-4.1465,-4.3219,-4.2259,-4.1767,-4.1702,-3.9646,-3.8411,-3.7798,-3.5716,-3.4538,-3.4082,-3.4062,-3.3574,-3.2754,-3.2324,-3.1894,-3.1484,-3.1055,-3.0898,-3.0898,-3.0879,-3.0586,-3.0117,-2.9687,-2.9607,-2.9473,-2.9043,-2.8906,-2.8828,-2.8418,-2.8301,-2.8203,-2.7845,-2.7761,-2.7663,-2.7263,-2.8116,-2.9091,-2.8971,-3.0566,-3.1756,-3.0324,-3.019,-2.9695,-2.7372,-2.6487,-2.5981,-2.552,-2.5436,-2.5658,-2.6343,-2.6502,-2.5953,-2.4302,-2.4986,-2.549,-2.5076,-2.5871,-2.6208,-2.5622,-2.4301,-2.3055,-2.205,-2.0702,-2.0132,-2.0588,-2.2059,-2.328,-2.4139,-2.5025,-2.5494,-2.5528,-2.3198,-2.2081,-2.2047,-2.0283,-1.9909,-2.7315,-3.05,-3.387,-3.7371,-3.9378,-4.0801,-4.1953,-4.1894,-4.1504,-4.123,-3.9771,-3.8511,-3.8365,-3.765,-3.7423,-3.856,-3.916,-3.9551,-3.9844,-3.9512,-3.8437,-3.6269,-3.6269,-3.5918,-3.4648,-3.5566,-3.6719,-3.7832,-3.8457,-3.8789,-3.8789,-4.025,-4.1193,-4.1506,-4.2435,-4.2609,-4.2006,-4.1083,-4.007,-3.8794,-3.7254,-3.6423,-3.6216,-3.5481,-3.4922,-3.4492,-3.4492,-3.4004,-3.3184,-3.2754,-3.2344,-3.1914,-3.1484,-3.1133,-3.0898,-3.0898,-3.0801,-3.0586,-3.0137,-2.9805,-2.9551,-2.9394,-2.916,-2.8887,-2.875,-2.8516,-2.8262,-2.8125,-2.8086,-2.8259,-2.9001,-2.9507,-2.9986,-3.0497,-3.1184,-3.1273,-2.9586,-2.9072,-2.8391,-2.6486,-2.5752,-2.5311,-2.4806,-2.4531,-2.4588,-2.5295,-2.5378,-2.529,-2.5101,-2.4774,-2.4618,-2.4861,-2.5171,-2.5278,-2.5097,-2.404,-2.3214,-2.2862,-2.2172,-2.1824,-2.2,-2.3478,-2.4413,-2.4719,-2.5719,-2.6197,-2.6197,-2.536,-2.4643,-2.3956,-2.2979,-2.2185,-3.0747,-3.4022,-3.7129,-4.0314,-4.1641,-4.2363,-4.2754,-4.2187,-4.1328,-4.043,-3.8549,-3.6952,-3.6649,-3.5442,-3.5036,-3.6903,-3.7441,-3.8027,-3.9258,-3.9023,-3.8242,-3.6855,-3.6777,-3.6406,-3.5332,-3.5605,-3.6367,-3.7598,-3.8535,-3.9043,-3.9043,-4.0438,-4.1097,-4.0811,-4.1657,-4.1559,-4.0371,-3.9654,-3.8667,-3.7285,-3.6465,-3.5996,-3.5859,-3.5859,-3.543,-3.4707,-3.4707,-3.4121,-3.3184,-3.291,-3.2559,-3.2129,-3.168,-3.1348,-3.1094,-3.0937,-3.0898,-3.0859,-3.0547,-3.0273,-3.0019,-2.9844,-2.9609,-2.9355,-2.9199,-2.8965,-2.875,-2.875,-2.8633,-2.8711,-2.9599,-3.0036,-3.0296,-3.0338,-3.093,-3.0932,-2.8856,-2.8392,-2.7937,-2.6281,-2.5742,-2.5352,-2.4746,-2.418,-2.394,-2.4367,-2.4313,-2.4408,-2.502,-2.4813,-2.4497,-2.4281,-2.4943,-2.515,-2.4578,-2.3788,-2.3244,-2.3023,-2.2995,-2.2982,-2.2982,-2.4671,-2.5468,-2.5278,-2.6262,-2.67,-2.6499,-2.5791,-2.5099,-2.4433,-2.3392,-2.241,-3.4334,-3.727,-3.9395,-4.2459,-4.3144,-4.3008,-4.2539,-4.1699,-4.0547,-3.8828,-3.7151,-3.5772,-3.5246,-3.3572,-3.3121,-3.5558,-3.5351,-3.5762,-3.834,-3.7656,-3.7168,-3.791,-3.6934,-3.6504,-3.7266,-3.7012,-3.6973,-3.7363,-3.8926,-3.9863,-3.9902,-3.9922,-3.9922,-3.9902,-3.9082,-3.8633,-3.8613,-3.8144,-3.7734,-3.7324,-3.7285,-3.7051,-3.668,-3.6621,-3.5918,-3.4726,-3.4707,-3.4004,-3.2851,-3.2851,-3.2598,-3.2168,-3.1738,-3.1562,-3.1504,-3.1113,-3.0937,-3.0918,-3.0918,-3.0918,-3.082,-3.0371,-3.0215,-3.0117,-2.9726,-2.9646,-2.9626,-2.9626,-2.9277,-2.8945,-2.8945,-2.9561,-2.99,-2.8621,-2.9859,-3.0665,-2.8249,-2.8279,-2.8313,-2.6774,-2.6426,-2.6113,-2.5262,-2.4394,-2.3848,-2.3789,-2.3437,-2.3378,-2.4054,-2.4916,-2.4923,-2.3447,-2.5111,-2.5688,-2.4095,-2.3555,-2.3084,-2.2562,-2.3207,-2.3604,-2.3604,-2.5562,-2.645,-2.5947,-2.6865,-2.7102,-2.6575,-2.4611,-2.3629,-2.3519,-2.1627,-2.0703,-3.711,-4.0368,-4.3079,-4.3906,-4.4062,-4.3769,-4.2676,-4.0781,-3.8755,-3.7139,-3.423,-3.1913,-3.144,-3.1188,-3.1956,-3.4718,-3.6269,-3.7891,-4.0195,-4.0234,-3.9746,-3.8965,-3.8887,-3.8613,-3.7832,-3.8242,-3.8613,-3.8711,-3.9121,-3.9531,-3.9883,-4.0195,-4.0215,-3.9902,-3.9668,-3.9394,-3.9043,-3.8301,-3.7871,-3.7754,-3.7129,-3.6777,-3.6641,-3.6016,-3.5527,-3.5195,-3.4844,-3.4336,-3.375,-3.375,-3.3301,-3.2617,-3.2519,-3.2285,-3.1992,-3.1875,-3.1641,-3.1367,-3.1367,-3.1152,-3.0879,-3.0762,-3.0488,-3.0176,-3.0078,-2.9824,-2.9626,-2.9626,-2.9492,-2.9394,-2.9394,-2.9337,-2.9164,-2.8804,-2.8953,-2.8931,-2.8284,-2.8055,-2.7855,-2.7467,-2.6816,-2.6113,-2.5262,-2.493,-2.4531,-2.3887,-2.3691,-2.3546,-2.3398,-2.3596,-2.3599,-2.3179,-2.3628,-2.3796,-2.3381,-2.3196,-2.311,-2.2969,-2.4261,-2.504,-2.504,-2.679,-2.7631,-2.7507,-2.7787,-2.7821,-2.7695,-2.6343,-2.537,-2.4585,-2.3263,-2.2029,-3.9164,-4.0892,-4.2061,-4.2678,-4.2669,-4.208,-4.0453,-3.8883,-3.6984,-3.3992,-3.1499,-2.9749,-2.926,-2.9203,-3.0308,-3.3527,-3.5112,-3.6973,-3.9902,-4.0156,-4.0117,-4.0312,-4.0234,-4.0019,-3.9668,-3.9726,-3.9863,-4.0059,-3.9883,-3.9902,-4.0156,-4.0391,-4.041,-4.0176,-4.0,-3.9766,-3.9512,-3.8828,-3.8496,-3.8476,-3.7617,-3.7129,-3.6914,-3.625,-3.5742,-3.5371,-3.5117,-3.4648,-3.4082,-3.4082,-3.3672,-3.3047,-3.2871,-3.2656,-3.2422,-3.2307,-3.2012,-3.1777,-3.1582,-3.1367,-3.1133,-3.0957,-3.0703,-3.0508,-3.0508,-3.0332,-3.0156,-3.0156,-3.0,-2.9844,-2.9844,-2.9531,-2.9199,-2.9199,-2.9023,-2.8809,-2.8613,-2.8379,-2.8105,-2.7787,-2.6973,-2.623,-2.5742,-2.538,-2.4949,-2.4414,-2.4023,-2.3691,-2.3457,-2.368,-2.3627,-2.3125,-2.3541,-2.3627,-2.3144,-2.3101,-2.3101,-2.3101,-2.4933,-2.6017,-2.6017,-2.7845,-2.8725,-2.8473,-2.8473,-2.8348,-2.8097,-2.705,-2.6235,-2.5678,-2.463,-2.3435,-4.0313,-4.007,-3.9241,-4.0524,-4.0431,-3.9413,-3.7349,-3.6521,-3.4921,-3.025,-2.8836,-2.8314,-2.7823,-2.7652,-2.8804,-3.2426,-3.3417,-3.5031,-3.8926,-3.916,-3.9629,-4.1562,-4.1152,-4.0976,-4.1738,-4.1074,-4.0762,-4.1152,-4.082,-4.0605,-4.0605,-4.0605,-4.0605,-4.0605,-4.0195,-4.0,-4.0059,-3.9492,-3.9238,-3.9277,-3.8359,-3.7695,-3.7285,-3.6797,-3.6172,-3.5469,-3.541,-3.4961,-3.4238,-3.418,-3.3906,-3.3457,-3.3047,-3.2871,-3.2832,-3.248,-3.2305,-3.2187,-3.1758,-3.1562,-3.1445,-3.1035,-3.0898,-3.0898,-3.0898,-3.0898,-3.0898,-3.0898,-3.0605,-3.0293,-3.0293,-2.998,-2.9648,-2.9648,-2.9665,-2.9473,-2.9082,-2.8965,-2.8672,-2.7885,-2.707,-2.6543,-2.6484,-2.5781,-2.5262,-2.5204,-2.4473,-2.3945,-2.3887,-2.4277,-2.4211,-2.3232,-2.3973,-2.4168,-2.3169,-2.3101,-2.3101,-2.3101,-2.5231,-2.6442,-2.6276,-2.8554,-2.9476,-2.8799,-2.895,-2.8762,-2.8323,-2.7281,-2.6804,-2.6766,-2.583,-2.4807,-3.9183,-3.9647,-3.9991,-4.1338,-4.0439,-3.8752,-3.655,-3.4229,-3.149,-2.7964,-2.6391,-2.5715,-2.5869,-2.7138,-2.9255,-3.2715,-3.4335,-3.6518,-4.0332,-4.0762,-4.0996,-4.1719,-4.166,-4.1641,-4.1797,-4.1348,-4.1094,-4.1172,-4.1094,-4.1055,-4.1055,-4.1055,-4.1055,-4.1055,-4.0644,-4.0586,-4.0957,-3.9785,-3.9394,-3.9766,-3.8516,-3.7695,-3.7266,-3.6484,-3.6055,-3.5898,-3.5547,-3.5312,-3.5137,-3.4746,-3.4336,-3.3926,-3.3476,-3.332,-3.3301,-3.3242,-3.2988,-3.2617,-3.2207,-3.1816,-3.1445,-3.1035,-3.0898,-3.0898,-3.0898,-3.0898,-3.0898,-3.0898,-3.084,-3.0762,-3.0762,-3.043,-3.0098,-3.0098,-2.9824,-2.9607,-2.9473,-2.918,-2.8672,-2.7885,-2.7591,-2.7324,-2.6973,-2.6484,-2.6035,-2.5664,-2.5176,-2.4707,-2.4355,-2.3791,-2.3299,-2.3144,-2.3256,-2.3299,-2.3144,-2.3101,-2.3101,-2.3101,-2.5231,-2.6088,-2.5126,-2.8108,-2.9316,-2.8242,-2.9178,-2.9603,-2.9503,-2.8358,-2.7862,-2.7822,-2.6742,-2.595,-3.9554,-4.0066,-4.051,-4.1072,-3.9885,-3.7737,-3.432,-3.2078,-2.9508,-2.5179,-2.4403,-2.4466,-2.4587,-2.6295,-2.8615,-3.1465,-3.2694,-3.4765,-3.9238,-3.9434,-3.9902,-4.1894,-4.2129,-4.2207,-4.2441,-4.1875,-4.1504,-4.1504,-4.1308,-4.1172,-4.1172,-4.1172,-4.1172,-4.1172,-4.0976,-4.0957,-4.1172,-4.0098,-3.9668,-3.9883,-3.8555,-3.7812,-3.7598,-3.6973,-3.6562,-3.6348,-3.6152,-3.5801,-3.5371,-3.5156,-3.4805,-3.4375,-3.416,-3.4082,-3.4082,-3.4082,-3.3828,-3.3359,-3.2715,-3.2207,-3.1758,-3.1094,-3.0898,-3.0898,-3.0898,-3.0898,-3.0898,-3.0898,-3.0898,-3.0898,-3.0898,-3.0723,-3.0547,-3.0547,-3.0215,-2.9902,-2.9902,-2.9375,-2.8809,-2.8398,-2.7969,-2.765,-2.7383,-2.6992,-2.6562,-2.6133,-2.5703,-2.5254,-2.4805,-2.4199,-2.373,-2.3496,-2.3237,-2.3101,-2.3101,-2.3101,-2.3101,-2.3101,-2.4681,-2.5378,-2.483,-2.6912,-2.7827,-2.7279,-2.8371,-2.8949,-2.8949,-2.8988,-2.8988,-2.8988,-2.845,-2.7509,-3.9324,-4.0162,-4.0872,-4.0895,-3.9134,-3.633,-3.2199,-2.9974,-2.7472,-2.2756,-2.2774,-2.3646,-2.3748,-2.5388,-2.7528,-2.9922,-3.0732,-3.2686,-3.765,-3.7936,-3.8887,-4.2051,-4.25,-4.2695,-4.3047,-4.2305,-4.1797,-4.1797,-4.1406,-4.1172,-4.1172,-4.1172,-4.1172,-4.1172,-4.1172,-4.1172,-4.1172,-4.0332,-3.9902,-3.9883,-3.8652,-3.8008,-3.791,-3.7578,-3.7148,-3.668,-3.668,-3.623,-3.5527,-3.543,-3.5176,-3.4844,-3.4746,-3.4707,-3.4687,-3.459,-3.4355,-3.3945,-3.3086,-3.2578,-3.2168,-3.1309,-3.0957,-3.0898,-3.0898,-3.0898,-3.0898,-3.0898,-3.0898,-3.0898,-3.0898,-3.0898,-3.0898,-3.0898,-3.0605,-3.0312,-3.0215,-2.9668,-2.9141,-2.8945,-2.8379,-2.791,-2.7812,-2.7441,-2.7051,-2.6719,-2.6289,-2.5859,-2.5458,-2.4961,-2.4531,-2.4102,-2.3594,-2.3237,-2.3237,-2.314,-2.3101,-2.3101,-2.4168,-2.4702,-2.4467,-2.5755,-2.64,-2.613,-2.7197,-2.7763,-2.7763,-2.8673,-2.9091,-2.9091,-2.9091,-2.8171,-3.6731,-3.9099,-4.1213,-4.1621,-3.8385,-3.4423,-3.1506,-2.7877,-2.435,-2.1503,-2.1812,-2.2788,-2.3291,-2.4579,-2.6347,-2.8783,-2.9995,-3.2276,-3.6977,-3.8448,-3.9883,-4.2148,-4.2773,-4.3027,-4.3066,-4.2305,-4.1797,-4.1797,-4.1406,-4.1172,-4.1172,-4.1172,-4.1172,-4.1172,-4.1172,-4.1172,-4.1172,-4.0332,-3.9902,-3.9883,-3.8965,-3.8301,-3.793,-3.7891,-3.7422,-3.668,-3.668,-3.6406,-3.5937,-3.5547,-3.5371,-3.5293,-3.4863,-3.4707,-3.4648,-3.4277,-3.4101,-3.3945,-3.3086,-3.2773,-3.2598,-3.1738,-3.1211,-3.0898,-3.0898,-3.0898,-3.0898,-3.0898,-3.0898,-3.0898,-3.0898,-3.0898,-3.0898,-3.0898,-3.0859,-3.0703,-3.0293,-3.0137,-2.9844,-2.9062,-2.8848,-2.8691,-2.8301,-2.7891,-2.7598,-2.7611,-2.7168,-2.6738,-2.6328,-2.5879,-2.5449,-2.5047,-2.4219,-2.373,-2.373,-2.3379,-2.3101,-2.3101,-2.4168,-2.4339,-2.3299,-2.5358,-2.6005,-2.4957,-2.6047,-2.6648,-2.6648,-2.6771,-2.6812,-2.6812,-2.6812,-2.6689,-3.7616,-4.0591,-4.265,-4.0108,-3.6472,-3.2718,-2.9463,-2.6017,-2.2863,-2.0818,-2.1119,-2.1928,-2.2485,-2.3891,-2.5552,-2.7448,-2.7693,-2.9202,-3.3688,-3.4335,-3.5947,-4.0391,-4.1269,-4.2148,-4.3711,-4.2851,-4.1973,-4.1465,-4.1269,-4.1172,-4.1172,-4.1172,-4.1172,-4.1172,-4.1172,-4.1172,-4.1172,-4.0586,-4.0156,-3.9883,-3.9258,-3.873,-3.832,-3.832,-3.7851,-3.7051,-3.7051,-3.6797,-3.6387,-3.5957,-3.5918,-3.6113,-3.5664,-3.5488,-3.5449,-3.5019,-3.4687,-3.4336,-3.3457,-3.3008,-3.2695,-3.2109,-3.1797,-3.1562,-3.1055,-3.0898,-3.0898,-3.0898,-3.0898,-3.0898,-3.0898,-3.0898,-3.0898,-3.0898,-3.0898,-3.084,-3.0644,-3.0391,-3.0098,-2.9746,-2.9277,-2.8867,-2.8691,-2.832,-2.7949,-2.7767,-2.7519,-2.7246,-2.6816,-2.6387,-2.6055,-2.5879,-2.4844,-2.4062,-2.3809,-2.3633,-2.3418,-2.312,-2.3517,-2.3541,-2.3144,-2.3973,-2.4211,-2.38,-2.4893,-2.5462,-2.5462,-2.6193,-2.6524,-2.6524,-2.6524,-2.613,-3.641,-3.9813,-4.1912,-3.8368,-3.46,-3.093,-2.7973,-2.4476,-2.1537,-2.0327,-2.0755,-2.1471,-2.1979,-2.3375,-2.4855,-2.6172,-2.6285,-2.7538,-3.1364,-3.1947,-3.3772,-3.8574,-3.9684,-4.0936,-4.3223,-4.2832,-4.2129,-4.1406,-4.125,-4.1172,-4.1172,-4.1172,-4.1172,-4.1172,-4.1172,-4.1172,-4.1172,-4.0742,-4.0371,-4.0078,-3.9492,-3.9043,-3.875,-3.8633,-3.8184,-3.748,-3.748,-3.7246,-3.6836,-3.6523,-3.6504,-3.6641,-3.6328,-3.6055,-3.5781,-3.5351,-3.498,-3.457,-3.3711,-3.332,-3.3086,-3.2539,-3.2363,-3.2226,-3.1484,-3.1172,-3.1074,-3.1074,-3.0996,-3.0898,-3.0898,-3.0898,-3.0898,-3.0898,-3.0898,-3.0898,-3.0898,-3.0625,-3.0351,-3.0234,-2.9707,-2.9219,-2.8965,-2.8672,-2.834,-2.791,-2.7851,-2.7695,-2.7266,-2.6953,-2.6719,-2.6582,-2.5625,-2.4766,-2.4219,-2.3945,-2.3652,-2.3315,-2.3159,-2.3101,-2.3101,-2.3101,-2.3101,-2.3101,-2.3887,-2.4296,-2.4296,-2.5083,-2.5484,-2.5484,-2.5484,-2.5062,-3.1864,-3.5435,-3.8288,-3.6925,-3.3027,-2.8972,-2.7272,-2.3409,-2.0141,-2.0119,-2.0755,-2.1471,-2.1979,-2.3116,-2.4197,-2.4992,-2.645,-2.8327,-3.0797,-3.2844,-3.4863,-3.707,-3.8354,-3.9648,-4.1113,-4.1953,-4.2246,-4.1816,-4.1406,-4.1172,-4.1172,-4.1172,-4.1172,-4.1172,-4.1172,-4.1172,-4.1172,-4.0742,-4.0527,-4.0508,-3.9629,-3.9199,-3.918,-3.8769,-3.834,-3.791,-3.791,-3.7676,-3.7285,-3.7285,-3.7031,-3.668,-3.666,-3.6152,-3.5351,-3.4883,-3.4707,-3.457,-3.3711,-3.3691,-3.3926,-3.3066,-3.2793,-3.2715,-3.2285,-3.1855,-3.1504,-3.1504,-3.1211,-3.0898,-3.0898,-3.0898,-3.0898,-3.0898,-3.0898,-3.0898,-3.0898,-3.0879,-3.0742,-3.0293,-3.0195,-2.9902,-2.9062,-2.8906,-2.8769,-2.834,-2.8281,-2.8125,-2.7767,-2.7708,-2.748,-2.7051,-2.6621,-2.6016,-2.5184,-2.4277,-2.3789,-2.3789,-2.3379,-2.3101,-2.3101,-2.3101,-2.3101,-2.3101,-2.3101,-2.3144,-2.3144,-2.3144,-2.3144,-2.3144,-2.3144,-2.3144,-2.8397,-3.0857,-3.2159,-2.9532,-2.6899,-2.4645,-2.3681,-2.146,-1.9626,-1.9769,-2.0189,-2.0704,-2.142,-2.2519,-2.3876,-2.5525,-2.6542,-2.7952,-3.0161,-3.1908,-3.4238,-3.7773,-4.1093,-4.305,-4.291,-4.2891,-4.2695,-4.2266,-4.1836,-4.1601,-4.1601,-4.1328,-4.1172,-4.1172,-4.1172,-4.1172,-4.1172,-4.1035,-4.082,-4.0508,-3.9941,-3.9512,-3.918,-3.8769,-3.834,-3.793,-3.793,-3.7851,-3.7695,-3.7422,-3.7226,-3.707,-3.6777,-3.6328,-3.5762,-3.5332,-3.5176,-3.5078,-3.4492,-3.4394,-3.4453,-3.418,-3.3906,-3.3633,-3.3516,-3.2559,-3.1445,-3.1172,-3.0996,-3.0898,-3.0898,-3.0898,-3.0898,-3.0898,-3.0898,-3.0898,-3.0898,-3.0898,-3.084,-3.0703,-3.041,-3.0117,-2.9844,-2.9551,-2.9316,-2.918,-2.8906,-2.8672,-2.8535,-2.8027,-2.7669,-2.748,-2.707,-2.6465,-2.5605,-2.5,-2.4414,-2.3828,-2.3652,-2.3457,-2.3101,-2.3101,-2.3101,-2.3101,-2.3101,-2.3101,-2.3101,-2.3101,-2.3101,-2.3101,-2.3101,-2.3101,-2.4052,-2.5932,-2.6846,-2.519,-2.3558,-2.2173,-2.1814,-2.0463,-1.9376,-1.9635,-1.9931,-2.0344,-2.1165,-2.2163,-2.3426,-2.5154,-2.6162,-2.7467,-2.9503,-3.1573,-3.4386,-3.8524,-4.1837,-4.3594,-4.319,-4.3128,-4.2969,-4.2695,-4.2129,-4.1797,-4.1797,-4.1406,-4.1172,-4.1172,-4.1172,-4.1172,-4.1172,-4.1172,-4.0957,-4.0527,-4.0098,-3.9648,-3.918,-3.8769,-3.8418,-3.8164,-3.8164,-3.8164,0.0,-3.7715,-3.7441,-3.7266,-3.6836,-3.6309,-3.5742,-3.5488,-3.5391,-3.5332,-3.4863,-3.4824,-3.4922,-3.4766,-3.4414,-3.4023,-3.3691,-3.2851,-3.1914,-3.1484,-3.125,-3.1133,-3.1133,-3.1016,-3.0898,-3.0898,-3.0898,-3.0898,-3.0898,-3.0898,-3.0898,-3.0898,-3.0664,-3.041,-3.0234,-2.998,-2.9746,-2.959,-2.9336,-2.9101,-2.8945,-2.8457,-2.8066,-2.791,-2.7519,-2.6973,-2.622,-2.5664,-2.5019,-2.4316,-2.4121,-2.3828,-2.3354,-2.3335,-2.3257,-2.3101,-2.3101,-2.3101,-2.3101,-2.3101,-2.3101,-2.3101,-2.3101,-2.3101,0.0,-2.11,-2.2314,-2.3436,-2.2476,-2.1307,-2.1438,-2.034,0.0,-1.9724,-1.9983,-2.0411,-2.1229,-2.208,-2.301,-2.4251,-2.5669,-2.7222,-2.9028,-3.205,-3.552,-3.9411,-4.1228,-4.219,-4.2368,-4.2837,-4.3144,-4.3086,-4.2305,-4.1836,-4.1797,-4.1406,-4.1172,-4.1172,-4.1172,-4.1172,-4.1172,-4.1152,-4.0937,-4.0566,-4.0078,-3.9629,-3.9238,-3.8789,-3.8574,-3.8574,-3.8574,-3.8574,-3.8535,-3.8105,-3.7676,-3.7266,-3.6836,-3.6172,-3.5449,-3.5469,-3.5469,-3.5391,-3.498,-3.5098,-3.5351,-3.4863,-3.4414,-3.3906,-3.3086,-3.2812,-3.2715,-3.2285,-3.1875,-3.1562,-3.1523,-3.123,-3.0937,-3.0898,-3.0898,-3.0898,-3.0898,-3.0898,-3.0898,-3.0898,-3.0898,-3.0762,-3.0312,-3.0254,-3.0117,-2.9726,-2.9629,-2.9473,-2.9062,-2.8945,-2.8769,-2.8379,-2.7969,-2.7539,-2.709,-2.622,-2.5586,-2.5145,-2.4687,-2.4277,-2.3848,-2.3828,-2.3652,-2.3198,-2.3159,-2.314,-2.314,-2.312,-2.3101,-2.3101,-2.3101,-2.3101,-1.6747,0.0,-1.9532,-2.0619,-2.061,-2.0376,0.0,-2.0324,-2.0034,-2.0514,-2.0668,-2.1084,-2.231,-2.3151,-2.4189,-2.5919,-2.751,-2.9085,-3.0704,-3.5237,-3.9242,-4.1504,-4.3578,-4.4322,-4.3072,-4.3656,-4.3808,-4.3125,-4.2578,-4.2148,-4.1816,-4.1406,-4.1172,-4.1172,-4.1172,-4.1172,-4.1172,-4.084,-4.0781,-4.1016,-3.9902,-3.9492,-3.9707,-3.8926,-3.8574,-3.8574,-3.8574,-3.8574,-3.8535,-3.8105,-3.7676,-3.7266,-3.6836,-3.6348,-3.5918,-3.625,-3.6152,-3.5898,-3.6133,-3.6055,-3.5742,-3.4961,-3.4414,-3.3965,-3.3437,-3.3047,-3.2715,-3.2285,-3.209,-3.1934,-3.1601,-3.1445,-3.1289,-3.0957,-3.0898,-3.0898,-3.0898,-3.0898,-3.0898,-3.0898,-3.0898,-3.0859,-3.0742,-3.0723,-3.0703,-3.0605,-3.0273,-3.0019,-2.9902,-2.9316,-2.8887,-2.8789,-2.8398,-2.7969,-2.7539,-2.6738,-2.5898,-2.5165,-2.5028,-2.4727,-2.4277,-2.4277,-2.4219,-2.4121,-2.3809,-2.3633,-2.3633,-2.3257,-2.3101,-2.3101,-2.3101,-2.3101,-1.5891,-1.7008,-1.8097,-1.9653,-2.0047,-2.0144,-2.059,-2.0395,-2.0241,-2.0617,-2.0822,-2.1238,-2.2399,-2.3393,-2.4629,-2.6553,-2.8052,-3.0006,-3.2969,-3.6661,-3.993,-4.2411,-4.3657,-4.4188,-4.4004,-4.4043,-4.3808,-4.3125,-4.2676,-4.2246,-4.1816,-4.1406,-4.1172,-4.1172,-4.1172,-4.1172,-4.1172,-4.0742,-4.0547,-4.0566,-3.9648,-3.9238,-3.9277,-3.8789,-3.8574,-3.8574,-3.8574,-3.8574,-3.8535,-3.7891,-3.75,-3.7226,-3.6621,-3.6348,-3.6328,-3.6348,-3.6348,-3.6328,-3.6367,-3.6094,-3.5586,-3.4707,-3.4258,-3.3984,-3.3555,-3.3262,-3.3027,-3.2812,-3.2598,-3.2363,-3.1934,-3.166,-3.1406,-3.0996,-3.0898,-3.0898,-3.0898,-3.0898,-3.0898,-3.0898,-3.0898,-3.0898,-3.0898,-3.0898,-3.0898,-3.0898,-3.0684,-3.043,-3.0234,-2.9785,-2.9355,-2.8965,-2.8711,-2.834,-2.7767,-2.7297,-2.668,-2.5996,-2.5781,-2.5469,-2.5039,-2.4824,-2.4629,-2.4414,-2.4199,-2.4082,-2.4082,-2.3848,-2.3686,-2.3686,-2.3686,-2.3686,-1.5915,-1.6764,-1.7755,-1.975,-2.0243,-2.0358,-2.0896,-2.0699,-2.0473,-2.0695,-2.1032,-2.1586,-2.2675,-2.3843,-2.5307,-2.7064,-2.8594,-3.1142,-3.5775,-3.7705,-3.972,-4.2785,-4.3099,-4.3394,-4.4564,-4.416,-4.3574,-4.3027,-4.2637,-4.2207,-4.1738,-4.1367,-4.1172,-4.1172,-4.1172,-4.1172,-4.1172,-4.0742,-4.0351,-3.998,-3.9453,-3.9004,-3.8672,-3.8613,-3.8574,-3.8574,-3.8574,-3.8535,-3.8418,-3.7617,-3.7305,-3.7226,-3.6426,-3.6387,-3.6719,-3.6348,-3.6406,-3.6601,-3.6172,-3.5742,-3.5273,-3.4512,-3.4219,-3.4082,-3.3652,-3.3516,-3.3496,-3.3437,-3.3164,-3.2793,-3.2383,-3.1992,-3.1601,-3.1191,-3.1035,-3.0996,-3.0996,-3.0937,-3.0898,-3.0898,-3.0898,-3.0898,-3.0898,-3.0898,-3.0898,-3.0898,-3.0898,-3.0742,-3.0351,-3.0234,-2.9922,-2.9199,-2.9004,-2.8633,-2.791,-2.7845,-2.7598,-2.7226,-2.6758,-2.6289,-2.581,-2.5469,-2.5059,-2.4629,-2.4551,-2.4512,-2.4512,-2.4453,-2.4414,-2.4414,-2.4414,-2.4414,-1.6395,-1.7725,-1.883,-1.9756,-2.0552,-2.1202,-2.1505,-2.1612,-2.1683,-2.1944,-2.254,-2.3473,-2.5048,-2.6724,-2.8171,-2.9346,-3.1658,-3.5018,-3.9712,-4.088,-4.1835,-4.3433,-4.4544,-4.47,-4.3496,-4.3926,-4.3808,-4.2617,-4.2461,-4.209,-4.1308,-4.1211,-4.1172,-4.1172,-4.1172,-4.1172,-4.1172,-4.0742,-4.0488,-4.041,-3.959,-3.916,-3.9101,-3.873,-3.8574,-3.8574,-3.8574,-3.8359,-3.7988,-3.75,-3.7305,-3.7246,-3.6758,-3.6836,-3.7187,-3.7129,-3.6914,-3.6601,-3.6172,-3.5742,-3.5371,-3.5234,-3.4922,-3.4531,-3.4101,-3.3965,-3.3887,-3.3535,-3.3379,-3.3223,-3.2812,-3.2656,-3.25,-3.207,-3.1699,-3.1426,-3.1426,-3.1133,-3.0898,-3.0898,-3.0898,-3.0898,-3.0898,-3.0898,-3.0898,-3.0898,-3.0898,-3.0859,-3.0801,-3.0449,-3.0137,-3.0019,-2.9355,-2.8867,-2.873,-2.8398,-2.8164,-2.8105,-2.7363,-2.6719,-2.6309,-2.6211,-2.5977,-2.5499,-2.5156,-2.4961,-2.4961,-2.459,-2.4414,-2.4414,-2.4414,-2.4414,-1.6091,-1.7718,-1.9295,-2.0054,-2.0915,-2.1566,-2.1394,-2.1372,-2.1634,-2.2291,-2.2966,-2.4102,-2.6119,-2.8147,-3.0469,-3.3478,-3.5858,-3.8088,-4.0511,-4.1209,-4.2043,-4.3555,-4.3865,-4.3987,-4.4141,-4.3867,-4.334,-4.25,-4.2207,-4.1816,-4.1211,-4.1172,-4.1172,-4.1172,-4.1172,-4.1172,-4.1172,-4.0742,-4.041,-4.0176,-3.9512,-3.9082,-3.8848,-3.8652,-3.8574,-3.8574,-3.8574,-3.8457,-3.8242,-3.7812,-3.7637,-3.7598,-3.7168,-3.7266,-3.7617,-3.7383,-3.6875,-3.625,-3.584,-3.5547,-3.5351,-3.5098,-3.4883,-3.4609,-3.4199,-3.4082,-3.3984,-3.3535,-3.3418,-3.332,-3.291,-3.2793,-3.2695,-3.2266,-3.2012,-3.1816,-3.1562,-3.1543,-3.1445,-3.0976,-3.1074,-3.1152,-3.0937,-3.0898,-3.0898,-3.0898,-3.0898,-3.0898,-3.0898,-3.0703,-3.0469,-3.0234,-2.9844,-2.9512,-2.9297,-2.8887,-2.8437,-2.7988,-2.7578,-2.7168,-2.6738,-2.6504,-2.6289,-2.6094,-2.5664,-2.543,-2.543,-2.5234,-2.5089,-2.5089,-2.5089,-2.5089,-1.5964,-1.7732,-1.957,-2.0183,-2.119,-2.1979,-2.183,-2.1787,-2.2038,-2.3018,-2.3714,-2.4795,-2.6782,-2.8933,-3.1935,-3.6868,-3.849,-3.9721,-4.1399,-4.1766,-4.2601,-4.4207,-4.3665,-4.3613,-4.4837,-4.3848,-4.2891,-4.2461,-4.2031,-4.1621,-4.1191,-4.1172,-4.1172,-4.1172,-4.1172,-4.1172,-4.1172,-4.0742,-4.0312,-3.9883,-3.9414,-3.8984,-3.8574,-3.8574,-3.8574,-3.8574,-3.8574,-3.8516,-3.8398,-3.8066,-3.793,-3.7891,-3.7461,-3.7441,-3.7598,-3.7266,-3.668,-3.5976,-3.5644,-3.5547,-3.5488,-3.5117,-3.5,-3.4922,-3.4512,-3.4375,-3.4297,-3.3848,-3.373,-3.3594,-3.3066,-3.2949,-3.2871,-3.2539,-3.2383,-3.2226,-3.1894,-3.1992,-3.1973,-3.1309,-3.1445,-3.1562,-3.125,-3.1191,-3.1152,-3.1055,-3.1035,-3.0996,-3.0898,-3.0898,-3.0762,-3.0391,-3.0254,-3.0019,-2.9609,-2.9258,-2.875,-2.8008,-2.7871,-2.7617,-2.7187,-2.6855,-2.6602,-2.6387,-2.6152,-2.5947,-2.5849,-2.5849,-2.5849,-2.583,-2.5732,-2.5693,-1.6723,-1.8429,-1.978,-1.985,-2.1141,-2.271,-2.3936,-2.4124,-2.4202,-2.5107,-2.5682,-2.6351,-2.7538,-2.9248,-3.2308,-3.7802,-3.769,-3.878,-4.3916,-4.435,-4.4603,-4.5909,-4.5324,-4.4837,-4.5019,-4.3848,-4.2891,-4.2461,-4.2031,-4.1621,-4.1191,-4.1172,-4.1172,-4.1172,-4.1172,-4.1172,-4.1172,-4.0742,-4.0312,-3.9883,-3.9414,-3.8984,-3.8574,-3.8574,-3.8574,-3.8574,-3.8574,-3.834,-3.7969,-3.793,-3.793,-3.7891,-3.7461,-3.707,-3.6758,-3.6719,-3.6426,-3.6016,-3.5996,-3.5976,-3.5976,-3.5937,-3.5918,-3.584,-3.543,-3.5293,-3.5195,-3.4746,-3.4609,-3.4414,-3.3594,-3.3379,-3.3379,-3.334,-3.3027,-3.2734,-3.2715,-3.2422,-3.2148,-3.215,-3.215,-3.2109,-3.209,-3.2131,-3.1934,-3.1523,-3.1465,-3.1328,-3.0937,-3.0898,-3.0879,-3.084,-3.0449,-3.0019,-2.9609,-2.9607,-2.9316,-2.8848,-2.8457,-2.8066,-2.7689,-2.765,-2.7258,-2.6406,-2.6738,-2.6719,-2.6348,-2.6348,-2.6348,-2.6328,-2.5869,-2.5693,-1.6392,-1.8208,-1.9899,-2.0285,-2.2198,-2.3946,-2.3557,-2.3923,-2.4721,-2.6349,-2.6998,-2.8103,-3.0531,-3.1539,-3.3822,-3.9417,-3.9858,-4.0924,-4.5183,-4.5449,-4.5371,-4.5859,-4.5156,-4.4512,-4.4238,-4.3281,-4.25,-4.207,-4.1641,-4.1348,-4.1172,-4.1172,-4.1172,-4.1172,-4.0918,-4.0762,-4.0762,-4.0059,-3.9629,-3.9453,-3.9277,-3.8984,-3.8574,-3.8574,-3.8574,-3.8574,-3.8574,-3.8476,-3.832,-3.832,-3.832,-3.832,-3.8164,-3.7676,-3.709,-3.7344,-3.7012,-3.6426,-3.6426,-3.6426,-3.6387,-3.6113,-3.6016,-3.5937,-3.5527,-3.5391,-3.5293,-3.4824,-3.4707,-3.457,-3.3984,-3.3828,-3.375,-3.3496,-3.3301,-3.3105,-3.2851,-3.2871,-3.2793,-3.2266,-3.2383,-3.248,-3.2207,-3.2229,-3.2012,-3.1582,-3.1523,-3.1367,-3.0937,-3.0898,-3.0898,-3.0898,-3.0742,-3.0449,-3.0,-2.9961,-2.9785,-2.9355,-2.8926,-2.8496,-2.8066,-2.7865,-2.7571,-2.7187,-2.707,-2.6934,-2.6777,-2.6777,-2.6777,-2.6777,-2.6602,-2.6523,-1.6393,-1.8087,-1.9832,-2.0552,-2.2683,-2.4605,-2.4261,-2.4953,-2.6101,-2.776,-2.8139,-2.8986,-3.1321,-3.2186,-3.4149,-3.9223,-4.0406,-4.1952,-4.5444,-4.541,-4.5098,-4.5254,-4.4512,-4.3848,-4.3535,-4.2734,-4.2109,-4.1816,-4.1406,-4.1172,-4.1172,-4.1172,-4.1113,-4.0976,-4.0684,-4.0469,-4.0332,-3.957,-3.9199,-3.9199,-3.9062,-3.8848,-3.8574,-3.8574,-3.8574,-3.8574,-3.8574,-3.8496,-3.8359,-3.8359,-3.8301,-3.8184,-3.8184,-3.7812,-3.7324,-3.7617,-3.7363,-3.6855,-3.6719,-3.668,-3.6601,-3.6152,-3.6016,-3.5976,-3.5684,-3.5586,-3.5527,-3.5215,-3.5117,-3.5019,-3.459,-3.4375,-3.416,-3.373,-3.3633,-3.3516,-3.3086,-3.3223,-3.3242,-3.2676,-3.2793,-3.291,-3.2617,-3.2559,-3.2422,-3.1992,-3.1816,-3.1562,-3.1133,-3.0976,-3.0898,-3.0898,-3.0898,-3.0762,-3.0449,-3.041,-3.0234,-2.9805,-2.9492,-2.9062,-2.8516,-2.8086,-2.7865,-2.7728,-2.75,-2.7363,-2.7226,-2.7226,-2.7226,-2.7226,-2.709,-2.7012,-1.6892,-1.8279,-1.9604,-2.0534,-2.2335,-2.4477,-2.6411,-2.7721,-2.8691,-2.9352,-2.9149,-2.9047,-2.9349,-3.058,-3.2759,-3.6708,-3.873,-4.1018,-4.4485,-4.4174,-4.3867,-4.4336,-4.3613,-4.3066,-4.3066,-4.2305,-4.1797,-4.1797,-4.1406,-4.1172,-4.1172,-4.1172,-4.0976,-4.0451,-4.0431,-4.0312,-3.9902,-3.9434,-3.9199,-3.9199,-3.8769,-3.8574,-3.8574,-3.8574,-3.8574,-3.8574,-3.8574,-3.832,-3.793,-3.791,-3.7676,-3.7305,-3.7305,-3.7305,-3.7305,-3.7305,-3.7305,-3.7226,-3.6816,-3.668,-3.6601,-3.6103,-3.5967,-3.6035,-3.6035,-3.6035,-3.6035,-3.6016,-3.6016,-3.5918,-3.5508,-3.5059,-3.4609,-3.418,-3.4082,-3.3965,-3.3535,-3.3437,-3.3437,-3.3437,-3.3437,-3.3437,-3.3437,-3.3437,-3.3281,-3.2851,-3.2441,-3.2012,-3.1582,-3.1152,-3.0898,-3.0898,-3.0898,-3.0898,-3.0898,-3.0898,-3.0703,-3.0234,-3.0195,-2.9805,-2.8965,-2.8516,-2.8105,-2.7748,-2.8086,-2.8105,-2.7728,-2.7728,-2.7728,-2.7708,-2.7226,-2.7031,-1.7682,-1.8891,-2.0301,-2.1659,-2.3789,-2.5838,-2.7234,-2.782,-2.8441,-3.0093,-3.0254,-3.0249,-3.0321,-2.9803,-3.064,-3.4327,-3.6409,-3.8116,-3.9686,-4.0771,-4.1416,-4.1166,-3.9306,-3.914,-4.1948,-4.0523,-3.9363,-3.9067,-3.8938,-3.8231,-3.6682,-3.642,-3.6877,-3.8195,-3.7718,-3.8066,-3.9414,-3.8984,-3.8769,-3.875,-3.8633,-3.8574,-3.8555,-3.8262,-3.8281,-3.8535,-3.793,-3.7773,-3.791,-3.7598,-3.7578,-3.7734,-3.7734,-3.7559,-3.7222,-3.6377,-3.5536,-3.4673,-3.3374,-3.3697,-3.4682,-3.4482,-3.5389,-3.6484,-3.6484,-3.6484,-3.6406,-3.6113,-3.6016,-3.5996,-3.5859,-3.5742,-3.5449,-3.4687,-3.4512,-3.4473,-3.4336,-3.4316,-3.4316,-3.4316,-3.4316,-3.4219,-3.3926,-3.3887,-3.3633,-3.291,-3.2695,-3.2461,-3.2031,-3.1875,-3.168,-3.1367,-3.1328,-3.1211,-3.0918,-3.0898,-3.084,-3.0703,-3.0371,-2.9941,-2.9394,-2.9258,-2.9196,-2.9059,-2.9121,-2.8984,-2.8555,-2.8555,-2.8398,-2.8105,-2.8281,-2.8359,-1.8591,-1.9856,-2.1347,-2.2804,-2.4828,-2.6843,-2.8273,-2.8933,-2.9576,-3.1062,-3.0785,-3.0356,-3.0356,-3.0076,-3.0494,-3.2815,-3.4915,-3.6474,-3.6906,-3.786,-3.8285,-3.804,-3.6503,-3.6362,-3.8773,-3.7757,-3.6927,-3.662,-3.6602,-3.6052,-3.4614,-3.4302,-3.4609,-3.5591,-3.5215,-3.5887,-3.7705,-3.7459,-3.7345,-3.7345,-3.7248,-3.6807,-3.6036,-3.7287,-3.7615,-3.7134,-3.5494,-3.5343,-3.628,-3.5863,-3.6381,-3.7422,-3.7422,-3.6939,-3.61,-3.5394,-3.4159,-3.2837,-3.2474,-3.3,-3.387,-3.4496,-3.5585,-3.668,-3.668,-3.668,-3.6621,-3.6348,-3.6152,-3.6016,-3.6016,-3.6016,-3.584,-3.5137,-3.498,-3.4922,-3.4746,-3.4707,-3.4707,-3.4707,-3.4707,-3.4609,-3.4355,-3.418,-3.3906,-3.3379,-3.3008,-3.2637,-3.2226,-3.2229,-3.207,-3.1797,-3.1777,-3.1601,-3.1172,-3.1133,-3.1074,-3.0898,-3.0625,-3.0351,-3.0098,-2.9766,-2.9626,-2.9626,-2.9626,-2.9434,-2.918,-2.918,-2.9043,-2.8809,-2.9062,-2.918,-1.9537,-2.0999,-2.2489,-2.4103,-2.5855,-2.7758,-2.9588,-3.0635,-3.137,-3.1877,-3.0969,-3.0047,-2.994,-3.0694,-3.145,-3.1673,-3.3877,-3.5491,-3.5257,-3.5146,-3.5015,-3.4966,-3.4441,-3.4246,-3.4651,-3.4473,-3.4359,-3.4359,-3.4326,-3.4081,-3.3595,-3.3546,-3.3316,-3.2818,-3.2769,-3.3585,-3.5199,-3.5163,-3.5145,-3.5145,-3.4899,-3.3765,-3.2044,-3.5667,-3.6281,-3.4503,-3.2079,-3.1916,-3.3445,-3.3087,-3.4191,-3.6155,-3.6155,-3.5365,-3.4145,-3.4036,-3.2771,-3.143,-3.2822,-3.3251,-3.3498,-3.5092,-3.5904,-3.6213,-3.6213,-3.6213,-3.6282,-3.6383,-3.6073,-3.5811,-3.6006,-3.6055,-3.5937,-3.5586,-3.5488,-3.5332,-3.4902,-3.4824,-3.4824,-3.4824,-3.4824,-3.4805,-3.4766,-3.4414,-3.4101,-3.4023,-3.3359,-3.2715,-3.2344,-3.2285,-3.2326,-3.2226,-3.2226,-3.2051,-3.1621,-3.1543,-3.1348,-3.0976,-3.0918,-3.0898,-3.0898,-3.0117,-2.9744,-2.9744,-2.9744,-2.9724,-2.9629,-2.9629,-2.9665,-2.9626,-2.9665,-2.9629,-2.0435,-2.1439,-2.2781,-2.5886,-2.8322,-3.007,-3.0488,-3.0929,-3.1196,-3.1089,-3.1196,-3.1009,-3.0087,-2.9954,-2.9827,-2.9415,-3.1285,-3.2242,-3.0439,-3.1608,-3.26,-3.2272,-3.0719,-3.091,-3.4327,-3.2949,-3.1833,-3.1833,-3.1572,-3.06,-2.8871,-2.8551,-2.9058,-3.0556,-3.0297,-3.1117,-3.3095,-3.2885,-3.2733,-3.2733,-3.251,-3.212,-3.1679,-3.2253,-3.209,-3.1317,-3.1076,-3.1048,-3.1064,-3.098,-3.1449,-3.2236,-3.2236,-3.2056,-3.1582,-3.0361,-2.9241,-2.8489,-2.9392,-2.9336,-2.9249,-3.1743,-3.2543,-3.2522,-3.2522,-3.2522,-3.276,-3.3908,-3.4037,-3.4232,-3.6081,-3.6269,-3.6094,-3.6328,-3.6133,-3.5859,-3.5762,-3.5742,-3.5742,-3.5742,-3.5742,-3.5625,-3.5293,-3.4863,-3.4336,-3.3652,-3.3398,-3.3262,-3.3164,-3.3144,-3.3027,-3.2695,-3.2656,-3.248,-3.207,-3.1719,-3.1484,-3.1387,-3.1074,-3.0898,-3.0898,-3.0703,-3.0605,-3.0605,-3.0605,-3.043,-3.0059,-3.0059,-2.9902,-2.9626,-2.9902,-3.0059,-2.0862,-2.2214,-2.3931,-2.7284,-2.944,-3.0795,-3.0795,-3.0902,-3.0902,-3.0461,-3.0621,-3.0555,-2.9659,-2.9259,-2.8911,-2.8457,-2.9452,-2.9776,-2.8547,-2.9452,-3.0111,-2.9871,-2.888,-2.9063,-3.1101,-3.0214,-2.9414,-2.9257,-2.9101,-2.8392,-2.7135,-2.6907,-2.7227,-2.816,-2.794,-2.8762,-3.0801,-3.053,-3.0371,-3.0356,-3.0082,-2.933,-2.8293,-2.9216,-2.9375,-2.8916,-2.8236,-2.8351,-2.8972,-2.8972,-2.964,-3.0662,-3.0662,-3.0105,-2.9199,-2.838,-2.7789,-2.755,-2.7967,-2.8431,-2.9107,-3.0484,-3.1075,-3.1241,-3.1333,-3.1383,-3.1603,-3.248,-3.316,-3.3765,-3.3982,-3.4541,-3.4789,-3.4064,-3.4246,-3.4659,-3.4659,-3.4659,-3.4659,-3.4659,-3.5382,-3.5957,-3.5723,-3.5137,-3.4473,-3.3828,-3.3555,-3.3418,-3.3418,-3.2702,-3.2079,-3.1872,-3.1853,-3.1684,-3.127,-3.1757,-3.2051,-3.1836,-3.1621,-3.1406,-3.1191,-3.0443,-3.0289,-3.0898,-3.0898,-3.0762,-3.0527,-3.0527,-3.041,-3.0215,-3.043,-3.0527,-2.0784,-2.2984,-2.5425,-2.8328,-2.9847,-3.0648,-3.0702,-3.0635,-3.0394,-2.9806,-2.9766,-2.9659,-2.9072,-2.8764,-2.8497,-2.8274,-2.8221,-2.8221,-2.8221,-2.8221,-2.8221,-2.8221,-2.8181,-2.7963,-2.7722,-2.7602,-2.7442,-2.7201,-2.7148,-2.7014,-2.676,-2.6694,-2.656,-2.6319,-2.6026,-2.6702,-2.8347,-2.8115,-2.8028,-2.8028,-2.7689,-2.6453,-2.4649,-2.6629,-2.732,-2.6925,-2.5286,-2.5492,-2.6997,-2.6997,-2.7909,-2.9313,-2.9313,-2.8341,-2.6997,-2.6997,-2.6997,-2.7085,-2.7492,-2.8388,-2.9401,-2.9822,-2.9961,-3.005,-3.0329,-3.0351,-3.0505,-3.1098,-3.2164,-3.2864,-3.1596,-3.2275,-3.2896,-3.1298,-3.1619,-3.2474,-3.3049,-3.317,-3.3309,-3.3586,-3.4659,-3.5431,-3.4994,-3.4605,-3.4189,-3.3765,-3.3675,-3.3613,-3.3535,-3.2067,-3.0933,-3.0789,-3.0567,-3.0395,-3.032,-3.1527,-3.2328,-3.2305,-3.2268,-3.2012,-3.1641,-3.006,-2.9651,-3.0623,-3.0527,-3.0489,-3.0566,-3.0801,-3.0898,-3.0898,-3.0898,-3.0898,-1.9914,-2.334,-2.6841,-2.8604,-2.9539,-3.01,-3.0354,-3.002,-2.9486,-2.8898,-2.9192,-2.9366,-2.8778,-2.8631,-2.8497,-2.8274,-2.8221,-2.8221,-2.8221,-2.8221,-2.8221,-2.8221,-2.7909,-2.7749,-2.7696,-2.7241,-2.6921,-2.6881,-2.664,-2.6493,-2.6453,-2.6213,-2.6052,-2.6012,-2.5732,-2.5725,-2.5941,-2.5731,-2.5582,-2.5568,-2.5195,-2.4884,-2.4636,-2.4884,-2.5032,-2.4991,-2.471,-2.4784,-2.4991,-2.4991,-2.5139,-2.5345,-2.5345,-2.5212,-2.4991,-2.4991,-2.4991,-2.5239,-2.7306,-2.6865,-2.5681,-2.7746,-2.729,-2.5929,-2.6233,-2.633,-2.6689,-2.8652,-2.8957,-2.9198,-3.1193,-3.1439,-3.1226,-3.1307,-2.9959,-2.9423,-3.2526,-3.317,-3.3674,-3.5314,-3.4521,-3.2923,-3.089,-3.1786,-3.2629,-3.2247,-3.3548,-3.4394,-3.4043,-3.2693,-3.1499,-3.0843,-2.9636,-2.9406,-3.0606,-3.0583,-3.1139,-3.2653,-3.2363,-3.2148,-3.209,-3.0408,-2.9491,-2.9701,-2.907,-2.8906,-2.9192,-3.0329,-3.0898,-3.0898,-3.0898,-3.0898,-2.0686,-2.3487,-2.6026,-2.7843,-2.8738,-2.9259,-2.9553,-2.9419,-2.9112,-2.8698,-2.8671,-2.8657,-2.839,-2.835,-2.831,-2.8248,-2.8221,-2.8167,-2.7923,-2.7896,-2.7829,-2.7669,-2.7535,-2.7388,-2.7228,-2.6827,-2.6587,-2.6587,-2.6159,-2.5972,-2.6132,-2.5865,-2.5705,-2.5705,-2.5424,-2.5277,-2.5277,-2.4983,-2.4836,-2.4823,-2.4703,-2.4636,-2.4636,-2.4636,-2.4636,-2.4636,-2.4636,-2.4636,-2.4636,-2.4636,-2.4636,-2.4636,-2.4636,-2.4636,-2.4636,-2.4636,-2.5286,-2.6239,-2.6147,-2.6178,-2.6239,-2.6161,-2.5662,-2.513,-2.5424,-2.5625,-2.6044,-2.7184,-2.7994,-2.8566,-2.8736,-2.9184,-2.9369,-2.8581,-2.7453,-2.7211,-2.9713,-3.0118,-3.0539,-3.2455,-3.2158,-3.1265,-3.0182,-3.0542,-3.084,-3.0669,-3.1143,-3.1421,-3.1261,-2.9817,-2.8712,-2.8386,-2.7752,-2.7976,-2.9423,-2.9433,-2.9977,-3.1574,-3.0565,-3.032,-3.104,-2.8472,-2.7435,-2.8345,-2.7815,-2.8122,-2.9223,-2.9573,-3.0436,-3.1601,-3.1113,-3.1016,-2.084,-2.2696,-2.4223,-2.6507,-2.7482,-2.8083,-2.8671,-2.8751,-2.8657,-2.8524,-2.831,-2.8221,-2.8221,-2.8221,-2.8207,-2.8127,-2.803,-2.7923,-2.7629,-2.7589,-2.7509,-2.7295,-2.7134,-2.6947,-2.6734,-2.6453,-2.6279,-2.6279,-2.5879,-2.5718,-2.6023,-2.5598,-2.5411,-2.5411,-2.5117,-2.497,-2.497,-2.4743,-2.4636,-2.4636,-2.4636,-2.4636,-2.4636,-2.4636,-2.4636,-2.4636,-2.4636,-2.4636,-2.4636,-2.4636,-2.4636,-2.4636,-2.4636,-2.4636,-2.4636,-2.4636,-2.5492,-2.6575,-2.5065,-2.5566,-2.6502,-2.5065,-2.4783,-2.5037,-2.5398,-2.5665,-2.5919,-2.6293,-2.7318,-2.7985,-2.67,-2.715,-2.7625,-2.628,-2.5785,-2.6039,-2.757,-2.8079,-2.8485,-2.9401,-2.9608,-2.9497,-2.8972,-2.9043,-2.9254,-2.9174,-2.9265,-2.9261,-2.9179,-2.7734,-2.6613,-2.6434,-2.6088,-2.6419,-2.7924,-2.8028,-2.8708,-3.0228,-2.9091,-2.8807,-2.9731,-2.6917,-2.583,-2.6985,-2.6275,-2.6665,-2.8346,-2.8358,-2.9267,-3.087,-3.0629,-3.0694,-1.935,-2.0574,-2.195,-2.4549,-2.5665,-2.6546,-2.7953,-2.7976,-2.7843,-2.8194,-2.8234,-2.8221,-2.8221,-2.8221,-2.814,-2.7762,-2.7722,-2.7615,-2.7335,-2.7281,-2.7281,-2.7268,-2.6774,-2.6426,-2.6413,-2.6146,-2.605,-2.605,-2.6023,-2.5945,-2.6037,-2.5411,-2.5104,-2.5104,-2.481,-2.4663,-2.4663,-2.4649,-2.4636,-2.4636,-2.4636,-2.4636,-2.4636,-2.4636,-2.4636,-2.4636,-2.4636,-2.4636,-2.4636,-2.4636,-2.4636,-2.4636,-2.4636,-2.4636,-2.4636,-2.4636,-2.4636,-2.471,-2.4636,-2.4636,-2.471,-2.4636,-2.4649,-2.477,-2.5331,-2.5518,-2.5651,-2.6226,-2.6251,-2.6168,-2.6398,-2.6238,-2.6087,-2.6037,-2.6023,-2.6298,-2.7614,-2.908,-2.9686,-2.7996,-2.7818,-2.735,-2.5253,-2.6586,-2.7907,-2.7665,-2.9067,-3.0057,-2.9728,-2.838,-2.7206,-2.6494,-2.5114,-2.4897,-2.6364,-2.6544,-2.7277,-2.8966,-2.9034,-2.8886,-2.8659,-2.6904,-2.5816,-2.5621,-2.395,-2.3809,-2.5141,-2.6408,-2.7074,-2.7217,-2.8799,-2.9607,-1.859,-1.9711,-2.0979,-2.2872,-2.4103,-2.5064,-2.5972,-2.6667,-2.7161,-2.7268,-2.7589,-2.7856,-2.7856,-2.8016,-2.8127,-2.7749,-2.7696,-2.7535,-2.7054,-2.6827,-2.6707,-2.6707,-2.6186,-2.5972,-2.6346,-2.5959,-2.5745,-2.5945,-2.5611,-2.5398,-2.5398,-2.501,-2.4796,-2.4796,-2.469,-2.4636,-2.4636,-2.4636,-2.4543,-2.4369,-2.4543,-2.4543,-2.4369,-2.4556,-2.4636,-2.4636,-2.4636,-2.4636,-2.4636,-2.4636,-2.4636,-2.4636,-2.4636,-2.4636,-2.4636,-2.4636,-2.4636,-2.4636,-2.4636,-2.4636,-2.4636,-2.4636,-2.489,-2.5237,-2.5451,-2.5772,-2.6119,-2.6333,-2.6186,-2.6026,-2.6319,-2.6172,-2.5999,-2.6186,-2.6092,-2.6125,-2.6586,-2.6634,-2.6473,-2.6038,-2.6029,-2.5902,-2.5259,-2.5718,-2.6057,-2.5959,-2.6339,-2.659,-2.6475,-2.5994,-2.5556,-2.526,-2.4774,-2.5056,-2.655,-2.5627,-2.5683,-2.727,-2.6309,-2.611,-2.7139,-2.5519,-2.5057,-2.6076,-2.4122,-2.3886,-2.5271,-2.5535,-2.6322,-2.7702,-2.7815,-2.7967,-1.766,-1.8537,-1.9649,-2.1371,-2.2532,-2.3466,-2.469,-2.5611,-2.6319,-2.6613,-2.7068,-2.7402,-2.7402,-2.7562,-2.7642,-2.7442,-2.7321,-2.7121,-2.6734,-2.6426,-2.6239,-2.6239,-2.5812,-2.5665,-2.6052,-2.5651,-2.5491,-2.5785,-2.5358,-2.5077,-2.5077,-2.4796,-2.4636,-2.4636,-2.4636,-2.4636,-2.4636,-2.4636,-2.4543,-2.4356,-2.4543,-2.4529,-2.4356,-2.4556,-2.4636,-2.4636,-2.4636,-2.4636,-2.4636,-2.4636,-2.4636,-2.4636,-2.4636,-2.4636,-2.4636,-2.4636,-2.4636,-2.4636,-2.4636,-2.4636,-2.4636,-2.4636,-2.497,-2.5384,-2.5478,-2.5852,-2.6266,-2.636,-2.6253,-2.6146,-2.6333,-2.6239,-2.6146,-2.6346,-2.6172,-2.6037,-2.6037,-2.5411,-2.4983,-2.5184,-2.5304,-2.5398,-2.5491,-2.5438,-2.5344,-2.5237,-2.497,-2.4783,-2.4783,-2.4703,-2.4636,-2.4636,-2.4636,-2.4983,-2.5969,-2.497,-2.4757,-2.5727,-2.4682,-2.4569,-2.5626,-2.4531,-2.4419,-2.5538,-2.4188,-2.3982,-2.4919,-2.4487,-2.4974,-2.6439,-2.6448,-2.6874,0.0,0.0,0.0,-2.0022,-2.0862,-2.166,-2.3931,-2.4783,-2.5251,-2.6146,-2.656,-2.676,-2.6787,-2.68,-2.6787,-2.6787,-2.656,-2.6373,-2.6373,-2.6119,-2.601,-2.6037,-2.5678,-2.5491,-2.5518,-2.5251,-2.5197,-2.5478,-2.5237,-2.5077,-2.5064,-2.4796,-2.4636,-2.4636,-2.4636,-2.4636,-2.4636,-2.4636,-2.4636,-2.4623,-2.4636,-2.4636,-2.4623,-2.4636,-2.4636,-2.4636,-2.4636,-2.4636,-2.4636,-2.4636,-2.4636,-2.4636,-2.4636,-2.4636,-2.4649,-2.4562,-2.4649,-2.4649,-2.4562,-2.4636,-2.4636,-2.4636,-2.4836,-2.5144,-2.5424,-2.5732,-2.6104,-2.6306,-2.6386,-2.6386,-2.6386,-2.6386,-2.6386,-2.6386,-2.6172,-2.605,-2.605,-2.5745,-2.5531,-2.5531,-2.5758,-2.5865,-2.5585,-2.5772,-2.5852,-2.5571,-2.5277,-2.509,-2.5077,-2.4823,-2.4649,-2.4636,-2.4636,-2.4636,-2.4636,-2.4636,-2.4636,-2.4636,-2.4636,-2.4516,-2.4222,-2.4222,-2.4088,-2.3808,-2.3794,-2.3781,-2.3781,-2.3249,-2.2954,-2.2941,-2.4655,-2.6373,-1.6733,0.0,0.0,0.0,0.0,0.0,-2.1516,-2.2442,-2.3474,-2.4583,-2.5037,-2.5438,-2.6079,-2.6199,-2.6119,-2.5905,-2.5985,-2.6079,-2.6079,-2.5638,-2.5478,-2.5983,-2.5317,-2.505,-2.5478,-2.5251,-2.5117,-2.5197,-2.513,-2.4983,-2.477,-2.4676,-2.4636,-2.4636,-2.4636,-2.4636,-2.4636,-2.4636,-2.4529,-2.4329,-2.4529,-2.4529,-2.4329,-2.4543,-2.4636,-2.4636,-2.4636,-2.4636,-2.4636,-2.4636,-2.4636,-2.4636,-2.4636,-2.477,-2.493,-2.4716,-2.477,-2.493,-2.4716,-2.4636,-2.4636,-2.4636,-2.4983,-2.5411,-2.5491,-2.5865,-2.6279,-2.6373,-2.6386,-2.6386,-2.6386,-2.6386,-2.6386,-2.6386,-2.6333,-2.6266,-2.6266,-2.6199,-2.6079,-2.5879,-2.5905,-2.5999,-2.6119,-2.6039,-2.601,-2.5852,-2.5585,-2.5317,-2.5104,-2.501,-2.4877,-2.4663,-2.4636,-2.4636,-2.4636,-2.4636,-2.4636,-2.4636,-2.4636,-2.4596,-2.4516,-2.4516,-2.4476,-2.4396,-2.4195,-2.4088,-2.4088,-2.3701,-2.3407,-2.3193,-2.3502,-2.3856,0.0,0.0,0.0,-1.7975,0.0,0.0,-2.0097,-2.0832,-2.162,-2.2565,-2.306,-2.3581,-2.4342,-2.4583,-2.4649,-2.4609,-2.485,-2.5211,-2.5705,-2.5478,-2.5344,-2.5571,-2.513,-2.4957,-2.5304,-2.5064,-2.4943,-2.5064,-2.497,-2.4823,-2.4649,-2.4636,-2.4636,-2.4636,-2.4636,-2.4636,-2.4636,-2.4636,-2.4556,-2.4382,-2.4556,-2.4543,-2.4396,-2.4556,-2.4636,-2.4636,-2.4636,-2.4636,-2.4636,-2.4636,-2.4636,-2.4636,-2.4636,-2.4743,-2.489,-2.4836,-2.493,-2.5077,-2.5024,-2.4997,-2.4997,-2.4997,-2.5317,-2.5692,-2.5692,-2.6026,-2.6386,-2.6386,-2.6386,-2.6386,-2.6386,-2.6386,-2.6386,-2.6386,-2.6386,-2.6386,-2.6386,-2.6386,-2.6333,-2.6172,-2.6132,-2.6186,-2.636,-2.6253,-2.6132,-2.6132,-2.5892,-2.5638,-2.5464,-2.5237,-2.501,-2.4836,-2.4716,-2.4636,-2.4636,-2.4636,-2.4636,-2.4636,-2.4636,-2.4636,-2.4636,-2.4636,-2.4636,-2.4636,-2.4476,-2.4382,-2.4382,-2.3968,-2.3621,-2.3327,-2.314,-2.2993,0.0,0.0,0.0,0.0,-1.7946,0.0,-1.9318,-1.9603,-1.9828,-2.0478,-2.0979,-2.1485,-2.2071,-2.2471,-2.2724,-2.2895,-2.3363,-2.4115,-2.5251,-2.5438,-2.5371,-2.5117,-2.5077,-2.5064,-2.5037,-2.4796,-2.4743,-2.501,-2.4783,-2.4636,-2.4636,-2.4636,-2.4636,-2.4636,-2.4636,-2.4636,-2.4636,-2.4636,-2.4636,-2.4636,-2.4636,-2.4636,-2.4636,-2.4636,-2.4636,-2.4636,-2.4636,-2.4636,-2.4636,-2.4636,-2.4636,-2.4636,-2.4636,-2.4676,-2.4756,-2.4997,-2.5117,-2.5211,-2.5438,-2.5518,-2.5518,-2.5518,-2.5718,-2.6037,-2.6037,-2.6159,-2.6386,-2.6386,-2.6386,-2.6386,-2.6386,-2.6386,-2.6386,-2.6386,-2.6386,-2.6386,-2.6386,-2.6386,-2.6386,-2.6386,-2.6386,-2.6386,-2.6386,-2.6386,-2.6386,-2.6386,-2.6172,-2.5999,-2.6037,-2.5504,-2.517,-2.513,-2.4863,-2.4703,-2.473,-2.4676,-2.4649,-2.469,-2.4649,-2.4636,-2.4636,-2.4636,-2.4636,-2.4636,-2.4636,-2.4636,-2.4636,-2.4088,-2.3688,-2.342,-2.3394,-2.3233,0.0,0.0,0.0,0.0,-1.808,0.0,-1.8361,-1.8521,-1.8915,-1.9769,-1.9653,-1.9791,-2.0812,-2.111,-2.1097,-2.0929,-2.2036,-2.3443,-2.4602,-2.501,-2.5144,-2.509,-2.5077,-2.4983,-2.4743,-2.4676,-2.4663,-2.4716,-2.4676,-2.4636,-2.4636,-2.4636,-2.4636,-2.4636,-2.4636,-2.4636,-2.4636,-2.4636,-2.4636,-2.4636,-2.4636,-2.4636,-2.4636,-2.4636,-2.4636,-2.4636,-2.4636,-2.4636,-2.4636,-2.4636,-2.4636,-2.4636,-2.4636,-2.493,-2.5317,-2.5144,-2.5384,-2.5758,-2.5571,-2.5518,-2.5518,-2.5518,-2.5718,-2.6037,-2.6037,-2.6159,-2.6386,-2.6386,-2.6386,-2.6386,-2.6386,-2.6386,-2.6386,-2.6386,-2.6386,-2.6386,-2.6386,-2.6386,-2.6386,-2.6386,-2.6386,-2.6386,-2.6386,-2.6386,-2.6386,-2.6386,-2.6346,-2.6226,-2.6063,-2.5929,-2.5692,-2.5451,-2.517,-2.509,-2.5317,-2.4903,-2.4743,-2.4983,-2.477,-2.4636,-2.4636,-2.4636,-2.4636,-2.4636,-2.4636,-2.4636,-2.4636,-2.4289,-2.4088,-2.4022,-2.3794,-2.3647,0.0,0.0,0.0,-1.7769,-1.7542,0.0,0.0,-1.7086,-1.6847,-1.8008,-1.7812,-1.781,-1.9137,-1.9389,-1.9479,-1.976,-2.076,-2.1764,-2.2497,-2.3766,-2.4583,-2.4449,-2.4422,-2.4422,-2.4422,-2.4422,-2.4476,-2.4623,-2.4636,-2.4636,-2.4636,-2.4502,-2.4489,-2.4636,-2.4489,-2.4489,-2.4636,-2.4636,-2.4636,-2.4636,-2.4636,-2.4636,-2.4636,-2.4636,-2.4636,-2.4636,-2.4636,-2.4636,-2.4636,-2.4636,-2.4636,-2.4636,-2.4636,-2.481,-2.509,-2.5237,-2.5478,-2.5758,-2.5905,-2.5945,-2.5945,-2.5945,-2.6052,-2.6172,-2.6172,-2.6279,-2.6386,-2.6386,-2.6386,-2.6386,-2.6386,-2.6386,-2.6386,-2.6386,-2.6386,-2.6386,-2.6386,-2.6386,-2.6426,-2.6573,-2.6493,-2.6386,-2.6386,-2.6386,-2.6386,-2.6386,-2.6386,-2.6333,-2.6186,-2.6052,-2.5905,-2.5745,-2.5478,-2.5358,-2.5504,-2.5237,-2.5144,-2.5291,-2.5157,-2.5077,-2.5077,-2.5077,-2.5077,-2.5077,-2.493,-2.4863,-2.4863,-2.4569,-2.4342,-2.4195,-2.4062,-2.3915,0.0,0.0,0.0,0.0,0.0,-1.6726,0.0,0.0,0.0,-1.6411,-1.6242,-1.6265,-1.7422,-1.773,-1.7919,-1.8475,-1.9283,-1.9843,-1.9953,-2.1854,-2.332,-2.3443,-2.3567,-2.3714,-2.4008,-2.4053,-2.4214,-2.4596,-2.4476,-2.4549,-2.4716,-2.4449,-2.4396,-2.4549,-2.4409,-2.4396,-2.4636,-2.4636,-2.4663,-2.4716,-2.4663,-2.4663,-2.4716,-2.4663,-2.4636,-2.4636,-2.4636,-2.4636,-2.4636,-2.4636,-2.4636,-2.4649,-2.4703,-2.4716,-2.4796,-2.5384,-2.5598,-2.5678,-2.6213,-2.6386,-2.6386,-2.6386,-2.6386,-2.6386,-2.6386,-2.6386,-2.6386,-2.6386,-2.6386,-2.64,-2.6453,-2.6426,-2.6413,-2.6533,-2.6507,-2.6466,-2.6466,-2.6466,-2.6533,-2.6707,-2.66,-2.6466,-2.6466,-2.6426,-2.6386,-2.6386,-2.6386,-2.6386,-2.6386,-2.6186,-2.6117,-2.6117,-2.5772,-2.5625,-2.5678,-2.5585,-2.5545,-2.5598,-2.5545,-2.5518,-2.5518,-2.5518,-2.5518,-2.5518,-2.5277,-2.513,-2.5077,-2.4836,-2.4569,-2.4289,-2.4289,-2.4155,0.0,0.0,0.0,0.0,-1.9201,-1.8888,-1.8058,0.0,-1.6702,-1.6387,0.0,-1.6048,-1.6417,0.0,0.0,-1.598,-1.7222,-1.811,-1.764,-1.8936,-2.0527,-2.2028,-2.2669,-2.3086,-2.3394,-2.3388,-2.3755,-2.4556,-2.413,-2.4215,-2.497,-2.4743,-2.4609,-2.4636,-2.4609,-2.4609,-2.4636,-2.4636,-2.477,-2.5024,-2.4756,-2.477,-2.5024,-2.4756,-2.4636,-2.4636,-2.4636,-2.4636,-2.4636,-2.4636,-2.4636,-2.4663,-2.493,-2.5024,-2.5104,-2.5692,-2.5905,-2.5959,-2.6279,-2.6386,-2.6386,-2.6386,-2.6386,-2.6386,-2.6386,-2.6386,-2.6386,-2.6386,-2.6386,-2.6453,-2.6707,-2.6587,-2.652,-2.7041,-2.6961,-2.6774,-2.6774,-2.6774,-2.6707,-2.648,-2.6613,-2.6774,-2.6774,-2.656,-2.6386,-2.6386,-2.6386,-2.6386,-2.6386,-2.636,-2.6333,-2.6333,-2.6079,-2.6012,-2.6266,-2.5812,-2.5625,-2.5892,-2.5651,-2.5518,-2.5518,-2.5518,-2.5518,-2.5518,-2.5478,-2.5331,-2.5077,-2.505,-2.4877,-2.4583,-2.4583,-2.4569,0.0,0.0,0.0,0.0,-1.947,-1.8779,-1.8251,-1.6576,-1.5468,-1.6562,0.0,0.0,0.0,0.0,0.0,0.0,-1.6569,-1.6981,-1.6698,-1.7502,-1.8797,-2.0509,-2.0937,-2.1396,-2.2231,-2.262,-2.3023,-2.3554,-2.3399,-2.3561,-2.4275,-2.4195,-2.4289,-2.4623,-2.4476,-2.4462,-2.4636,-2.4636,-2.4703,-2.4823,-2.469,-2.4703,-2.4823,-2.469,-2.4636,-2.4636,-2.4636,-2.4636,-2.4636,-2.4636,-2.4636,-2.469,-2.5144,-2.5224,-2.513,-2.5545,-2.5812,-2.6077,-2.6293,-2.6386,-2.6386,-2.6386,-2.6386,-2.6386,-2.6386,-2.6386,-2.6386,-2.6386,-2.6507,-2.6667,-2.6787,-2.6867,-2.6961,-2.7201,-2.7175,-2.7081,-2.7081,-2.7081,-2.7094,-2.7134,-2.7108,-2.7134,-2.7295,-2.6947,-2.664,-2.664,-2.664,-2.664,-2.664,-2.664,-2.6573,-2.6413,-2.6279,-2.6253,-2.6373,-2.6159,-2.6079,-2.6199,-2.6092,-2.6026,-2.6026,-2.6026,-2.6026,-2.6026,-2.5852,-2.5705,-2.5585,-2.5411,-2.5264,-2.513,-2.4796,-2.4636,-2.2154,-2.2029,-2.183,-2.0584,-1.9464,-1.8581,-1.7913,-1.6113,0.0,-1.6423,-1.5896,0.0,0.0,0.0,0.0,0.0,0.0,-1.5968,-1.6054,-1.6274,-1.708,-1.8972,-1.9606,-2.0262,-2.1243,-2.1681,-2.211,-2.2646,-2.2606,-2.2929,-2.3799,-2.3768,-2.4035,-2.4549,-2.4436,-2.4422,-2.4636,-2.4636,-2.4676,-2.4756,-2.4676,-2.4676,-2.4756,-2.4676,-2.4636,-2.4636,-2.4636,-2.4636,-2.4636,-2.4636,-2.4636,-2.469,-2.5197,-2.5317,-2.5237,-2.5611,-2.5838,-2.6077,-2.6293,-2.6386,-2.6386,-2.6386,-2.6386,-2.6386,-2.6386,-2.644,-2.6493,-2.6413,-2.66,-2.6841,-2.6921,-2.7041,-2.7201,-2.7537,-2.7442,-2.7388,-2.7388,-2.7388,-2.7428,-2.7549,-2.7468,-2.7428,-2.7562,-2.7228,-2.6947,-2.6947,-2.6947,-2.6947,-2.6947,-2.6947,-2.6827,-2.6533,-2.6507,-2.6507,-2.6507,-2.6507,-2.6507,-2.6507,-2.6587,-2.66,-2.6507,-2.6507,-2.6507,-2.6507,-2.6226,-2.6039,-2.6037,-2.5745,-2.5598,-2.5504,-2.4997,-2.4756,-2.3129,-2.3017,-2.2718,-2.0649,-1.9715,-1.881,-1.6874,-1.6636,-1.6592,0.0,0.0,0.0,0.0,0.0,0.0,0.0,0.0,0.0,0.0,-1.4883,-1.521,-1.7401,-1.9135,-2.0361,-2.0668,-2.0761,-2.1086,-2.199,-2.1805,-2.2252,-2.3745,-2.3768,-2.4035,-2.4549,-2.4623,-2.4623,-2.4636,-2.4636,-2.4783,-2.5064,-2.477,-2.4783,-2.5064,-2.477,-2.4636,-2.4636,-2.4636,-2.4636,-2.4636,-2.4636,-2.4636,-2.4663,-2.497,-2.5264,-2.5571,-2.6146,-2.6186,-2.6077,-2.6293,-2.6386,-2.6386,-2.6386,-2.6386,-2.6386,-2.6386,-2.6587,-2.6747,-2.6466,-2.66,-2.6894,-2.7175,-2.7041,-2.7054,-2.7993,-2.7896,-2.7682,-2.7682,-2.7682,-2.7602,-2.7335,-2.7495,-2.7602,-2.7321,-2.7268,-2.7255,-2.7255,-2.7255,-2.7255,-2.7255,-2.7255,-2.7134,-2.6841,-2.6814,-2.6814,-2.6814,-2.6814,-2.6814,-2.6814,-2.7081,-2.7108,-2.6814,-2.6814,-2.6814,-2.6814,-2.652,-2.6239,-2.6037,-2.6023,-2.5798,-2.5504,-2.5211,-2.5064,-2.538,-2.546,-2.5219,-2.3062,-2.2338,-2.1626,-1.9717,-1.8719,-1.8244,0.0,0.0,0.0,0.0,0.0,0.0,0.0,0.0,0.0,0.0,-1.5004,-1.528,-1.6418,-1.7856,-1.8632,-1.8427,-1.8905,-1.9515,-2.0261,-2.0362,-2.0967,-2.2298,-2.3046,-2.3661,-2.4048,-2.4623,-2.4836,-2.4562,-2.4836,-2.4877,-2.4783,-2.469,-2.469,-2.4783,-2.489,-2.493,-2.4943,-2.513,-2.5211,-2.5211,-2.5211,-2.5211,-2.5251,-2.5545,-2.5718,-2.5825,-2.6026,-2.6159,-2.6253,-2.636,-2.6386,-2.6386,-2.6386,-2.652,-2.668,-2.668,-2.6881,-2.7094,-2.7001,-2.7175,-2.7428,-2.7522,-2.7629,-2.7776,-2.8154,-2.8154,-2.7989,-2.7989,-2.7989,-2.7963,-2.7953,-2.8006,-2.7963,-2.7953,-2.7926,-2.7776,-2.7575,-2.7549,-2.7549,-2.7549,-2.7549,-2.7442,-2.7148,-2.7108,-2.7108,-2.7108,-2.7108,-2.7108,-2.7108,-2.7215,-2.7228,-2.7121,-2.7108,-2.7108,-2.7108,-2.7014,-2.6827,-2.6533,-2.6533,-2.6373,-2.6092,-2.5798,-2.5558,-2.6504,-2.6561,-2.6315,-2.4206,-2.3617,-2.3029,-2.084,-2.0121,-1.9816,-1.9453,0.0,0.0,0.0,0.0,0.0,0.0,0.0,0.0,0.0,-1.4996,-1.5283,-1.5369,-1.6613,-1.737,-1.7239,-1.7727,-1.822,-1.8704,-1.9199,-1.996,-2.1029,-2.2298,-2.3287,-2.3901,-2.4676,-2.5037,-2.4943,-2.5037,-2.4983,-2.4796,-2.469,-2.4636,-2.4649,-2.4943,-2.5077,-2.509,-2.5384,-2.5518,-2.5518,-2.5518,-2.5518,-2.5558,-2.5959,-2.6106,-2.6119,-2.6226,-2.6453,-2.6694,-2.6694,-2.6694,-2.6694,-2.6694,-2.6827,-2.6987,-2.6987,-2.7188,-2.7402,-2.7295,-2.7468,-2.7696,-2.7696,-2.7843,-2.8016,-2.8207,-2.8221,-2.8221,-2.8221,-2.8221,-2.8221,-2.8221,-2.8221,-2.8221,-2.8221,-2.8221,-2.8167,-2.7883,-2.7856,-2.7856,-2.7856,-2.7856,-2.7749,-2.7455,-2.7415,-2.7415,-2.7415,-2.7522,-2.7535,-2.7428,-2.7522,-2.7535,-2.7428,-2.7415,-2.7522,-2.7736,-2.7428,-2.7281,-2.7295,-2.7081,-2.6881,-2.6694,-2.64,-2.6159]},{"header":{"parameterUnit":"m.s-1","parameterCategory":1,"la1":30.6,"la2":29.2853,"lo1":-89.7004,"lo2":-87.6739,"dy":0.0162,"dx":0.0183,"nx":112,"ny":82,"refTime":"2023-08-21T18:00:00:Z","depth":0,"parameterNumber":3,"parameterNumberName":"V-component_of_WINDS"},"data":[0.0,0.0,0.0,0.0,0.0,0.0,0.0,0.0,0.0,0.0,0.0,0.0,0.0,0.0,0.0,0.0,0.0,0.0,0.0,0.0,0.0,0.0,0.0,0.0,0.0,0.0,0.0,0.0,0.0,0.0,0.0,0.0,0.0,0.0,0.0,0.0,0.0,0.0,0.0,0.0,0.0,0.0,0.0,0.0,0.0,0.0,0.0,0.0,0.0,0.0,0.0,0.0,0.0,0.0,0.0,0.0,0.0,0.0,0.0,0.0,0.0,0.0,0.0,0.0,0.0,0.0,0.0,0.0,0.0,0.0,0.0,0.0,0.0,0.0,0.0,0.0,0.0,0.0,0.0,0.0,0.0,0.0,0.0,0.0,0.0,0.0,0.0,0.0,0.0,0.0,1.6416,1.731,1.6943,1.6837,1.7394,1.7207,1.7487,1.8491,0.0,0.0,0.0,0.0,0.0,0.0,0.0,0.0,0.0,0.0,0.0,0.0,0.0,0.0,0.0,0.0,0.0,0.0,0.0,0.0,0.0,0.0,0.0,0.0,0.0,0.0,0.0,0.0,0.0,0.0,0.0,0.0,0.0,0.0,0.0,0.0,0.0,0.0,0.0,0.0,0.0,0.0,0.0,0.0,0.0,0.0,0.0,0.0,0.0,0.0,0.0,0.0,0.0,0.0,0.0,0.0,0.0,0.0,0.0,0.0,0.0,0.0,0.0,0.0,0.0,0.0,0.0,0.0,0.0,0.0,0.0,0.0,0.0,0.0,0.0,0.0,0.0,0.0,0.0,0.0,0.0,0.0,0.0,0.0,0.0,0.0,0.0,0.0,0.0,0.0,0.0,0.0,0.0,0.0,0.0,0.0,0.0,0.0,0.0,0.0,0.0,0.0,0.0,0.0,1.6669,1.6052,1.671,1.7415,1.7913,1.7329,1.7584,1.9155,0.0,0.0,0.0,0.0,0.0,0.0,0.0,0.0,0.0,0.0,0.0,0.0,0.0,0.0,0.0,0.0,0.0,0.0,0.0,0.0,0.0,0.0,0.0,0.0,0.0,0.0,0.0,0.0,0.0,0.0,0.0,0.0,0.0,0.0,0.0,0.0,0.0,0.0,0.0,0.0,0.0,0.0,0.0,0.0,0.0,0.0,0.0,0.0,0.0,0.0,0.0,0.0,0.0,0.0,0.0,0.0,0.0,0.0,0.0,0.0,0.0,0.0,0.0,0.0,0.0,0.0,0.0,0.0,0.0,0.0,0.0,0.0,0.0,0.0,0.0,0.0,0.0,0.0,0.0,0.0,0.0,0.0,0.0,0.0,0.0,0.0,0.0,0.0,0.0,0.0,0.0,0.0,0.0,0.0,0.0,0.0,0.0,0.0,0.0,0.0,0.0,0.0,0.0,1.8715,1.8201,1.6747,1.7276,1.7933,1.8482,1.7231,1.7424,1.983,1.7071,0.0,0.0,0.0,0.0,0.0,0.0,0.0,0.0,0.0,0.0,0.0,0.0,0.0,0.0,0.0,0.0,0.0,0.0,0.0,0.0,0.0,0.0,0.0,0.0,0.0,0.0,0.0,0.0,0.0,0.0,0.0,0.0,0.0,0.0,0.0,0.0,0.0,0.0,0.0,0.0,0.0,0.0,0.0,0.0,0.0,0.0,0.0,0.0,0.0,0.0,0.0,0.0,0.0,0.0,0.0,0.0,0.0,0.0,0.0,0.0,0.0,0.0,0.0,0.0,0.0,0.0,0.0,0.0,0.0,0.0,0.0,0.0,0.0,0.0,0.0,0.0,0.0,0.0,0.0,0.0,0.0,0.0,0.0,0.0,0.0,0.0,0.0,0.0,0.0,0.0,0.0,0.0,0.0,0.0,0.0,0.0,0.0,0.0,0.0,0.0,0.0,0.0,1.9129,1.883,1.763,1.7844,1.8227,1.8625,1.6985,1.714,1.9875,1.694,0.0,0.0,0.0,0.0,0.0,0.0,0.0,0.0,0.0,0.0,0.0,0.0,0.0,0.0,0.0,0.0,0.0,0.0,0.0,0.0,0.0,0.0,0.0,0.0,0.0,0.0,0.0,0.0,0.0,0.0,0.0,0.0,0.0,0.0,0.0,0.0,0.0,0.0,0.0,0.0,0.0,0.0,0.0,0.0,0.0,0.0,0.0,0.0,0.0,0.0,0.0,0.0,0.0,0.0,0.0,0.0,0.0,0.0,0.0,0.0,0.0,0.0,0.0,0.0,0.0,0.0,0.0,0.0,0.0,0.0,0.0,0.0,0.0,0.0,0.0,0.0,0.0,0.0,0.0,0.0,0.0,0.0,0.0,0.0,0.0,0.0,0.0,0.0,0.0,0.0,0.0,0.0,0.0,0.0,0.0,0.0,0.0,0.0,0.0,0.0,0.0,0.0,1.7912,1.7076,1.7966,1.7956,1.7938,1.7975,1.6639,1.6636,1.8624,1.6514,0.0,0.0,0.0,0.0,0.0,0.0,0.0,0.0,0.0,0.0,0.0,0.0,0.0,0.0,0.0,0.0,0.0,0.0,0.0,0.0,0.0,0.0,0.0,0.0,0.0,0.0,0.0,0.0,0.0,0.0,0.0,0.0,0.0,0.0,0.0,0.0,0.0,0.0,0.0,0.0,0.0,0.0,0.0,0.0,0.0,0.0,0.0,0.0,0.0,0.0,0.0,0.0,0.0,0.0,0.0,0.0,0.0,0.0,0.0,0.0,0.0,0.0,0.0,0.0,0.0,0.0,0.0,0.0,0.0,0.0,0.0,0.0,0.0,0.0,0.0,0.0,0.0,0.0,0.0,0.0,0.0,0.0,0.0,0.0,0.0,0.0,0.0,0.0,0.0,0.0,0.0,0.0,0.0,0.0,0.0,0.0,0.0,0.0,0.0,0.0,0.0,0.0,1.8995,1.8659,1.8577,1.8491,1.8396,1.8396,1.6427,1.6262,1.8738,0.0,0.0,0.0,0.0,0.0,0.0,0.0,0.0,0.0,0.0,0.0,0.0,0.0,0.0,0.0,0.0,0.0,0.0,0.0,0.0,0.0,0.0,0.0,0.0,0.0,0.0,0.0,0.0,0.0,0.0,0.0,0.0,0.0,0.0,0.0,0.0,0.0,0.0,0.0,0.0,0.0,0.0,0.0,0.0,0.0,0.0,0.0,0.0,0.0,0.0,0.0,0.0,0.0,0.0,0.0,0.0,0.0,0.0,0.0,0.0,0.0,0.0,0.0,0.0,0.0,0.0,0.0,0.0,0.0,0.0,0.0,0.0,0.0,0.0,0.0,0.0,0.0,0.0,0.0,0.0,0.0,0.0,0.0,0.0,0.0,0.0,0.0,0.0,0.0,0.0,0.0,0.0,0.0,0.0,0.0,0.0,0.0,0.0,0.0,0.0,0.0,0.0,1.9905,1.9697,1.9503,1.9197,1.8673,1.8296,1.8087,1.5859,1.5704,1.8585,0.0,0.0,0.0,0.0,0.0,0.0,0.0,0.0,0.0,0.0,0.0,0.0,0.0,0.0,0.0,0.0,0.0,0.0,0.0,0.0,0.0,0.0,0.0,0.0,0.0,0.0,0.0,0.0,0.0,0.0,0.0,0.0,0.0,0.0,0.0,0.0,0.0,0.0,0.0,0.0,0.0,0.0,0.0,0.0,0.0,0.0,0.0,0.0,0.0,0.0,0.0,0.0,0.0,0.0,0.0,0.0,0.0,0.0,0.0,0.0,0.0,0.0,0.0,0.0,0.0,0.0,0.0,0.0,0.0,0.0,0.0,0.0,0.0,0.0,0.0,0.0,0.0,0.0,0.0,0.0,0.0,0.0,0.0,0.0,0.0,0.0,0.0,0.0,0.0,0.0,0.0,0.0,0.0,0.0,0.0,0.0,0.0,0.0,0.0,0.0,0.0,0.0,2.0578,1.96,1.9099,1.9654,1.8523,1.7443,1.6771,1.4904,1.5044,0.0,0.0,0.0,0.0,0.0,0.0,0.0,0.0,0.0,0.0,0.0,0.0,0.0,0.0,0.0,0.0,0.0,0.0,0.0,0.0,0.0,0.0,0.0,0.0,0.0,0.0,0.0,0.0,0.0,0.0,0.0,0.0,0.0,0.0,0.0,0.0,0.0,0.0,0.0,0.0,0.0,0.0,0.0,0.0,0.0,0.0,0.0,0.0,0.0,0.0,0.0,0.0,0.0,0.0,0.0,0.0,0.0,0.0,0.0,0.0,0.0,0.0,0.0,0.0,0.0,0.0,0.0,0.0,0.0,0.0,0.0,0.0,0.0,0.0,0.0,0.0,0.0,0.0,0.0,0.0,0.0,0.0,0.0,0.0,0.0,0.0,0.0,0.0,0.0,0.0,0.0,0.0,0.0,0.0,0.0,0.0,0.0,0.0,0.0,0.0,0.0,0.0,0.0,2.0557,1.96,1.9099,1.9654,1.8523,1.7623,1.7413,1.5187,1.5321,1.8916,0.0,0.0,0.0,0.0,0.0,0.0,0.0,0.0,0.0,0.0,0.0,0.0,0.0,0.0,0.0,0.0,0.0,0.0,0.0,0.0,0.0,0.0,0.0,0.0,0.0,0.0,0.0,0.0,0.0,0.0,0.0,0.0,0.0,0.0,0.0,0.0,0.0,0.0,0.0,0.0,0.0,0.0,0.0,0.0,0.0,0.0,0.0,0.0,0.0,0.0,0.0,0.0,0.0,0.0,0.0,0.0,0.0,0.0,0.0,0.0,0.0,0.0,0.0,0.0,0.0,0.0,0.0,0.0,0.0,0.0,0.0,0.0,0.0,0.0,0.0,0.0,0.0,0.0,0.0,0.0,0.0,0.0,0.0,0.0,0.0,0.0,0.0,0.0,0.0,0.0,0.0,0.0,0.0,0.0,0.0,0.0,0.0,0.0,0.0,0.0,0.0,0.0,2.0788,1.9856,1.935,1.9672,1.8732,1.7878,1.7354,1.5636,1.5739,1.8443,0.0,0.0,0.0,0.0,0.0,0.0,0.0,0.0,0.0,0.0,0.0,0.0,0.0,0.0,0.0,0.0,0.0,0.0,0.0,0.0,0.0,0.0,0.0,0.0,0.0,0.0,0.0,0.0,0.0,0.0,0.0,0.0,0.0,0.0,0.0,0.0,0.0,0.0,0.0,0.0,0.0,0.0,0.0,0.0,0.0,0.0,0.0,0.0,0.0,0.0,0.0,0.0,0.0,0.0,0.0,0.0,0.0,0.0,0.0,0.0,0.0,0.0,0.0,0.0,0.0,0.0,0.0,0.0,0.0,0.0,0.0,0.0,0.0,0.0,0.0,0.0,0.0,0.0,0.0,0.0,0.0,0.0,0.0,0.0,0.0,0.0,0.0,0.0,0.0,0.0,0.0,0.0,0.0,0.0,0.0,0.0,0.0,0.0,0.0,0.0,0.0,0.0,2.1178,2.03,1.9708,1.9708,1.9091,1.8207,1.6995,1.6219,1.6232,1.7243,0.0,0.0,0.0,0.0,0.0,0.0,0.0,0.0,0.0,0.0,0.0,0.0,0.0,0.0,0.0,0.0,0.0,0.0,0.0,0.0,0.0,0.0,0.0,0.0,0.0,0.0,0.0,0.0,0.0,0.0,0.0,0.0,0.0,0.0,0.0,0.0,0.0,0.0,0.0,0.0,0.0,0.0,0.0,0.0,0.0,0.0,0.0,0.0,0.0,0.0,0.0,0.0,0.0,0.0,0.0,0.0,0.0,0.0,0.0,0.0,2.3468,2.2725,0.0,0.0,0.0,0.0,0.0,0.0,0.0,0.0,0.0,0.0,0.0,0.0,0.0,0.0,0.0,0.0,0.0,0.0,0.0,0.0,0.0,0.0,0.0,0.0,0.0,0.0,0.0,0.0,0.0,0.0,0.0,0.0,0.0,0.0,0.0,0.0,0.0,0.0,0.0,0.0,2.1841,2.0596,1.9708,1.9708,1.9091,1.8565,1.8296,1.6743,1.6681,1.8685,1.7252,0.0,0.0,0.0,0.0,0.0,0.0,0.0,0.0,0.0,0.0,0.0,0.0,0.0,0.0,0.0,0.0,0.0,0.0,0.0,0.0,0.0,0.0,0.0,0.0,0.0,0.0,0.0,0.0,0.0,0.0,0.0,0.0,0.0,0.0,0.0,0.0,0.0,0.0,0.0,0.0,0.0,0.0,0.0,0.0,0.0,0.0,0.0,0.0,0.0,0.0,0.0,0.0,0.0,0.0,0.0,0.0,0.0,0.0,0.0,2.7174,2.5914,0.0,0.0,0.0,0.0,0.0,0.0,0.0,0.0,0.0,0.0,0.0,0.0,0.0,0.0,0.0,0.0,0.0,0.0,0.0,0.0,0.0,0.0,0.0,0.0,0.0,0.0,0.0,0.0,0.0,0.0,0.0,0.0,0.0,0.0,0.0,0.0,0.0,0.0,0.0,0.0,2.2168,2.0754,1.9708,1.9708,1.9408,1.9061,1.8732,1.7475,1.7083,1.8005,1.7517,0.0,0.0,0.0,0.0,0.0,0.0,0.0,0.0,0.0,0.0,0.0,0.0,0.0,0.0,0.0,0.0,0.0,0.0,0.0,0.0,0.0,0.0,0.0,0.0,0.0,0.0,0.0,0.0,0.0,0.0,0.0,0.0,0.0,0.0,0.0,0.0,0.0,0.0,0.0,0.0,0.0,0.0,0.0,0.0,0.0,0.0,0.0,0.0,0.0,0.0,0.0,0.0,0.0,3.4629,3.5129,3.5422,3.6107,3.5314,3.3269,3.1545,2.9958,2.8616,2.8695,0.0,0.0,0.0,0.0,0.0,0.0,0.0,0.0,0.0,0.0,0.0,0.0,0.0,0.0,0.0,0.0,0.0,0.0,0.0,0.0,0.0,0.0,2.7293,2.728,2.7935,2.7535,2.397,0.0,0.0,0.0,0.0,0.0,0.0,0.0,0.0,0.0,0.0,0.0,2.2355,2.0901,1.9869,1.9869,1.9768,1.9498,1.8912,1.8267,1.7639,1.7085,1.7749,1.7931,0.0,0.0,0.0,0.0,0.0,0.0,0.0,0.0,0.0,0.0,0.0,0.0,0.0,0.0,0.0,0.0,0.0,0.0,0.0,0.0,0.0,0.0,0.0,0.0,0.0,0.0,0.0,0.0,0.0,0.0,0.0,0.0,2.5222,2.6217,0.0,0.0,0.0,0.0,0.0,0.0,0.0,0.0,0.0,0.0,0.0,0.0,0.0,3.4414,3.5579,3.6776,3.7161,3.6862,3.8083,3.8112,3.7097,3.7754,3.7908,3.7579,3.731,0.0,3.0909,2.9475,0.0,0.0,0.0,0.0,0.0,0.0,0.0,0.0,0.0,0.0,0.0,0.0,0.0,0.0,0.0,0.0,0.0,0.0,0.0,0.0,0.0,0.0,2.9095,2.8528,2.8913,2.8939,2.7265,2.6792,2.6204,2.4511,2.3386,2.3054,0.0,0.0,0.0,0.0,0.0,0.0,2.2541,2.1357,2.0569,2.0569,2.0049,1.9678,1.9588,1.8942,1.8523,1.8463,1.7487,1.7587,1.9111,1.8898,0.0,0.0,0.0,0.0,0.0,0.0,0.0,0.0,0.0,0.0,0.0,0.0,0.0,0.0,0.0,0.0,0.0,0.0,0.0,0.0,0.0,0.0,0.0,0.0,0.0,0.0,0.0,0.0,0.0,2.7616,2.9379,2.9295,3.0884,3.1869,0.0,0.0,0.0,0.0,0.0,0.0,0.0,0.0,0.0,3.6307,3.7289,3.8093,3.8691,3.9619,4.0127,4.0224,4.1175,4.1257,4.0719,4.1414,4.1534,4.1175,4.1175,3.9828,3.7404,3.4683,3.3335,3.2766,0.0,0.0,0.0,0.0,2.9516,2.9903,3.0404,3.0402,3.0283,3.1236,0.0,0.0,0.0,0.0,0.0,0.0,0.0,3.0071,2.9184,3.0566,3.193,3.1002,3.13,3.142,3.0073,2.9423,2.8453,2.6392,2.6351,2.6777,2.7257,2.6016,0.0,0.0,0.0,2.3281,2.3036,2.1982,2.1126,2.0748,2.0438,2.0109,1.9738,1.9091,1.8702,1.8702,1.7818,1.7441,1.7898,1.9004,1.9833,0.0,0.0,0.0,0.0,0.0,0.0,0.0,0.0,0.0,0.0,0.0,0.0,0.0,0.0,0.0,0.0,0.0,0.0,0.0,0.0,0.0,0.0,0.0,0.0,0.0,0.0,0.0,0.0,3.1031,3.2734,3.1744,3.3962,3.5272,0.0,0.0,0.0,0.0,0.0,0.0,3.6269,3.7695,3.8882,3.9793,4.0673,4.1324,4.1654,4.2132,4.268,4.3159,4.3599,4.3798,4.3798,4.4347,4.4287,4.3798,4.3868,4.3569,4.2851,3.9271,3.6663,3.4904,3.3826,3.3025,3.2523,3.2763,3.3119,3.3593,3.4439,3.4558,3.4343,3.4797,3.378,3.2258,3.1748,0.0,0.0,0.0,0.0,3.1896,3.1753,3.2852,3.3897,3.3394,3.3664,3.3694,3.2497,3.1959,3.0856,2.7999,2.8373,2.9155,2.9163,2.7542,0.0,2.7404,2.5589,2.3985,2.3525,2.2709,2.1874,2.1047,2.0808,2.0438,1.9768,1.9241,1.8942,1.8942,1.8326,1.7712,1.7234,1.8867,1.972,1.9524,0.0,0.0,0.0,0.0,0.0,0.0,0.0,0.0,0.0,0.0,0.0,0.0,0.0,0.0,0.0,0.0,0.0,0.0,0.0,0.0,0.0,0.0,0.0,0.0,0.0,0.0,0.0,0.0,0.0,3.3029,3.6847,0.0,0.0,0.0,0.0,3.7809,3.8834,3.9713,4.0293,4.0979,4.1896,4.306,4.311,4.3778,4.5035,4.5095,4.5125,4.5155,4.5185,4.5185,4.5185,4.5214,4.5214,4.5185,4.5185,4.5185,4.4855,4.0898,3.948,3.9572,3.7699,3.7634,3.8525,3.7342,3.6999,3.6952,3.5848,3.504,3.465,3.574,3.5485,3.4643,3.4157,3.3411,0.0,0.0,3.2198,3.2436,3.3184,3.3484,3.3844,3.507,3.537,3.522,3.4503,3.4673,3.3477,2.8551,2.7141,2.6942,2.7446,0.0,2.6411,2.6476,2.6327,2.5598,2.3827,2.355,2.3041,2.1784,2.1096,2.0438,1.9768,1.9678,1.9648,1.9648,1.9031,1.8625,1.8612,1.8117,1.8663,2.0406,2.0536,0.0,0.0,0.0,0.0,0.0,0.0,0.0,0.0,0.0,0.0,0.0,0.0,0.0,0.0,0.0,0.0,0.0,0.0,0.0,0.0,0.0,0.0,0.0,0.0,0.0,0.0,0.0,0.0,3.8396,4.1278,0.0,4.1428,4.0981,4.1164,4.2077,4.1729,4.2106,4.3528,4.3828,4.4537,4.5843,4.5873,4.6322,4.7219,4.7219,4.7219,4.7219,4.68,4.6591,4.6591,4.6591,4.6591,4.6591,4.6591,4.6591,4.6441,4.4616,4.32,4.2085,4.0502,3.9934,3.9868,3.942,3.9313,3.932,3.929,3.8571,3.7524,3.6679,3.6194,3.5743,3.4705,3.4198,3.3928,3.375,3.3722,3.3871,3.4622,3.4801,3.4921,3.54,3.5519,3.531,3.4653,3.462,3.408,3.1839,3.038,2.9733,3.0388,2.8628,2.7552,2.8669,2.7501,2.6135,2.5046,2.4485,2.3887,2.3011,2.2353,2.1545,2.0438,2.0348,2.0168,1.9738,1.9498,1.9151,1.8732,1.8882,1.9104,1.9349,1.9766,2.0816,0.0,0.0,0.0,0.0,0.0,0.0,0.0,0.0,0.0,0.0,0.0,0.0,0.0,0.0,0.0,0.0,0.0,0.0,0.0,0.0,0.0,0.0,0.0,0.0,0.0,4.0375,4.2638,4.3283,4.5403,4.656,4.5936,4.5097,4.5061,4.6266,4.5092,4.5125,4.686,4.6741,4.704,4.7938,4.7967,4.8177,4.8626,4.8752,4.8632,4.8267,4.7968,4.7807,4.7807,4.7452,4.7495,4.7807,4.7452,4.7309,4.7279,4.683,4.6082,4.5052,4.3367,4.2432,4.2013,4.1803,4.1594,4.1414,4.1384,4.0516,3.92,3.7913,3.7165,3.6626,3.5729,3.5459,3.5429,3.5252,3.5192,3.5222,3.5429,3.5519,3.5519,3.5519,3.5519,3.537,3.4921,3.4683,3.4384,3.3903,3.2646,3.1723,3.1931,3.008,2.9092,3.0656,2.8833,2.7235,2.716,2.6051,2.4844,2.3729,2.3221,2.2473,2.1156,2.1425,2.1216,2.0109,2.0456,2.0217,1.9091,1.9899,2.0205,1.9792,2.0346,2.1215,2.2439,0.0,0.0,0.0,0.0,0.0,0.0,0.0,0.0,0.0,0.0,0.0,0.0,0.0,0.0,0.0,0.0,0.0,0.0,0.0,0.0,0.0,0.0,0.0,4.1831,4.4351,4.6465,4.729,4.919,4.9881,4.853,4.9011,4.9681,5.0267,4.9113,4.897,5.0333,4.9764,4.9434,4.9434,4.9434,4.9404,4.9359,4.9671,4.9335,4.8385,4.8672,4.88,4.8759,4.7794,4.7849,4.8718,4.7722,4.7309,4.7309,4.7352,4.7904,4.8563,4.6252,4.5387,4.5338,4.4638,4.4008,4.3249,4.1901,4.0576,3.9433,3.9469,3.8542,3.7464,3.7434,3.7434,3.7315,3.6686,3.6507,3.6357,3.5699,3.5519,3.5519,3.5519,3.5519,3.5519,3.5519,3.4981,3.4533,3.4533,3.3455,3.2318,3.166,3.0972,3.0915,3.199,3.0144,0.0,3.0033,2.8059,2.5908,2.4051,2.3811,2.3302,2.2014,2.3011,2.2862,2.0868,2.1934,2.1804,1.9857,2.0976,2.1714,2.186,2.23,2.2285,2.175,0.0,0.0,0.0,0.0,0.0,0.0,0.0,0.0,0.0,0.0,0.0,0.0,0.0,0.0,0.0,0.0,0.0,0.0,0.0,0.0,0.0,4.4068,4.5971,4.567,4.801,5.0192,5.1275,5.3769,5.5273,5.4868,5.3383,5.3254,5.5234,5.1828,5.1242,5.4801,5.3095,5.2236,5.2684,5.2267,5.1529,5.069,5.0546,5.0364,5.0095,4.9727,4.9264,4.8759,4.8248,4.7902,4.7679,4.7409,4.7309,4.7352,4.8115,4.8553,4.8645,4.6994,4.7114,4.8135,4.69,4.5946,4.4949,4.2831,4.1572,4.0756,4.0277,3.9559,3.8781,3.8272,3.8123,3.7973,3.7345,3.7165,3.7015,3.6387,3.6207,3.6088,3.5609,3.5519,3.5519,3.5519,3.537,3.522,3.522,3.4532,3.3574,3.2407,3.2049,3.172,3.1065,3.0046,2.9265,2.9065,2.7624,2.7185,2.8721,2.8474,2.7629,2.6307,2.6518,2.5206,2.1635,2.1754,2.1744,2.1156,2.1036,2.0907,2.076,2.2332,2.3129,0.0,0.0,0.0,0.0,0.0,0.0,0.0,0.0,0.0,0.0,0.0,0.0,0.0,0.0,0.0,0.0,0.0,0.0,0.0,0.0,0.0,0.0,4.876,5.0964,5.254,5.262,5.32,5.5017,5.68,5.8018,5.8486,5.6789,5.636,5.814,5.4971,5.4246,5.7064,5.5542,5.4517,5.4417,5.4223,5.3334,5.1618,5.1827,5.146,5.0537,5.0309,5.0007,4.9625,4.9004,4.8823,4.9015,4.8541,4.8443,4.8625,4.9215,4.9734,4.9992,0.0,0.0,0.0,0.0,4.6514,4.5349,4.3446,4.2342,4.1722,4.1025,4.0367,3.9709,3.902,3.8811,3.8691,3.8003,3.7823,3.7614,3.6716,3.6477,3.6327,3.5669,3.5519,3.5519,3.5519,3.5519,3.5519,3.5519,3.519,0.0,3.3514,3.2886,3.2497,3.2437,3.0795,2.9717,3.0054,2.8286,2.7545,2.8966,2.8755,2.7946,2.6621,2.7043,0.0,0.0,0.0,2.2906,2.2818,2.2513,0.0,0.0,0.0,2.4137,2.3381,2.454,0.0,0.0,2.333,2.3287,0.0,0.0,0.0,0.0,0.0,0.0,0.0,0.0,0.0,0.0,0.0,0.0,0.0,0.0,0.0,0.0,5.3712,5.6132,6.0157,5.7641,5.6205,5.8544,5.9028,5.9512,6.041,5.9425,5.9061,5.9804,5.7933,5.727,5.8399,5.77,0.0,0.0,0.0,5.514,5.2842,5.3561,5.2838,5.0713,5.1067,5.1095,5.077,4.9954,5.0181,5.1176,5.037,5.0124,5.0397,5.0512,5.1155,5.1957,5.0968,5.0518,5.0179,4.798,4.6533,4.5464,4.4197,0.0,0.0,4.2032,4.1398,4.0667,4.0004,3.9751,3.9559,3.8868,3.8587,3.8242,3.7015,3.6656,3.6417,3.5759,3.5549,3.5519,3.5519,3.5519,3.5519,3.5519,3.5519,3.531,3.4743,3.3574,3.3214,3.4604,3.196,3.0317,3.1723,2.9456,2.7585,2.722,2.719,0.0,2.5428,2.6387,2.5931,2.3212,2.4088,2.4609,2.4318,2.4605,2.4686,2.4491,2.5621,2.5342,2.3526,2.4448,2.4661,2.4197,2.6044,2.6249,0.0,0.0,0.0,0.0,0.0,0.0,0.0,0.0,0.0,0.0,0.0,0.0,0.0,0.0,0.0,5.4219,5.7266,5.9828,6.1287,6.1304,6.1359,6.1871,6.2816,6.3262,6.2882,6.1258,6.0712,6.1755,5.8722,5.845,6.2204,6.0837,6.0092,6.0381,5.9952,5.8787,5.6734,5.6682,5.5677,5.3766,5.3819,0.0,5.0843,5.1184,5.0955,5.0164,5.0865,5.088,5.0435,5.1266,5.2241,5.3076,5.1993,5.1237,5.0573,4.9363,4.8427,4.7599,4.6814,4.5706,4.463,4.4538,4.4,4.3303,4.2606,4.1875,0.0,4.0451,3.9742,3.905,3.8242,3.7614,3.7075,3.6447,3.5878,3.5519,3.5519,3.5519,3.5519,3.5519,3.5519,3.5459,3.534,3.4622,3.3873,3.3124,3.1959,3.0883,3.0197,2.9089,2.9019,3.0624,3.0774,3.05,2.9743,2.992,2.8634,2.5255,2.5285,2.4912,2.3812,2.5134,2.5632,2.5047,2.6631,2.7047,2.6167,2.7015,2.6864,2.5728,2.4516,2.3599,0.0,0.0,0.0,0.0,0.0,0.0,0.0,0.0,0.0,0.0,0.0,4.8744,5.1059,0.0,5.7325,5.9587,6.1763,6.3425,6.4161,6.4562,6.4314,6.2957,6.3852,6.4478,6.4106,6.3221,6.2904,6.3457,6.1758,6.1667,6.3924,6.3146,6.2382,6.1725,6.16,6.0349,5.7813,5.73,5.6294,5.4781,5.4193,5.3352,5.2361,5.2745,5.273,5.2485,5.3071,5.2986,5.2521,5.262,5.3041,5.3382,5.2312,5.1655,5.1191,5.0007,4.905,4.8125,4.7105,4.6272,4.5632,4.5314,4.4962,4.4579,4.3873,4.3349,4.2748,4.1579,4.094,4.0264,3.8772,3.8153,3.7734,3.7105,3.6447,3.5998,3.5998,3.5729,3.5519,3.5519,3.5519,3.5519,3.5519,3.522,3.4532,3.3215,3.2138,3.1152,3.0163,2.9475,2.9379,3.012,3.018,2.9816,2.8819,2.8428,2.7624,2.6138,2.5771,2.5561,2.5464,2.6303,2.6602,2.6258,2.7655,2.7966,2.7093,2.7761,2.7602,2.668,2.5336,2.4456,0.0,0.0,0.0,0.0,0.0,0.0,0.0,4.6413,4.8103,5.1019,5.3347,5.5669,5.8487,6.0574,6.2594,6.4674,6.5628,6.6339,6.6948,6.6914,6.5935,6.3634,6.4346,6.4986,6.4816,6.4816,6.4749,6.4613,6.4613,6.4647,6.4816,6.4816,6.3985,6.2187,6.2323,6.1103,5.8229,5.7469,5.648,5.5209,5.4446,5.4018,5.3923,5.434,5.4761,5.5111,5.517,5.5065,5.4735,5.3786,5.3517,5.3585,5.2378,5.2029,5.204,5.0544,4.939,4.8417,4.7308,4.686,4.6633,4.6117,4.5922,4.5826,4.5113,4.4787,4.436,4.2758,4.2166,4.1607,3.9612,3.9009,3.8732,3.8012,3.7375,3.689,3.6723,3.6148,3.5731,3.5896,3.5808,3.5686,3.5686,3.5686,3.5296,3.409,3.3005,3.198,3.1043,3.05,2.9843,2.8903,2.8786,2.8338,2.726,2.6808,2.664,2.6891,2.6696,2.6795,2.7328,2.7711,2.7838,2.7731,2.8741,2.8761,2.7731,2.813,2.798,2.7242,2.6939,2.6346,4.1526,4.209,4.4018,4.8431,4.8724,5.0209,0.0,5.8228,5.6806,6.0994,6.1598,6.1665,6.2719,6.414,6.5493,6.6406,6.7184,6.7692,6.776,6.7218,6.6466,6.5462,6.6052,6.6305,6.5628,6.5561,6.529,6.4647,6.4613,6.4884,6.5527,6.5561,6.4959,6.3584,6.3023,6.1742,5.9567,5.8908,5.7684,5.5891,5.687,5.6086,5.3968,5.6066,5.6297,5.5117,5.5481,5.5611,5.5443,5.3753,5.363,5.4328,5.2544,5.2487,5.3112,5.1348,5.0202,4.9544,4.9656,4.9209,4.8671,4.8604,4.857,4.8435,4.7695,4.6962,4.6026,4.4552,4.3557,4.2747,4.1851,4.1151,4.0483,3.9641,3.895,3.8227,3.7455,3.6806,3.6589,3.7213,3.6878,3.6477,3.6477,3.6477,3.6199,3.5488,3.5241,3.4498,3.2695,3.2385,3.1616,2.9702,2.9502,2.9442,2.9292,2.9745,2.954,2.8356,2.9343,2.9206,2.7555,2.9143,2.9808,2.9235,2.9902,2.9925,2.9235,2.9243,2.8631,2.747,2.7929,2.7494,4.5594,4.6961,4.9011,5.1765,5.3919,5.6471,6.0668,6.0909,6.1215,6.4681,6.5899,6.6508,6.7252,6.8267,6.8774,6.8233,6.8741,6.8774,6.7455,6.7015,6.6203,6.4613,6.5087,6.5561,6.5662,6.5696,6.573,6.5865,6.5899,6.6034,6.6339,6.5636,6.4806,6.3847,6.2802,6.201,6.1508,6.009,5.9351,5.9298,5.8273,5.73,5.6477,5.747,5.774,5.739,5.7091,5.6731,5.6222,5.4586,5.4186,5.4464,5.331,5.311,5.3349,5.2101,5.1229,5.0526,5.021,4.9627,4.9018,4.9018,4.9018,4.8951,4.8646,4.8296,4.7684,4.6116,4.5437,4.4724,4.292,4.227,4.1719,4.041,3.9621,3.9047,3.8791,3.8213,3.7892,3.8275,3.8142,3.7796,3.7356,3.7293,3.7345,3.7516,3.6034,3.4667,3.3963,3.3128,3.197,3.0308,2.9804,2.9621,2.9621,3.0221,3.0504,3.0251,3.0807,3.0923,3.0426,3.0844,3.0919,3.0686,3.0879,3.0686,3.0072,3.0036,2.9583,2.8713,2.856,2.8632,4.8349,5.0424,5.2906,5.5247,5.8877,6.2101,6.2876,6.4063,6.5583,6.7624,6.8774,6.9553,7.0094,7.0466,7.0432,6.9553,6.9688,6.9316,6.7692,6.6914,6.5696,6.3463,6.3294,6.3666,6.441,6.5222,6.5899,6.6474,6.688,6.7117,6.7117,6.6243,6.5326,6.444,6.3153,6.2469,6.2525,6.0728,6.029,6.1175,5.9371,5.8528,5.8634,5.872,5.8881,5.8998,5.8457,5.7679,5.6697,5.5412,5.4769,5.4532,5.3788,5.3518,5.345,5.2841,5.2164,5.142,5.0676,5.0067,4.9593,4.9357,4.9289,4.9255,4.9052,4.9018,4.8692,4.7325,4.6967,4.6482,4.4454,4.372,4.3214,4.2081,4.0893,4.0142,4.0553,3.9774,3.9123,3.9698,3.9647,3.9292,3.8553,3.8427,3.8476,3.8585,3.6762,3.546,3.5594,3.3979,3.2397,3.119,3.0511,3.0303,3.07,3.1155,3.169,3.2329,3.2373,3.2443,3.2496,3.2037,3.1701,3.1529,3.1281,3.0933,3.0497,3.0695,3.0551,3.0116,2.9979,3.036,4.8783,5.1187,5.448,5.9908,6.3413,6.6313,6.9214,7.05,7.1075,7.1176,7.0635,7.0161,7.0195,6.962,6.9383,7.006,6.9586,6.9113,6.9045,6.7117,6.4884,6.2685,6.1129,6.0554,6.1366,6.4005,6.5696,6.573,6.7049,6.7861,6.7861,6.7818,6.7232,6.5969,6.4584,6.3244,6.2011,6.0633,5.9928,5.9973,6.0326,6.0148,5.9474,5.9884,5.9671,5.9032,5.8998,5.8152,5.6731,5.5987,5.5243,5.4532,5.3788,5.3518,5.3518,5.3484,5.2976,5.2164,5.142,5.1151,5.1048,5.0304,5.0067,4.9932,4.9221,4.9018,4.8849,4.8108,4.7841,4.7673,4.6866,4.5993,4.5336,4.5367,4.3451,4.1856,4.2809,4.1269,4.013,4.1749,4.1576,4.088,4.0155,4.0023,3.9509,3.8062,3.7761,3.7762,3.7873,3.5436,3.337,3.2605,3.1877,3.2006,3.3466,3.3525,3.3781,3.4445,3.4454,3.3839,3.2551,3.2474,3.219,3.1601,3.0904,3.0518,3.049,3.1136,3.1462,3.1486,3.2696,3.2971,5.3465,5.6913,6.0634,6.5386,6.8378,7.0669,7.2665,7.2563,7.1887,7.1413,6.9233,6.7209,6.6617,6.5541,6.5311,6.6956,6.7827,6.8504,6.9011,6.8436,6.6576,6.2821,6.2821,6.2212,6.0013,6.1603,6.3599,6.5527,6.6609,6.7184,6.7184,6.6822,6.6244,6.5309,6.3961,6.3469,6.3917,6.2513,6.2147,6.2997,6.1695,6.0918,6.0723,6.084,6.0486,5.9742,5.9742,5.8896,5.7476,5.6731,5.6021,5.5277,5.4532,5.3923,5.3518,5.3518,5.3348,5.2976,5.2198,5.1623,5.1183,5.0913,5.0507,5.0033,4.9796,4.939,4.8951,4.8714,4.8646,4.8456,4.7558,4.7107,4.6618,4.5535,4.4639,4.4147,4.4594,4.3716,4.2996,4.3647,4.3177,4.2439,4.1695,4.1131,4.0321,3.8766,3.8525,3.8209,3.7302,3.6816,3.6072,3.4854,3.4486,3.4553,3.5022,3.5473,3.5833,3.6059,3.5569,3.5096,3.4616,3.3297,3.2471,3.2288,3.1548,3.1152,3.1152,3.1387,3.1755,3.2228,3.2215,3.2813,5.8595,6.2336,6.5793,7.0002,7.2124,7.3375,7.4052,7.3071,7.1582,7.0026,6.7277,6.4816,6.3639,6.1854,6.1456,6.4079,6.485,6.5865,6.7996,6.759,6.6237,6.3835,6.37,6.3057,6.1197,6.167,6.299,6.5121,6.6745,6.7624,6.7624,6.7301,6.6901,6.6435,6.5074,6.4766,6.5559,6.4394,6.4036,6.458,6.3159,6.2347,6.211,6.211,6.1366,6.0114,6.0114,5.9099,5.7476,5.7002,5.6393,5.5649,5.4871,5.4296,5.3856,5.3585,5.3518,5.345,5.2909,5.2435,5.1995,5.1691,5.1285,5.0845,5.0574,5.0168,4.9796,4.9796,4.9593,4.9232,4.8658,4.8067,4.7441,4.6716,4.5856,4.543,4.6179,4.5547,4.4818,4.4951,4.4587,4.391,4.2861,4.188,4.0845,3.9861,3.9481,3.8778,3.7356,3.74,3.7187,3.6253,3.5705,3.5751,3.6524,3.6718,3.7018,3.7569,3.6621,3.6075,3.6075,3.427,3.3191,3.2943,3.2214,3.175,3.1511,3.1992,3.2489,3.2944,3.3023,3.3697,6.3899,6.7236,6.9807,7.3726,7.4728,7.4492,7.368,7.2225,7.0229,6.7252,6.4837,6.2746,6.1201,5.8739,5.8097,6.1743,6.1231,6.1941,6.6406,6.5222,6.4377,6.5662,6.3971,6.3226,6.4546,6.4106,6.4038,6.4715,6.7421,6.9045,6.9113,6.9147,6.9147,6.9113,6.7692,6.6914,6.688,6.6068,6.5358,6.4647,6.458,6.4174,6.3531,6.3429,6.2212,6.0148,6.0114,5.8896,5.69,5.69,5.6461,5.5716,5.4972,5.4668,5.4566,5.389,5.3585,5.3551,5.3551,5.3551,5.3382,5.2604,5.2334,5.2164,5.1488,5.1219,5.1185,5.1185,5.071,5.0135,5.0135,4.8955,4.7967,4.8832,4.7209,4.5893,4.76,4.6717,4.5642,4.5794,4.5771,4.5229,4.3646,4.2252,4.1305,4.1204,4.0595,3.9589,3.8124,3.7378,3.695,3.6982,3.5778,3.5848,3.7913,3.7423,3.7578,3.898,3.7594,3.6697,3.6697,3.5264,3.416,3.3512,3.2881,3.2228,3.16,3.2958,3.3668,3.3745,3.5034,3.5678,6.8348,7.2083,7.4992,7.6048,7.6318,7.5811,7.3916,7.0635,6.7294,6.4979,6.0656,5.6985,5.5996,5.569,5.6916,6.1053,6.3137,6.5628,6.962,6.9688,6.8842,6.7489,6.7354,6.688,6.5527,6.6237,6.688,6.7049,6.776,6.847,6.9079,6.962,6.9654,6.9113,6.8707,6.8233,6.7624,6.6339,6.5595,6.5392,6.4309,6.37,6.3463,6.2381,6.1535,6.096,6.0351,5.9471,5.8457,5.8457,5.7679,5.6494,5.6325,5.5919,5.5412,5.5209,5.4803,5.4329,5.4329,5.3957,5.3484,5.3281,5.2807,5.2266,5.2097,5.1657,5.1185,5.1185,5.1082,5.0913,5.0913,5.0178,4.951,4.9765,4.8908,4.8149,4.8622,4.7986,4.7289,4.7335,4.6447,4.5229,4.3646,4.3071,4.2489,4.1373,4.1035,4.0577,3.9623,3.9368,3.9276,3.9253,3.8938,3.8928,3.9496,3.9379,3.943,3.9783,3.79,3.6777,3.6777,3.4835,3.3668,3.3517,3.3336,3.3155,3.3006,3.3946,3.468,3.5193,3.608,3.6482,7.3851,7.7313,7.9523,7.7993,7.7374,7.5914,7.1318,6.8031,6.4708,6.0387,5.6679,5.3808,5.265,5.2548,5.4257,5.9259,6.1278,6.4038,6.9113,6.9553,6.9485,6.9823,6.9688,6.9316,6.8707,6.8808,6.9045,6.9383,6.9079,6.9113,6.9553,6.9958,6.9992,6.9586,6.9282,6.8876,6.8436,6.7252,6.6677,6.6643,6.5155,6.4309,6.3937,6.2787,6.1907,6.1264,6.0825,6.0013,5.9032,5.9032,5.8321,5.7239,5.6934,5.6562,5.6156,5.5817,5.5446,5.504,5.4702,5.4329,5.3923,5.3619,5.3179,5.2841,5.2841,5.2536,5.2232,5.2232,5.1961,5.1691,5.1691,5.115,5.0574,5.0574,5.027,4.9898,4.956,4.9154,4.868,4.8007,4.6718,4.5432,4.4587,4.3849,4.3105,4.2286,4.161,4.1035,4.0629,4.0001,3.9714,4.0054,3.9765,3.9714,4.0087,4.0113,4.0113,4.0113,3.8303,3.7242,3.7242,3.54,3.4233,3.3933,3.3933,3.3784,3.3484,3.4236,3.4815,3.518,3.5921,3.6434,7.9548,8.2155,8.3203,7.9747,7.8083,7.531,6.7728,6.488,6.1881,5.5138,5.2972,5.1878,5.0454,5.0013,5.1697,5.7458,5.8468,6.0829,6.7421,6.7827,6.8639,7.1988,7.1278,7.0973,7.2293,7.1142,7.0601,7.1278,7.0703,7.0331,7.0331,7.0331,7.0331,7.0331,6.962,6.9282,6.9383,6.8402,6.7963,6.803,6.644,6.529,6.458,6.3734,6.2651,6.1434,6.1332,6.0554,5.9302,5.9201,5.8727,5.7949,5.7239,5.6934,5.6867,5.6258,5.5953,5.575,5.5006,5.4668,5.4465,5.3754,5.3518,5.3518,5.3518,5.3518,5.3518,5.3518,5.301,5.2469,5.2469,5.1928,5.1352,5.1352,5.1252,5.1048,5.0371,5.0168,4.9661,4.8176,4.6887,4.5974,4.5872,4.4654,4.3646,4.3544,4.2388,4.1474,4.1373,4.0007,3.9315,4.0037,3.9506,3.9342,4.0028,4.0113,4.0113,4.0113,3.8668,3.7851,3.7966,3.6383,3.5284,3.4781,3.4655,3.4354,3.3754,3.4451,3.4775,3.4804,3.5552,3.6179,8.3316,8.4781,8.4792,8.1349,7.8518,7.4641,6.7141,6.191,5.7398,5.2731,5.0161,4.8618,4.8271,4.9983,5.3188,5.8416,6.0687,6.3894,6.9857,7.0601,7.1007,7.2259,7.2157,7.2124,7.2394,7.1616,7.1176,7.1312,7.1176,7.1109,7.1109,7.1109,7.1109,7.1109,7.0398,7.0297,7.0939,6.891,6.8233,6.8876,6.6711,6.529,6.4546,6.3193,6.2448,6.2178,6.1569,6.1163,6.0858,6.0182,5.9471,5.8761,5.7983,5.7712,5.7679,5.7577,5.7137,5.6494,5.5784,5.5108,5.4465,5.3754,5.3518,5.3518,5.3518,5.3518,5.3518,5.3518,5.3416,5.3281,5.3281,5.2706,5.2131,5.2131,5.1657,5.1151,5.1048,5.0541,4.9661,4.8176,4.7669,4.7327,4.6718,4.5872,4.5094,4.4451,4.3606,4.2794,4.2185,4.0796,3.9952,4.0087,3.9978,3.9952,4.0087,4.0113,4.0113,4.0113,3.8668,3.8048,3.869,3.6631,3.5721,3.623,3.5633,3.528,3.516,3.5891,3.6228,3.6259,3.7062,3.7146,8.4825,8.5922,8.5411,8.0827,7.7442,7.288,6.404,5.908,5.4918,4.9819,4.8023,4.7376,4.7357,4.9195,5.2158,5.6474,5.7935,6.0981,6.7963,6.8301,6.9113,7.2563,7.2969,7.3105,7.351,7.2529,7.1887,7.1887,7.1548,7.1312,7.1312,7.1312,7.1312,7.1312,7.0973,7.0939,7.1312,6.9451,6.8707,6.9079,6.6779,6.5493,6.5121,6.4038,6.3328,6.2956,6.2618,6.2009,6.1264,6.0892,6.0283,5.9539,5.9167,5.9032,5.9032,5.9032,5.8592,5.778,5.6664,5.5784,5.5006,5.3856,5.3518,5.3518,5.3518,5.3518,5.3518,5.3518,5.3518,5.3518,5.3518,5.3213,5.2909,5.2909,5.2334,5.1792,5.1792,5.0879,4.9898,4.9187,4.8443,4.777,4.7428,4.6752,4.6007,4.5263,4.4519,4.3741,4.2963,4.1914,4.1102,4.0696,4.035,4.0113,4.0113,4.0113,4.0113,4.0113,3.9022,3.8525,3.8881,3.7469,3.6844,3.7203,3.6477,3.607,3.607,3.6038,3.6038,3.6038,3.6415,3.6839,8.5792,8.6868,8.5931,8.0479,7.6598,7.1494,6.1362,5.6971,5.3341,4.7442,4.6565,4.6786,4.6734,4.8128,5.0438,5.398,5.4736,5.7625,6.5541,6.5873,6.7354,7.2834,7.3612,7.395,7.4559,7.3274,7.2394,7.2394,7.1718,7.1312,7.1312,7.1312,7.1312,7.1312,7.1312,7.1312,7.1312,6.9857,6.9113,6.9079,6.6948,6.5831,6.5662,6.5087,6.4343,6.3531,6.3531,6.2753,6.1535,6.1366,6.0926,6.0351,6.0182,6.0114,6.008,5.9911,5.9505,5.8795,5.7306,5.6427,5.5716,5.4228,5.3619,5.3518,5.3518,5.3518,5.3518,5.3518,5.3518,5.3518,5.3518,5.3518,5.3518,5.3518,5.301,5.2503,5.2334,5.1386,5.0473,5.0135,4.9154,4.8342,4.8173,4.753,4.6853,4.6278,4.5534,4.479,4.3984,4.3234,4.2489,4.1745,4.0865,4.035,4.035,4.018,4.0113,4.0113,3.9342,3.8962,3.9156,3.8274,3.7879,3.8019,3.7263,3.6843,3.6843,3.629,3.6005,3.6005,3.6005,3.6631,8.7061,8.8335,8.6893,8.1906,7.7412,7.1566,6.1501,5.6374,5.2219,4.6779,4.5988,4.621,4.5959,4.6965,4.9034,5.2601,5.4252,5.7632,6.5026,6.693,6.9079,7.3003,7.4086,7.4525,7.4593,7.3274,7.2394,7.2394,7.1718,7.1312,7.1312,7.1312,7.1312,7.1312,7.1312,7.1312,7.1312,6.9857,6.9113,6.9079,6.7489,6.6339,6.5696,6.5628,6.4816,6.3531,6.3531,6.3057,6.2245,6.1569,6.1264,6.1129,6.0385,6.0114,6.0013,5.937,5.9066,5.8795,5.7306,5.6765,5.6461,5.4972,5.4059,5.3518,5.3518,5.3518,5.3518,5.3518,5.3518,5.3518,5.3518,5.3518,5.3518,5.3518,5.345,5.3179,5.2469,5.2198,5.1691,5.0338,4.9965,4.9695,4.9018,4.8308,4.78,4.7703,4.7056,4.6312,4.5602,4.4823,4.4079,4.3274,4.1948,4.1102,4.1102,4.0493,4.0113,4.0113,3.9342,3.9236,3.9952,3.8585,3.8104,3.8799,3.8076,3.7706,3.7706,3.7618,3.7589,3.7589,3.7589,3.7677,8.3993,8.6064,8.5543,8.2006,7.5825,6.8787,6.1771,5.532,5.0023,4.7173,4.6611,4.6495,4.6228,4.7143,4.8439,4.9902,5.0347,5.2682,5.8942,5.9922,6.2736,6.9958,7.1481,7.3003,7.5709,7.4221,7.2699,7.1819,7.1481,7.1312,7.1312,7.1312,7.1312,7.1312,7.1312,7.1312,7.1312,7.0297,6.9553,6.9079,6.7996,6.7083,6.6373,6.6373,6.5561,6.4174,6.4174,6.3734,6.3024,6.2279,6.2212,6.255,6.1772,6.1467,6.14,6.0655,6.008,5.9471,5.7949,5.7171,5.663,5.5615,5.5074,5.4668,5.3788,5.3518,5.3518,5.3518,5.3518,5.3518,5.3518,5.3518,5.3518,5.3518,5.3518,5.3416,5.3078,5.2638,5.2131,5.1522,5.071,4.9999,4.9695,4.9052,4.8409,4.7973,4.7665,4.7192,4.6447,4.5703,4.5128,4.4823,4.3031,4.1677,4.1238,4.0933,4.0561,4.0146,3.9825,3.9765,4.0087,3.9506,3.9315,3.961,3.8887,3.8469,3.8469,3.8023,3.7793,3.7793,3.7793,3.8019,7.9436,8.254,8.3379,8.0893,7.3989,6.652,6.1559,5.4652,4.8948,4.7599,4.703,4.6708,4.6471,4.714,4.7746,4.7706,4.7912,4.9808,5.4737,5.5754,5.894,6.6812,6.8562,7.0726,7.4864,7.4187,7.2969,7.1718,7.1447,7.1312,7.1312,7.1312,7.1312,7.1312,7.1312,7.1312,7.1312,7.0567,6.9925,6.9417,6.8402,6.7624,6.7117,6.6914,6.6136,6.4918,6.4918,6.4512,6.3802,6.326,6.3226,6.3463,6.2922,6.2448,6.1975,6.1231,6.0588,5.9877,5.8389,5.7712,5.7306,5.6359,5.6055,5.5818,5.4532,5.3991,5.3822,5.3822,5.3687,5.3518,5.3518,5.3518,5.3518,5.3518,5.3518,5.3518,5.3518,5.3044,5.257,5.2367,5.1454,5.0608,5.0168,4.9661,4.9086,4.8342,4.824,4.797,4.7225,4.6684,4.6278,4.6041,4.4384,4.2895,4.1948,4.1474,4.0967,4.0485,4.0214,4.0113,4.0113,4.0113,4.0113,4.0113,3.9558,3.9262,3.9262,3.8718,3.8502,3.8502,3.8502,3.8778,7.3721,7.8206,8.0499,7.8292,7.2263,6.5649,6.0719,5.465,4.9539,4.7687,4.703,4.6708,4.6471,4.6745,4.6855,4.6391,4.8088,5.0711,5.4296,5.7175,6.0385,6.4208,6.5766,6.7815,7.103,7.2665,7.3172,7.2428,7.1718,7.1312,7.1312,7.1312,7.1312,7.1312,7.1312,7.1312,7.1312,7.0567,7.0195,7.0161,6.8639,6.7895,6.7861,6.7151,6.6406,6.5662,6.5662,6.5256,6.458,6.458,6.414,6.3531,6.3497,6.2618,6.1231,6.0419,6.0114,5.9877,5.8389,5.8355,5.8761,5.7273,5.6799,5.6664,5.5919,5.5175,5.4566,5.4566,5.4059,5.3518,5.3518,5.3518,5.3518,5.3518,5.3518,5.3518,5.3518,5.3484,5.3247,5.2469,5.23,5.1792,5.0338,5.0067,4.983,4.9086,4.8984,4.8714,4.7973,4.7872,4.7597,4.6853,4.6109,4.506,4.3511,4.2049,4.1204,4.1204,4.0493,4.0113,4.0113,4.0113,4.0113,4.0113,4.0113,4.0087,4.0087,4.0087,4.0087,4.0087,4.0087,4.0087,6.492,6.8701,7.077,6.9153,6.4541,5.9682,5.6995,5.2291,4.8272,4.758,4.7276,4.7053,4.6731,4.6949,4.737,4.7879,4.8884,5.0427,5.277,5.5686,5.9753,6.5425,7.0996,7.4377,7.4322,7.4289,7.395,7.3206,7.2462,7.2056,7.2056,7.1582,7.1312,7.1312,7.1312,7.1312,7.1312,7.1075,7.0703,7.0161,6.918,6.8436,6.7861,6.7151,6.6406,6.5696,6.5696,6.5561,6.529,6.4816,6.4478,6.4208,6.37,6.2922,6.1941,6.1197,6.0926,6.0757,5.9742,5.9573,5.9674,5.9201,5.8727,5.8254,5.8051,5.6393,5.4465,5.3991,5.3687,5.3518,5.3518,5.3518,5.3518,5.3518,5.3518,5.3518,5.3518,5.3518,5.3416,5.3179,5.2672,5.2164,5.1691,5.1183,5.0777,5.0541,5.0067,4.9661,4.9424,4.8545,4.7804,4.7597,4.6887,4.5838,4.435,4.3301,4.2286,4.1271,4.0967,4.0629,4.0113,4.0113,4.0113,4.0113,4.0113,4.0113,4.0113,4.0113,4.0113,4.0113,4.0113,4.0113,5.7009,6.1091,6.3631,6.3339,5.9615,5.5753,5.4676,5.0967,4.7657,4.7551,4.7385,4.7209,4.6847,4.6859,4.7114,4.781,4.869,4.9937,5.1751,5.5382,6.0163,6.639,7.2281,7.5506,7.4431,7.4512,7.4424,7.395,7.2969,7.2394,7.2394,7.1718,7.1312,7.1312,7.1312,7.1312,7.1312,7.1312,7.0939,7.0195,6.9451,6.8673,6.7861,6.7151,6.6542,6.6102,6.6102,6.6102,0.0,6.5324,6.485,6.4546,6.3802,6.2888,6.1907,6.1467,6.1298,6.1197,6.0385,6.0317,6.0486,6.0216,5.9607,5.893,5.8355,5.69,5.5277,5.4532,5.4126,5.3923,5.3923,5.3721,5.3518,5.3518,5.3518,5.3518,5.3518,5.3518,5.3518,5.3518,5.3112,5.2672,5.2367,5.1928,5.1522,5.1251,5.0811,5.0405,5.0135,4.9289,4.8612,4.8342,4.7665,4.6718,4.5529,4.4451,4.3335,4.2117,4.1779,4.1271,4.0553,4.0519,4.0383,4.0113,4.0113,4.0113,4.0113,4.0113,4.0113,4.0113,4.0113,4.0113,0.0,5.4788,5.813,5.9496,5.6515,5.3238,5.3228,5.0343,0.0,4.7472,4.7363,4.7223,4.6989,4.6552,4.6405,4.6959,4.8023,4.9492,5.1437,5.6504,6.199,6.741,7.0873,7.2708,7.2288,7.3823,7.4728,7.4627,7.3274,7.2462,7.2394,7.1718,7.1312,7.1312,7.1312,7.1312,7.1312,7.1278,7.0906,7.0263,6.9417,6.8639,6.7963,6.7184,6.6812,6.6812,6.6812,6.6812,6.6745,6.6,6.5256,6.4546,6.3802,6.2651,6.14,6.1434,6.1434,6.1298,6.0588,6.0791,6.1231,6.0385,5.9607,5.8727,5.7306,5.6833,5.6664,5.5919,5.5209,5.4668,5.46,5.4093,5.3585,5.3518,5.3518,5.3518,5.3518,5.3518,5.3518,5.3518,5.3518,5.3281,5.2503,5.2401,5.2164,5.1488,5.1319,5.1048,5.0338,5.0135,4.983,4.9154,4.8443,4.7699,4.6921,4.5529,4.4316,4.3443,4.276,4.2049,4.1305,4.1271,4.0967,4.0282,4.0214,4.018,4.018,4.0146,4.0113,4.0113,4.0113,4.0113,4.265,0.0,4.7593,4.8282,4.8115,4.8003,0.0,4.8025,4.7341,4.7178,4.7111,4.7354,4.8256,4.7467,4.7474,4.979,5.0536,5.1539,5.3584,6.1341,6.8141,7.1706,7.529,7.6574,7.4229,7.5425,7.5879,7.4695,7.3747,7.3003,7.2428,7.1718,7.1312,7.1312,7.1312,7.1312,7.1312,7.0737,7.0635,7.1041,6.9113,6.8402,6.8774,6.7421,6.6812,6.6812,6.6812,6.6812,6.6745,6.6,6.5256,6.4546,6.3802,6.2956,6.2212,6.2787,6.2618,6.2178,6.2584,6.2448,6.1907,6.0554,5.9607,5.8829,5.7915,5.7239,5.6664,5.5919,5.5581,5.531,5.4735,5.4465,5.4194,5.3619,5.3518,5.3518,5.3518,5.3518,5.3518,5.3518,5.3518,5.345,5.3247,5.3213,5.3179,5.301,5.2435,5.1995,5.1792,5.0777,5.0033,4.9864,4.9187,4.8443,4.7699,4.6312,4.4857,4.3477,4.324,4.2828,4.2049,4.2049,4.1948,4.1779,4.1238,4.0933,4.0933,4.0383,4.0113,4.0113,4.0113,4.0113,4.0342,4.1704,4.3156,4.4271,4.5293,4.6189,4.6932,4.7187,4.7254,4.7133,4.7043,4.7285,4.8172,4.7567,4.7819,5.0737,5.1398,5.3307,5.8273,6.4307,6.9863,7.4204,7.6191,7.6922,7.6217,7.6284,7.5879,7.4695,7.3916,7.3172,7.2428,7.1718,7.1312,7.1312,7.1312,7.1312,7.1312,7.0567,7.0229,7.0263,6.8673,6.7963,6.803,6.7184,6.6812,6.6812,6.6812,6.6812,6.6745,6.5628,6.4952,6.4478,6.3429,6.2956,6.2922,6.2956,6.2956,6.2922,6.299,6.2516,6.1637,6.0114,5.9336,5.8863,5.8118,5.7611,5.7205,5.6833,5.6461,5.6055,5.531,5.4837,5.4397,5.3687,5.3518,5.3518,5.3518,5.3518,5.3518,5.3518,5.3518,5.3518,5.3518,5.3518,5.3518,5.3518,5.3145,5.2706,5.2367,5.1589,5.0845,5.0168,4.9729,4.9086,4.7973,4.7162,4.621,4.5026,4.4654,4.4113,4.3369,4.2997,4.2658,4.2286,4.1914,4.1711,4.1711,4.1305,4.1128,4.1128,4.1128,4.1128,4.0794,4.1887,4.3129,4.4228,4.5334,4.6266,4.6796,4.7182,4.7366,4.7312,4.7377,4.7642,4.8215,4.8085,4.8744,5.144,5.2526,5.5894,6.4045,6.6814,7.0027,7.5429,7.579,7.6116,7.7382,7.6487,7.5473,7.4525,7.3849,7.3105,7.2293,7.165,7.1312,7.1312,7.1312,7.1312,7.1312,7.0567,6.9891,6.9248,6.8335,6.7557,6.6981,6.688,6.6812,6.6812,6.6812,6.6745,6.6542,6.5155,6.4613,6.4478,6.3091,6.3024,6.3599,6.2956,6.3057,6.3396,6.2651,6.1907,6.1095,5.9776,5.9268,5.9032,5.8287,5.8051,5.8017,5.7915,5.7442,5.6799,5.6089,5.5412,5.4735,5.4025,5.3754,5.3687,5.3687,5.3585,5.3518,5.3518,5.3518,5.3518,5.3518,5.3518,5.3518,5.3518,5.3518,5.3247,5.257,5.2367,5.1826,5.0574,5.0236,4.9593,4.8342,4.8108,4.78,4.7158,4.6346,4.5534,4.4818,4.4113,4.3403,4.2658,4.2523,4.2455,4.2455,4.2354,4.2286,4.2286,4.2286,4.2286,4.2159,4.5287,4.7497,4.5165,4.5624,4.6659,4.6649,4.7287,4.7856,4.7737,4.8753,4.9912,5.0932,5.1749,5.2843,5.4473,5.7261,6.1737,6.9132,7.0984,7.2643,7.5419,7.7348,7.7619,7.5337,7.6082,7.5879,7.3815,7.3544,7.2902,7.1548,7.1379,7.1312,7.1312,7.1312,7.1312,7.1312,7.0567,7.0128,6.9992,6.8571,6.7827,6.7726,6.7083,6.6812,6.6812,6.6812,6.644,6.5797,6.4952,6.4613,6.4512,6.3666,6.3802,6.441,6.4309,6.3937,6.3396,6.2651,6.1907,6.1264,6.1028,6.0486,5.981,5.9066,5.8829,5.8693,5.8084,5.7814,5.7543,5.6833,5.6562,5.6292,5.5547,5.4905,5.4431,5.4431,5.3923,5.3518,5.3518,5.3518,5.3518,5.3518,5.3518,5.3518,5.3518,5.3518,5.345,5.3348,5.2739,5.2198,5.1995,5.0845,4.9999,4.9763,4.9187,4.8781,4.868,4.7394,4.6278,4.5568,4.5399,4.4993,4.4276,4.3572,4.3234,4.3234,4.2591,4.2286,4.2286,4.2286,4.2286,4.2192,4.5416,4.8363,4.8265,4.9726,5.0807,4.9351,4.9744,5.0354,5.0066,5.0834,5.1688,5.2101,5.3783,5.6264,5.9779,6.3057,6.6641,7.088,7.2101,7.3559,7.6205,7.6747,7.6767,7.6454,7.598,7.5067,7.3612,7.3105,7.2428,7.1379,7.1312,7.1312,7.1312,7.1312,7.1312,7.1312,7.0567,6.9992,6.9586,6.8436,6.7692,6.7286,6.6948,6.6812,6.6812,6.6812,6.6609,6.6237,6.5493,6.5189,6.5121,6.4377,6.4546,6.5155,6.4749,6.3869,6.2787,6.2076,6.1569,6.1231,6.0791,6.0419,5.9945,5.9235,5.9032,5.8863,5.8084,5.7881,5.7712,5.7002,5.6799,5.663,5.5886,5.5446,5.5108,5.4668,5.4634,5.4465,5.3653,5.3822,5.3957,5.3585,5.3518,5.3518,5.3518,5.3518,5.3518,5.3518,5.3179,5.2773,5.2367,5.1691,5.1116,5.0744,5.0033,4.9255,4.8477,4.7767,4.7056,4.6312,4.5906,4.5534,4.5196,4.4451,4.4045,4.4045,4.3707,4.3565,4.3565,4.3565,4.3565,4.2699,4.5746,4.9053,5.0911,5.2612,5.3725,5.3195,5.3255,5.3701,5.4392,5.503,5.5365,5.4911,5.6938,6.022,6.4998,6.803,7.0565,7.2802,7.3447,7.4725,7.7542,7.6591,7.6306,7.7856,7.5946,7.4289,7.3544,7.28,7.209,7.1345,7.1312,7.1312,7.1312,7.1312,7.1312,7.1312,7.0567,6.9823,6.9079,6.8267,6.7523,6.6812,6.6812,6.6812,6.6812,6.6812,6.6711,6.6508,6.5933,6.5696,6.5628,6.4884,6.485,6.5121,6.4546,6.3531,6.2313,6.1738,6.1569,6.1467,6.0825,6.0622,6.0486,5.9776,5.9539,5.9404,5.8626,5.8423,5.8186,5.7273,5.707,5.6934,5.6359,5.6089,5.5818,5.5243,5.5412,5.5378,5.4228,5.4465,5.4668,5.4126,5.4025,5.3957,5.3788,5.3754,5.3687,5.3518,5.3518,5.3281,5.2638,5.2401,5.1995,5.1285,5.0676,4.9796,4.8511,4.8274,4.7834,4.709,4.6515,4.6075,4.5703,4.5297,4.5055,4.4886,4.4886,4.4886,4.4852,4.4682,4.4615,4.4876,4.8324,5.1362,5.1544,5.1197,5.2229,5.7608,5.7529,5.7539,6.1561,6.2972,6.3034,6.167,6.3081,6.5514,6.8727,7.0698,7.3127,7.7033,7.7009,7.745,7.9718,7.8702,7.7856,7.7976,7.5946,7.4289,7.3544,7.28,7.209,7.1345,7.1312,7.1312,7.1312,7.1312,7.1312,7.1312,7.0567,6.9823,6.9079,6.8267,6.7523,6.6812,6.6812,6.6812,6.6812,6.6812,6.6406,6.5764,6.5696,6.5696,6.5628,6.4884,6.4208,6.3666,6.3599,6.3091,6.2381,6.2347,6.2313,6.2313,6.2245,6.2212,6.2076,6.1366,6.1129,6.096,6.0182,5.9945,5.9607,5.8186,5.7814,5.7814,5.7746,5.7205,5.6697,5.6664,5.6156,5.5683,5.5546,5.5546,5.5615,5.5581,5.5512,5.531,5.46,5.4499,5.4262,5.3585,5.3518,5.3484,5.3416,5.2739,5.1995,5.1285,5.1151,5.0777,4.9965,4.9289,4.8612,4.7838,4.777,4.7094,4.5737,4.6312,4.6278,4.5635,4.5635,4.5635,4.5602,4.4919,4.4615,4.4582,4.87,5.2696,5.3719,5.4943,5.6757,5.9994,6.1319,6.2558,6.4809,6.7244,6.8692,6.7777,6.8218,6.973,7.2786,7.4766,7.6765,7.9053,7.872,7.8585,7.9431,7.8213,7.7096,7.6623,7.4965,7.3612,7.2868,7.2124,7.1616,7.1312,7.1312,7.1312,7.1312,7.0872,7.0601,7.0601,6.9383,6.8639,6.8335,6.803,6.7523,6.6812,6.6812,6.6812,6.6812,6.6812,6.6643,6.6373,6.6373,6.6373,6.6373,6.6102,6.5256,6.4241,6.4681,6.4106,6.3091,6.3091,6.3091,6.3024,6.255,6.2381,6.2245,6.1535,6.1298,6.1129,6.0317,6.0114,5.9877,5.8863,5.8592,5.8457,5.8017,5.7679,5.734,5.69,5.6934,5.6799,5.5886,5.6089,5.6258,5.5784,5.5681,5.5446,5.4702,5.46,5.4329,5.3585,5.3518,5.3518,5.3518,5.3247,5.2739,5.1961,5.1894,5.1589,5.0845,5.0101,4.9357,4.8612,4.8142,4.7635,4.709,4.6887,4.665,4.638,4.638,4.638,4.638,4.6075,4.594,4.5039,4.8536,5.2346,5.4787,5.7399,6.0331,6.4035,6.5861,6.7555,7.0472,7.2127,7.2885,7.2466,7.1658,7.1999,7.4748,7.6597,7.8076,7.9309,7.8653,7.8111,7.8382,7.7096,7.5946,7.5405,7.4018,7.2935,7.2428,7.1718,7.1312,7.1312,7.1312,7.121,7.0973,7.0466,7.0094,6.9857,6.8538,6.7895,6.7895,6.7658,6.7286,6.6812,6.6812,6.6812,6.6812,6.6812,6.6677,6.644,6.644,6.6339,6.6136,6.6136,6.5493,6.4647,6.5155,6.4715,6.3835,6.3599,6.3531,6.3396,6.2618,6.2381,6.2313,6.1806,6.1637,6.1535,6.0994,6.0825,6.0655,5.9911,5.9539,5.9167,5.8423,5.8254,5.8051,5.7306,5.7543,5.7577,5.6596,5.6799,5.7002,5.6494,5.6393,5.6156,5.5412,5.5108,5.4668,5.3923,5.3653,5.3518,5.3518,5.3518,5.3281,5.2739,5.2672,5.2367,5.1623,5.1082,5.0338,4.939,4.8646,4.8142,4.7906,4.7631,4.7394,4.7158,4.7158,4.7158,4.7158,4.6921,4.6786,4.6728,4.8088,5.0089,5.4377,5.7619,6.194,7.0404,7.1284,7.2372,7.9563,7.8222,7.5671,7.5471,7.3374,7.23,7.4232,7.54,7.6538,7.7832,7.6705,7.598,7.6792,7.554,7.4593,7.4593,7.3274,7.2394,7.2394,7.1718,7.1312,7.1312,7.1312,7.0973,7.0239,7.0206,6.9823,6.9113,6.8301,6.7895,6.7895,6.7151,6.6812,6.6812,6.6812,6.6812,6.6812,6.6812,6.6373,6.5696,6.5662,6.5256,6.4613,6.4613,6.4613,6.4613,6.4613,6.4613,6.4478,6.3768,6.3531,6.3396,6.2691,6.2454,6.2415,6.2415,6.2415,6.2415,6.2381,6.2381,6.2212,6.1501,6.0723,5.9945,5.9201,5.9032,5.8829,5.8084,5.7915,5.7915,5.7915,5.7915,5.7915,5.7915,5.7915,5.7645,5.69,5.619,5.5446,5.4702,5.3957,5.3518,5.3518,5.3518,5.3518,5.3518,5.3518,5.3179,5.2367,5.23,5.1623,5.0168,4.939,4.868,4.7939,4.8646,4.868,4.7906,4.7906,4.7906,4.7872,4.7158,4.6819,4.777,5.0696,5.4298,5.7167,6.1371,6.6442,7.2599,7.3672,7.5317,8.2121,8.1187,7.9059,7.8989,7.764,7.6557,7.6649,7.698,7.7719,7.9164,7.7906,7.6678,7.6414,7.6114,7.5188,7.3208,7.3293,7.3258,7.2708,7.2467,7.2666,7.3372,7.2848,7.218,7.127,7.0196,6.9206,6.8267,6.7523,6.7151,6.7117,6.6914,6.6812,6.6779,6.6271,6.6305,6.6745,6.5696,6.5425,6.5662,6.5121,6.5087,6.5358,6.5358,6.5053,6.4796,6.6479,6.6135,6.4869,6.5854,6.5426,6.4377,6.4174,6.3679,6.3193,6.3193,6.3193,6.3057,6.255,6.2381,6.2347,6.211,6.1907,6.14,6.008,5.9776,5.9708,5.9471,5.9438,5.9438,5.9438,5.9438,5.9268,5.8761,5.8693,5.8254,5.7002,5.663,5.6224,5.548,5.5209,5.4871,5.4329,5.4262,5.4059,5.3551,5.3518,5.3416,5.3179,5.2604,5.186,5.0913,5.0676,5.0441,5.0204,5.0439,5.0202,4.9458,4.9458,4.9187,4.868,4.8984,4.912,5.0224,5.3463,5.7285,6.0993,6.5532,7.0617,7.638,7.8427,8.0438,8.5052,8.3448,8.119,8.119,7.9125,7.7413,7.7308,7.7283,7.7554,7.8473,7.7409,7.637,7.5882,7.568,7.4967,7.3307,7.3704,7.3862,7.3447,7.3412,7.351,7.381,7.3352,7.2559,7.1385,7.0438,6.9307,6.8022,6.7578,6.7373,6.7373,6.7025,6.709,6.7419,6.6242,6.6147,6.682,6.5714,6.5263,6.5283,6.4532,6.4466,6.4816,6.4816,6.4958,6.5294,6.6742,6.6681,6.5861,6.6215,6.5649,6.4719,6.4033,6.3704,6.3531,6.3531,6.3531,6.3429,6.2956,6.2618,6.2381,6.2381,6.2381,6.2076,6.0858,6.0588,6.0486,6.0182,6.0114,6.0114,6.0114,6.0114,5.9945,5.9505,5.9201,5.8727,5.7814,5.7171,5.6528,5.5818,5.5681,5.5547,5.5074,5.504,5.4735,5.3991,5.3923,5.3822,5.3518,5.3044,5.257,5.2131,5.1555,5.1185,5.1185,5.1185,5.098,5.0541,5.0541,5.0304,4.9898,5.0338,5.0541,5.3497,5.6164,5.9359,6.5553,7.0319,7.4988,8.1016,8.4168,8.6187,8.7582,8.5086,8.2553,8.226,7.8929,7.6397,7.6939,7.6763,7.6547,7.6698,7.6019,7.5519,7.5413,7.4924,7.4498,7.431,7.435,7.4317,7.4317,7.4246,7.3928,7.3292,7.3186,7.2475,7.0984,7.0877,7.0018,6.8343,6.8274,6.8239,6.8239,6.7399,6.7538,6.8328,6.6553,6.6131,6.6812,6.6321,6.5619,6.4764,6.407,6.3799,6.3741,6.3741,6.4629,6.5942,6.6086,6.6635,6.7019,6.5651,6.5084,6.4693,6.3307,6.33,6.3843,6.3843,6.3843,6.3804,6.3656,6.3114,6.2498,6.2522,6.2448,6.2245,6.1637,6.1467,6.1197,6.0452,6.0317,6.0317,6.0317,6.0317,6.0283,6.0216,5.9607,5.9066,5.893,5.778,5.6664,5.6021,5.5919,5.585,5.5818,5.5818,5.5513,5.4769,5.4634,5.4296,5.3653,5.3551,5.3518,5.3518,5.2164,5.1388,5.1388,5.1388,5.1354,5.1319,5.1319,5.1252,5.1185,5.1252,5.1319,5.5206,5.7917,6.1752,6.9933,7.7028,8.2337,8.3765,8.4976,8.571,8.5416,8.571,8.5196,8.2663,8.0923,7.9511,7.8414,7.7434,7.7125,7.8022,7.7261,7.6338,7.5798,7.6273,7.6027,7.446,7.444,7.4542,7.4542,7.3931,7.3874,7.4483,7.3895,7.3066,7.1986,7.1375,7.0509,6.9386,6.8751,6.8434,6.8434,6.7588,6.7341,6.755,6.6497,6.5794,6.5474,6.5891,6.5645,6.4945,6.4769,6.502,6.5549,6.5549,6.5724,6.6213,6.7596,6.745,6.671,6.7597,6.7068,6.6082,6.6179,6.6356,6.6496,6.6496,6.6496,6.6249,6.4964,6.4014,6.3377,6.3289,6.2821,6.2516,6.2922,6.2584,6.211,6.1941,6.1907,6.1907,6.1907,6.1907,6.1704,6.1129,6.0385,5.9471,5.8287,5.7848,5.7611,5.7442,5.7408,5.7205,5.663,5.6562,5.6258,5.5547,5.4938,5.4532,5.4363,5.3822,5.3518,5.3518,5.3179,5.301,5.301,5.301,5.2706,5.2063,5.2063,5.1792,5.1185,5.1792,5.2063,5.6548,6.0213,6.4867,7.4205,8.0612,8.4609,8.4609,8.4903,8.4903,8.3691,8.4132,8.3948,8.1489,8.0388,7.9433,7.8185,7.7482,7.7316,7.7903,7.7482,7.6934,7.6567,7.6988,7.671,7.5316,7.5255,7.5152,7.4752,7.4352,7.4207,7.4301,7.3927,7.331,7.2412,7.1618,7.0744,6.9795,6.8975,6.8618,6.8582,6.7764,6.7454,6.7472,6.6992,6.6368,6.5716,6.6521,6.6387,6.5649,6.5649,6.5607,6.5568,6.5568,6.5868,6.636,6.7266,6.7089,6.6512,6.7312,6.6777,6.576,6.6124,6.6452,6.6806,6.7194,6.73,6.7197,6.6778,6.5787,6.4863,6.5278,6.4453,6.3741,6.4574,6.3902,6.3011,6.3011,6.3011,6.3011,6.3011,6.2697,6.2279,6.1873,6.0858,5.9708,5.8592,5.8118,5.7881,5.7881,5.8244,5.8322,5.7946,5.7911,5.7603,5.685,5.6131,5.5513,5.5141,5.4769,5.4397,5.4025,5.436,5.4223,5.3518,5.3518,5.3281,5.2875,5.2875,5.2672,5.2334,5.2706,5.2875,5.6909,6.251,6.8687,7.7567,8.2003,8.4205,8.4352,8.4168,8.3508,8.1893,8.1782,8.1489,7.9874,7.9029,7.8295,7.742,7.7273,7.7273,7.7273,7.7273,7.7273,7.7273,7.7163,7.6827,7.6166,7.5836,7.5395,7.4735,7.4588,7.4221,7.3523,7.334,7.2973,7.2312,7.1505,7.0712,6.9942,6.9151,6.8723,6.8723,6.7891,6.7586,6.7724,6.76,6.7197,6.6641,6.7405,6.7286,6.6612,6.6612,6.615,6.5454,6.5454,6.5966,6.6612,6.6612,6.6612,6.6618,6.6578,6.6074,6.5458,6.5439,6.5934,6.6708,6.7525,6.7772,6.7917,6.8635,6.7623,6.6459,6.7373,6.6356,6.5264,6.6175,6.5372,6.4252,6.3826,6.3719,6.3647,6.3501,6.3011,6.2625,6.2646,6.1476,6.0276,5.9528,5.877,5.822,5.8084,5.8907,5.9423,5.9145,5.9349,5.9174,5.8245,5.7467,5.6705,5.5953,5.5749,5.5446,5.4803,5.5508,5.5329,5.4125,5.382,5.3752,5.3888,5.3619,5.3518,5.3518,5.3518,5.3518,5.4898,6.4127,7.3744,7.8589,8.1158,8.27,8.3398,8.248,8.1012,7.9396,8.0204,8.0681,7.9066,7.8662,7.8295,7.742,7.7273,7.7273,7.7273,7.7273,7.7273,7.7273,7.668,7.624,7.6093,7.4845,7.3964,7.3854,7.3193,7.2789,7.2679,7.2018,7.1578,7.1468,7.0697,7.0201,7.0079,6.9282,6.8879,6.8843,6.8065,6.7679,6.7687,6.7679,6.7625,6.7515,6.766,6.7633,6.7515,6.7515,6.746,6.7341,6.7341,6.7433,6.7515,6.7515,6.7515,6.7506,6.7372,6.7339,6.7339,6.7192,6.7758,6.8666,6.947,6.9725,6.9756,6.9818,6.8634,6.7554,6.8248,6.7231,6.6209,6.6948,6.7091,6.6475,6.4182,6.3719,6.3498,6.2736,6.3087,6.3583,6.3685,6.2892,6.2018,6.1292,6.0367,5.9573,5.8964,6.0213,6.067,5.9249,6.0428,6.0627,5.9108,5.8283,5.75,5.6699,5.6055,5.5683,5.5581,5.6297,5.6651,5.6452,5.5107,5.4796,5.5484,5.4156,5.3518,5.3518,5.3518,5.3518,5.7028,6.453,7.1505,7.6497,7.8956,8.0388,8.1195,8.0828,7.9984,7.8846,7.8772,7.8736,7.8002,7.7892,7.7781,7.7347,7.7273,7.7127,7.6717,7.6644,7.646,7.6019,7.5652,7.5249,7.4808,7.3707,7.3046,7.3046,7.1872,7.1358,7.1798,7.1064,7.0624,7.0624,6.9853,6.9449,6.9449,6.8641,6.8238,6.8201,6.7871,6.7687,6.7687,6.7687,6.7687,6.7687,6.7687,6.7687,6.7687,6.7687,6.7687,6.7687,6.7687,6.7687,6.7687,6.7687,6.7405,6.704,6.7453,6.7316,6.704,6.749,6.8182,6.9045,6.9853,7.0403,7.0832,7.1281,7.0168,6.9178,7.0459,6.9173,6.7948,6.9214,6.9249,6.842,6.6346,6.5518,6.4935,6.4042,6.4148,6.4458,6.4541,6.3853,6.3231,6.288,6.2123,6.1501,6.1188,6.2164,6.2639,6.1929,6.2515,6.2287,6.0663,6.018,5.9474,5.8153,5.8249,5.7936,5.702,5.8215,5.8668,5.8277,5.7188,5.6558,5.6437,5.5327,5.4767,5.4735,5.389,5.3721,5.7845,6.2781,6.7006,7.2826,7.5506,7.7157,7.8772,7.8993,7.8736,7.8369,7.7781,7.7273,7.7273,7.7273,7.7237,7.7017,7.7011,7.6717,7.5909,7.5799,7.5579,7.4992,7.4551,7.4037,7.345,7.2679,7.2202,7.2202,7.1101,7.066,7.1256,7.033,6.9816,6.9816,6.9009,6.8605,6.8605,6.7981,6.7687,6.7687,6.7687,6.7687,6.7687,6.7687,6.7687,6.7687,6.7687,6.7687,6.7687,6.7687,6.7687,6.7687,6.7687,6.7687,6.7687,6.7687,6.7286,6.6823,6.7488,6.7258,6.6852,6.7488,6.8091,6.8788,6.9779,7.0513,7.1211,7.2239,7.1398,7.0593,7.2131,7.096,6.9685,7.0995,7.0844,6.9876,6.8024,6.6757,6.5904,6.5458,6.5536,6.5672,6.5649,6.5233,6.4753,6.4575,6.3847,6.329,6.3112,6.3974,6.4448,6.4015,6.4367,6.3978,6.2353,6.222,6.1565,6.0135,6.065,6.0396,5.8985,6.0279,6.0668,5.9905,5.9538,5.885,5.7798,5.6877,5.6371,5.6268,5.4973,5.4668,5.4644,5.7898,6.1347,6.7677,7.0513,7.2687,7.654,7.6864,7.6497,7.72,7.731,7.7273,7.7273,7.7273,7.7053,7.6276,7.6166,7.5873,7.5102,7.4955,7.4955,7.4918,7.356,7.2606,7.2569,7.1835,7.1329,7.1329,7.1256,7.1284,7.1293,6.9816,6.8972,6.8972,6.8164,6.776,6.776,6.7724,6.7687,6.7687,6.7687,6.7687,6.7687,6.7687,6.7687,6.7687,6.7687,6.7687,6.7687,6.7687,6.7687,6.7687,6.7687,6.7687,6.7687,6.7687,6.7687,6.766,6.7687,6.7687,6.766,6.7687,6.7724,6.8054,6.9596,7.011,7.0477,7.2055,7.188,7.1411,7.2283,7.1843,7.1191,7.1293,7.1256,7.0572,6.8132,6.6284,6.5329,6.6156,6.6951,6.7481,6.7543,6.7491,6.7167,6.638,6.5479,6.4643,6.3934,6.5269,6.5682,6.4159,6.5423,6.5715,6.4043,6.3885,6.349,6.2651,6.262,6.2301,6.1459,6.2247,6.2326,6.1476,6.2188,6.1824,6.0322,5.8795,5.806,5.8036,5.7137,5.6722,5.342,5.6049,5.9039,6.3922,6.6675,6.8862,7.1358,7.3266,7.4625,7.4918,7.5799,7.6533,7.6533,7.6974,7.7017,7.624,7.6093,7.5652,7.4331,7.3707,7.3377,7.3377,7.1945,7.1358,7.2386,7.1321,7.0734,7.1284,7.0367,6.9779,6.9779,6.8715,6.8128,6.8128,6.7834,6.7687,6.7687,6.7687,6.743,6.6953,6.743,6.743,6.6953,6.7467,6.7687,6.7687,6.7687,6.7687,6.7687,6.7687,6.7687,6.7687,6.7687,6.7687,6.7687,6.7687,6.7687,6.7687,6.7687,6.7687,6.7687,6.7687,6.8385,6.9339,6.9926,7.0807,7.1762,7.2349,7.1945,7.1505,7.2312,7.1908,7.1431,7.1945,7.1688,7.1052,7.0172,6.827,6.699,6.783,6.8252,6.8593,6.9165,6.8787,6.8325,6.8069,6.7295,6.6649,6.6359,6.6842,6.7011,6.6455,6.6929,6.6573,6.4896,6.5266,6.4992,6.3663,6.4108,6.4021,6.3167,6.3964,6.4021,6.3148,6.346,6.284,6.1198,6.0156,5.9645,5.9577,5.8315,5.7982,5.184,5.3645,5.6071,6.0351,6.2757,6.4912,6.7834,7.0367,7.2312,7.312,7.4368,7.5285,7.5285,7.5726,7.5946,7.5395,7.5065,7.4515,7.345,7.2606,7.2092,7.2092,7.0917,7.0513,7.1578,7.0477,7.0036,7.0844,6.9669,6.8898,6.8898,6.8128,6.7687,6.7687,6.7687,6.7687,6.7687,6.7687,6.743,6.6916,6.743,6.7393,6.6916,6.7467,6.7687,6.7687,6.7687,6.7687,6.7687,6.7687,6.7687,6.7687,6.7687,6.7687,6.7687,6.7687,6.7687,6.7687,6.7687,6.7687,6.7687,6.7687,6.8605,6.9743,7.0,7.1027,7.2165,7.2422,7.2129,7.1835,7.2349,7.2092,7.1835,7.2386,7.1908,7.1293,7.1293,6.9816,6.8641,6.9192,6.9522,6.9779,7.0036,6.9889,6.9633,6.9339,6.8605,6.8091,6.8091,6.7871,6.7687,6.7687,6.7687,6.7268,6.6139,6.6564,6.6435,6.5311,6.5796,6.5713,6.4847,6.5394,6.5311,6.4419,6.4479,6.3931,6.2858,6.1768,6.1236,6.1171,5.9931,5.9484,0.0,0.0,0.0,5.6934,5.8708,6.0746,6.6198,6.8091,6.9376,7.1835,7.2973,7.3523,7.3597,7.3634,7.3597,7.3597,7.2973,7.2459,7.2459,7.1762,7.1219,7.1293,7.055,7.0036,7.011,6.9376,6.9229,7.0,6.9339,6.8898,6.8862,6.8128,6.7687,6.7687,6.7687,6.7687,6.7687,6.7687,6.7687,6.765,6.7687,6.7687,6.765,6.7687,6.7687,6.7687,6.7687,6.7687,6.7687,6.7687,6.7687,6.7687,6.7687,6.7687,6.7724,6.7714,6.7724,6.7724,6.7714,6.7687,6.7687,6.7687,6.8238,6.9082,6.9853,7.0697,7.1476,7.2275,7.2496,7.2496,7.2496,7.2496,7.2496,7.2496,7.1908,7.1329,7.1329,7.0734,7.0146,7.0146,7.077,7.1064,7.0293,7.0807,7.1027,7.0257,6.9449,6.8935,6.8898,6.8201,6.7724,6.7687,6.7687,6.7687,6.7687,6.7687,6.7687,6.7687,6.7687,6.7357,6.6549,6.6549,6.6182,6.5411,6.5375,6.5338,6.5338,6.3661,6.2853,6.2817,6.1996,6.12,5.112,0.0,0.0,0.0,0.0,0.0,6.0341,6.2292,6.4494,6.754,6.8788,6.9889,7.1651,7.1982,7.1762,7.1174,7.1394,7.1651,7.1651,7.044,7.0,7.1146,6.9559,6.8825,7.0,6.9376,6.9009,6.9229,6.9045,6.8641,6.8054,6.7797,6.7687,6.7687,6.7687,6.7687,6.7687,6.7687,6.7393,6.6843,6.7393,6.7393,6.6843,6.743,6.7687,6.7687,6.7687,6.7687,6.7687,6.7687,6.7687,6.7687,6.7687,6.8054,6.8495,6.7907,6.8054,6.8495,6.7907,6.7687,6.7687,6.7687,6.8641,6.9816,7.0036,7.1064,7.2202,7.2459,7.2496,7.2496,7.2496,7.2496,7.2496,7.2496,7.2349,7.2165,7.2165,7.1982,7.1651,7.1101,7.1174,7.1431,7.1762,7.1541,7.1219,7.1027,7.0293,6.9559,6.8972,6.8715,6.8348,6.776,6.7687,6.7687,6.7687,6.7687,6.7687,6.7687,6.7687,6.7577,6.7357,6.7357,6.7247,6.7026,6.6476,6.6182,6.6182,6.5118,6.431,6.3723,6.2859,6.235,0.0,0.0,0.0,5.3918,0.0,0.0,5.6949,5.8221,5.9806,6.1998,6.3356,6.4787,6.688,6.754,6.7724,6.7614,6.8274,6.9265,7.0624,7.0,6.9633,7.0257,6.9045,6.8568,6.9522,6.8862,6.8531,6.8862,6.8605,6.8201,6.7724,6.7687,6.7687,6.7687,6.7687,6.7687,6.7687,6.7687,6.7467,6.699,6.7467,6.743,6.7026,6.7467,6.7687,6.7687,6.7687,6.7687,6.7687,6.7687,6.7687,6.7687,6.7687,6.7981,6.8385,6.8238,6.8495,6.8898,6.8752,6.8678,6.8678,6.8678,6.9559,7.0587,7.0587,7.1505,7.2496,7.2496,7.2496,7.2496,7.2496,7.2496,7.2496,7.2496,7.2496,7.2496,7.2496,7.2496,7.2349,7.1908,7.1798,7.1945,7.2422,7.2129,7.1798,7.1798,7.1138,7.044,6.9963,6.9339,6.8715,6.8238,6.7907,6.7687,6.7687,6.7687,6.7687,6.7687,6.7687,6.7687,6.7687,6.7687,6.7687,6.7687,6.7247,6.699,6.699,6.5852,6.4897,6.409,6.3576,6.3172,0.0,0.0,0.0,0.0,5.4422,0.0,5.5318,5.5549,5.58,5.6646,5.7836,5.9231,6.1055,6.1949,6.2646,6.3332,6.4409,6.6256,6.9376,6.9889,6.9706,6.9009,6.8898,6.8862,6.8788,6.8128,6.7981,6.8715,6.8091,6.7687,6.7687,6.7687,6.7687,6.7687,6.7687,6.7687,6.7687,6.7687,6.7687,6.7687,6.7687,6.7687,6.7687,6.7687,6.7687,6.7687,6.7687,6.7687,6.7687,6.7687,6.7687,6.7687,6.7687,6.7797,6.8017,6.8678,6.9009,6.9265,6.9889,7.011,7.011,7.011,7.066,7.1293,7.1293,7.1872,7.2496,7.2496,7.2496,7.2496,7.2496,7.2496,7.2496,7.2496,7.2496,7.2496,7.2496,7.2496,7.2496,7.2496,7.2496,7.2496,7.2496,7.2496,7.2496,7.2496,7.1908,7.1431,7.1293,7.0073,6.9155,6.9045,6.8311,6.7871,6.7944,6.7797,6.7724,6.7834,6.7724,6.7687,6.7687,6.7687,6.7687,6.7687,6.7687,6.7687,6.7687,6.6182,6.5081,6.4347,6.4273,6.3833,0.0,0.0,0.0,0.0,5.483,0.0,5.4283,5.3981,5.4548,5.6608,5.6276,5.6476,5.9388,6.0029,5.9992,5.9513,6.2229,6.5294,6.7824,6.8715,6.9082,6.8935,6.8898,6.8641,6.7981,6.7797,6.776,6.7907,6.7797,6.7687,6.7687,6.7687,6.7687,6.7687,6.7687,6.7687,6.7687,6.7687,6.7687,6.7687,6.7687,6.7687,6.7687,6.7687,6.7687,6.7687,6.7687,6.7687,6.7687,6.7687,6.7687,6.7687,6.7687,6.8495,6.9559,6.9082,6.9743,7.077,7.0257,7.011,7.011,7.011,7.066,7.1293,7.1293,7.1872,7.2496,7.2496,7.2496,7.2496,7.2496,7.2496,7.2496,7.2496,7.2496,7.2496,7.2496,7.2496,7.2496,7.2496,7.2496,7.2496,7.2496,7.2496,7.2496,7.2496,7.2386,7.2055,7.1366,7.0999,7.0587,6.9926,6.9155,6.8935,6.9559,6.8421,6.7981,6.8641,6.8054,6.7687,6.7687,6.7687,6.7687,6.7687,6.7687,6.7687,6.7687,6.6733,6.6182,6.5999,6.5375,6.4971,0.0,0.0,0.0,5.5096,5.48,0.0,0.0,5.2197,5.1658,5.2671,5.2284,5.2655,5.5381,5.5913,5.6172,5.6983,5.9034,6.1248,6.3309,6.5967,6.754,6.7173,6.71,6.71,6.71,6.71,6.7247,6.765,6.7687,6.7687,6.7687,6.732,6.7283,6.7687,6.7283,6.7283,6.7687,6.7687,6.7687,6.7687,6.7687,6.7687,6.7687,6.7687,6.7687,6.7687,6.7687,6.7687,6.7687,6.7687,6.7687,6.7687,6.7687,6.8164,6.8935,6.9339,7.0,7.077,7.1174,7.1284,7.1284,7.1284,7.1578,7.1908,7.1908,7.2202,7.2496,7.2496,7.2496,7.2496,7.2496,7.2496,7.2496,7.2496,7.2496,7.2496,7.2496,7.2496,7.2606,7.301,7.2789,7.2496,7.2496,7.2496,7.2496,7.2496,7.2496,7.2349,7.1945,7.1578,7.1174,7.0734,7.0,6.9669,7.0073,6.9339,6.9082,6.9486,6.9119,6.8898,6.8898,6.8898,6.8898,6.8898,6.8495,6.8311,6.8311,6.7504,6.688,6.6476,6.6109,6.5705,0.0,0.0,0.0,0.0,0.0,5.4074,0.0,0.0,0.0,4.9046,4.8896,4.9506,5.1508,5.1858,5.2412,5.4038,5.5412,5.6624,5.7743,6.1713,6.4508,6.4629,6.4751,6.5154,6.5962,6.5862,6.6303,6.7577,6.7247,6.722,6.7907,6.7173,6.7026,6.7677,6.7063,6.7026,6.7687,6.7687,6.776,6.7907,6.776,6.776,6.7907,6.776,6.7687,6.7687,6.7687,6.7687,6.7687,6.7687,6.7687,6.7724,6.7871,6.7907,6.8128,6.9743,7.033,7.055,7.2018,7.2496,7.2496,7.2496,7.2496,7.2496,7.2496,7.2496,7.2496,7.2496,7.2496,7.2532,7.2679,7.2606,7.2569,7.2899,7.2826,7.2716,7.2716,7.2716,7.2899,7.3377,7.3083,7.2716,7.2716,7.2606,7.2496,7.2496,7.2496,7.2496,7.2496,7.1945,7.1513,7.1513,7.0807,7.0403,7.055,7.0293,7.0183,7.033,7.0183,7.011,7.011,7.011,7.011,7.011,6.9449,6.9045,6.8898,6.8238,6.7504,6.6733,6.6733,6.6366,0.0,0.0,0.0,0.0,5.9313,5.8347,5.5372,0.0,5.1787,5.0247,0.0,4.9207,5.0155,0.0,0.0,4.8818,5.1658,5.3543,5.2342,5.4995,5.8371,6.1776,6.2708,6.3429,6.4273,6.361,6.4391,6.7467,6.5626,6.5637,6.8605,6.7981,6.7614,6.7687,6.7614,6.7614,6.7687,6.7687,6.8054,6.8752,6.8017,6.8054,6.8752,6.8017,6.7687,6.7687,6.7687,6.7687,6.7687,6.7687,6.7687,6.776,6.8495,6.8752,6.8972,7.0587,7.1174,7.1321,7.2202,7.2496,7.2496,7.2496,7.2496,7.2496,7.2496,7.2496,7.2496,7.2496,7.2496,7.2679,7.3377,7.3046,7.2863,7.4294,7.4074,7.356,7.356,7.356,7.3377,7.2753,7.312,7.356,7.356,7.2973,7.2496,7.2496,7.2496,7.2496,7.2496,7.2422,7.2349,7.2349,7.1651,7.1468,7.2165,7.0917,7.0403,7.1138,7.0477,7.011,7.011,7.011,7.011,7.011,7.0,6.9596,6.8898,6.8825,6.8348,6.754,6.754,6.7504,0.0,0.0,0.0,0.0,5.9924,5.8013,5.6172,5.3589,5.1598,5.1545,0.0,0.0,0.0,0.0,0.0,0.0,5.0064,5.075,5.0638,5.1192,5.3265,5.7714,5.8515,5.9388,6.108,6.1728,6.2828,6.4714,6.3855,6.4296,6.6696,6.6476,6.6733,6.765,6.7247,6.721,6.7687,6.7687,6.7871,6.8201,6.7834,6.7871,6.8201,6.7834,6.7687,6.7687,6.7687,6.7687,6.7687,6.7687,6.7687,6.7834,6.9082,6.9302,6.9045,7.0183,7.0917,7.1403,7.2239,7.2496,7.2496,7.2496,7.2496,7.2496,7.2496,7.2496,7.2496,7.2496,7.2826,7.3266,7.3597,7.3817,7.4074,7.4735,7.4661,7.4404,7.4404,7.4404,7.4441,7.4551,7.4478,7.4551,7.4992,7.4037,7.3193,7.3193,7.3193,7.3193,7.3193,7.3193,7.301,7.2569,7.2202,7.2129,7.2459,7.1872,7.1651,7.1982,7.1688,7.1505,7.1505,7.1505,7.1505,7.1505,7.1027,7.0624,7.0293,6.9816,6.9412,6.9045,6.8128,6.7687,6.7184,6.632,6.548,6.3587,6.1034,5.8486,5.6813,5.4178,0.0,5.2286,5.1591,0.0,0.0,0.0,0.0,0.0,0.0,4.8781,4.941,4.8639,4.9603,5.3949,5.5175,5.6434,5.8364,5.9368,6.0542,6.201,6.1691,6.2572,6.5165,6.5301,6.6035,6.7677,6.7136,6.71,6.7687,6.7687,6.7797,6.8017,6.7797,6.7797,6.8017,6.7797,6.7687,6.7687,6.7687,6.7687,6.7687,6.7687,6.7687,6.7834,6.9229,6.9559,6.9339,7.0367,7.0991,7.1403,7.2239,7.2496,7.2496,7.2496,7.2496,7.2496,7.2496,7.2642,7.2789,7.2569,7.3083,7.3744,7.3964,7.4294,7.4735,7.5402,7.5395,7.5249,7.5249,7.5249,7.5359,7.5689,7.5469,7.5359,7.5726,7.4808,7.4037,7.4037,7.4037,7.4037,7.4037,7.4037,7.3707,7.2899,7.2826,7.2826,7.2826,7.2826,7.2826,7.2826,7.3046,7.3083,7.2826,7.2826,7.2826,7.2826,7.2055,7.1541,7.1293,7.0734,7.033,7.0073,6.8678,6.8017,6.8382,6.879,6.8643,6.5739,6.3739,6.1525,5.7659,5.5938,5.4483,0.0,0.0,0.0,0.0,0.0,0.0,0.0,0.0,0.0,0.0,4.7201,4.7876,5.0897,5.385,5.5941,5.6785,5.6085,5.6965,6.0212,5.8906,6.0115,6.5018,6.5301,6.6035,6.7677,6.765,6.765,6.7687,6.7687,6.8091,6.8862,6.8054,6.8091,6.8862,6.8054,6.7687,6.7687,6.7687,6.7687,6.7687,6.7687,6.7687,6.776,6.8605,6.9412,7.0257,7.1835,7.1945,7.1403,7.2239,7.2496,7.2496,7.2496,7.2496,7.2496,7.2496,7.3046,7.3487,7.2716,7.3083,7.3891,7.4661,7.4294,7.4331,7.665,7.6644,7.6056,7.6056,7.6056,7.5836,7.5102,7.5542,7.5836,7.5065,7.4918,7.4882,7.4882,7.4882,7.4882,7.4882,7.4882,7.4551,7.3744,7.367,7.367,7.367,7.367,7.367,7.367,7.4404,7.4478,7.367,7.367,7.367,7.367,7.2863,7.2092,7.1293,7.1256,7.0881,7.0073,6.9265,6.8862,7.397,7.3942,7.3241,6.9681,6.7493,6.5342,6.206,6.0285,5.8756,0.0,0.0,0.0,0.0,0.0,0.0,0.0,0.0,0.0,0.0,4.6178,4.617,4.7682,5.0076,5.154,5.1323,5.194,5.3256,5.5478,5.5566,5.7217,6.1056,6.3319,6.5007,6.6072,6.765,6.8238,6.7714,6.8238,6.8348,6.8091,6.7834,6.7834,6.8091,6.8385,6.8495,6.8531,6.9045,6.9265,6.9265,6.9265,6.9265,6.9376,7.0183,7.066,7.0954,7.1505,7.1872,7.2129,7.2422,7.2496,7.2496,7.2496,7.2863,7.3303,7.3303,7.3854,7.4441,7.4184,7.4661,7.5359,7.5616,7.5909,7.6313,7.709,7.709,7.69,7.69,7.69,7.6827,7.654,7.6686,7.6827,7.654,7.6466,7.6313,7.5763,7.5689,7.5689,7.5689,7.5689,7.5395,7.4588,7.4478,7.4478,7.4478,7.4478,7.4478,7.4478,7.4771,7.4808,7.4515,7.4478,7.4478,7.4478,7.4221,7.3707,7.2899,7.2899,7.2459,7.1688,7.0881,7.022,7.5896,7.5793,7.5093,7.1564,6.9825,6.8086,6.4859,6.3817,6.2848,6.0545,0.0,0.0,0.0,0.0,0.0,0.0,0.0,0.0,0.0,4.5811,4.551,4.544,4.7408,4.8714,4.8512,4.9375,5.0401,5.1389,5.2747,5.484,5.7776,6.1263,6.398,6.5668,6.7797,6.8788,6.8531,6.8788,6.8641,6.8128,6.7834,6.7687,6.7724,6.8531,6.8898,6.8935,6.9743,7.011,7.011,7.011,7.011,7.022,7.1321,7.1725,7.1762,7.2055,7.2679,7.334,7.334,7.334,7.334,7.334,7.3707,7.4147,7.4147,7.4698,7.5285,7.4992,7.5469,7.6093,7.6093,7.6497,7.6974,7.7237,7.7273,7.7273,7.7273,7.7273,7.7273,7.7273,7.7273,7.7273,7.7273,7.7273,7.7127,7.6607,7.6533,7.6533,7.6533,7.6533,7.624,7.5432,7.5322,7.5322,7.5322,7.5616,7.5652,7.5359,7.5616,7.5652,7.5359,7.5322,7.5616,7.6203,7.5359,7.4955,7.4992,7.4404,7.3854,7.334,7.2532,7.1872]}]]